<?xml version="1.0" encoding="UTF-8" standalone="no" ?>
<gpx xmlns="http://www.topografix.com/GPX/1/1" xmlns:xsi="http://www.w3.org/2001/XMLSchema-instance" xsi:schemaLocation="http://www.topografix.com/GPX/1/1 http://www.topografix.com/GPX/1/1/gpx.xsd" version="1.1" creator="VisuGPX - https://www.visugpx.com">
  <metadata>
    <name>Rando Queyssac (24) : &quot;Boucle des hameaux&quot; (8 km)</name>
    <desc><![CDATA[Départ rando : parking en face de l'église. Suivre le chemin blanc et prendre le sentier à gauche qui rejoint les bois.
Parcours facile, bien fléché, le plus souvent en sous-bois.
]]></desc>
  </metadata>
  <trk>
    <name><![CDATA[Rando Queyssac (24) : "Boucle des hameaux" (8 km)_1]]></name>
    <trkseg>
      <trkpt lat="44.90554" lon="0.54851">
        <ele>63.4</ele>
        <time>2019-08-06T07:00:33Z</time>
      </trkpt>
      <trkpt lat="44.90554" lon="0.54851">
        <ele>108.816</ele>
        <time>2019-08-06T07:00:35Z</time>
      </trkpt>
      <trkpt lat="44.90562" lon="0.5484">
        <ele>110.421</ele>
        <time>2019-08-06T07:01:02Z</time>
      </trkpt>
      <trkpt lat="44.90565" lon="0.54835">
        <ele>110.525</ele>
        <time>2019-08-06T07:01:05Z</time>
      </trkpt>
      <trkpt lat="44.9057" lon="0.54831">
        <ele>110.629</ele>
        <time>2019-08-06T07:01:09Z</time>
      </trkpt>
      <trkpt lat="44.90572" lon="0.54829">
        <ele>110.665</ele>
        <time>2019-08-06T07:01:11Z</time>
      </trkpt>
      <trkpt lat="44.90576" lon="0.54825">
        <ele>110.694</ele>
        <time>2019-08-06T07:01:14Z</time>
      </trkpt>
      <trkpt lat="44.9058" lon="0.54821">
        <ele>110.705</ele>
        <time>2019-08-06T07:01:18Z</time>
      </trkpt>
      <trkpt lat="44.90586" lon="0.5482">
        <ele>110.65</ele>
        <time>2019-08-06T07:01:26Z</time>
      </trkpt>
      <trkpt lat="44.90589" lon="0.5482">
        <ele>110.616</ele>
        <time>2019-08-06T07:01:28Z</time>
      </trkpt>
      <trkpt lat="44.90594" lon="0.54818">
        <ele>110.555</ele>
        <time>2019-08-06T07:01:31Z</time>
      </trkpt>
      <trkpt lat="44.90598" lon="0.54816">
        <ele>110.489</ele>
        <time>2019-08-06T07:01:34Z</time>
      </trkpt>
      <trkpt lat="44.90604" lon="0.54815">
        <ele>110.392</ele>
        <time>2019-08-06T07:01:38Z</time>
      </trkpt>
      <trkpt lat="44.90608" lon="0.54814">
        <ele>110.32</ele>
        <time>2019-08-06T07:01:41Z</time>
      </trkpt>
      <trkpt lat="44.90612" lon="0.54813">
        <ele>110.25</ele>
        <time>2019-08-06T07:01:44Z</time>
      </trkpt>
      <trkpt lat="44.90617" lon="0.5481">
        <ele>110.158</ele>
        <time>2019-08-06T07:01:48Z</time>
      </trkpt>
      <trkpt lat="44.90619" lon="0.54809">
        <ele>110.114</ele>
        <time>2019-08-06T07:01:50Z</time>
      </trkpt>
      <trkpt lat="44.90623" lon="0.54807">
        <ele>110.049</ele>
        <time>2019-08-06T07:01:53Z</time>
      </trkpt>
      <trkpt lat="44.90625" lon="0.54806">
        <ele>110.005</ele>
        <time>2019-08-06T07:01:55Z</time>
      </trkpt>
      <trkpt lat="44.90628" lon="0.54804">
        <ele>109.958</ele>
        <time>2019-08-06T07:01:57Z</time>
      </trkpt>
      <trkpt lat="44.9063" lon="0.54803">
        <ele>109.91</ele>
        <time>2019-08-06T07:01:59Z</time>
      </trkpt>
      <trkpt lat="44.90633" lon="0.54799">
        <ele>109.81</ele>
        <time>2019-08-06T07:02:03Z</time>
      </trkpt>
      <trkpt lat="44.90636" lon="0.54793">
        <ele>109.731</ele>
        <time>2019-08-06T07:02:06Z</time>
      </trkpt>
      <trkpt lat="44.9064" lon="0.54787">
        <ele>109.647</ele>
        <time>2019-08-06T07:02:09Z</time>
      </trkpt>
      <trkpt lat="44.90642" lon="0.54784">
        <ele>109.616</ele>
        <time>2019-08-06T07:02:10Z</time>
      </trkpt>
      <trkpt lat="44.90643" lon="0.54781">
        <ele>109.583</ele>
        <time>2019-08-06T07:02:11Z</time>
      </trkpt>
      <trkpt lat="44.90646" lon="0.54776">
        <ele>109.51</ele>
        <time>2019-08-06T07:02:13Z</time>
      </trkpt>
      <trkpt lat="44.90648" lon="0.54772">
        <ele>109.427</ele>
        <time>2019-08-06T07:02:15Z</time>
      </trkpt>
      <trkpt lat="44.9065" lon="0.54768">
        <ele>109.333</ele>
        <time>2019-08-06T07:02:17Z</time>
      </trkpt>
      <trkpt lat="44.90651" lon="0.54764">
        <ele>109.228</ele>
        <time>2019-08-06T07:02:19Z</time>
      </trkpt>
      <trkpt lat="44.90653" lon="0.54761">
        <ele>109.114</ele>
        <time>2019-08-06T07:02:21Z</time>
      </trkpt>
      <trkpt lat="44.90657" lon="0.54756">
        <ele>108.852</ele>
        <time>2019-08-06T07:02:25Z</time>
      </trkpt>
      <trkpt lat="44.9066" lon="0.5475">
        <ele>108.523</ele>
        <time>2019-08-06T07:02:29Z</time>
      </trkpt>
      <trkpt lat="44.90661" lon="0.54747">
        <ele>108.333</ele>
        <time>2019-08-06T07:02:31Z</time>
      </trkpt>
      <trkpt lat="44.90663" lon="0.54744">
        <ele>108.118</ele>
        <time>2019-08-06T07:02:33Z</time>
      </trkpt>
      <trkpt lat="44.90665" lon="0.5474">
        <ele>107.887</ele>
        <time>2019-08-06T07:02:35Z</time>
      </trkpt>
      <trkpt lat="44.90668" lon="0.54734">
        <ele>107.463</ele>
        <time>2019-08-06T07:02:38Z</time>
      </trkpt>
      <trkpt lat="44.90669" lon="0.54728">
        <ele>106.95</ele>
        <time>2019-08-06T07:02:41Z</time>
      </trkpt>
      <trkpt lat="44.9067" lon="0.54721">
        <ele>106.349</ele>
        <time>2019-08-06T07:02:44Z</time>
      </trkpt>
      <trkpt lat="44.90671" lon="0.54717">
        <ele>105.906</ele>
        <time>2019-08-06T07:02:46Z</time>
      </trkpt>
      <trkpt lat="44.90671" lon="0.54709">
        <ele>104.939</ele>
        <time>2019-08-06T07:02:50Z</time>
      </trkpt>
      <trkpt lat="44.9067" lon="0.54706">
        <ele>104.423</ele>
        <time>2019-08-06T07:02:52Z</time>
      </trkpt>
      <trkpt lat="44.90671" lon="0.54698">
        <ele>103.339</ele>
        <time>2019-08-06T07:02:56Z</time>
      </trkpt>
      <trkpt lat="44.90671" lon="0.54694">
        <ele>102.778</ele>
        <time>2019-08-06T07:02:58Z</time>
      </trkpt>
      <trkpt lat="44.90673" lon="0.54687">
        <ele>101.623</ele>
        <time>2019-08-06T07:03:02Z</time>
      </trkpt>
      <trkpt lat="44.90676" lon="0.54681">
        <ele>100.446</ele>
        <time>2019-08-06T07:03:06Z</time>
      </trkpt>
      <trkpt lat="44.90678" lon="0.54677">
        <ele>99.5578</ele>
        <time>2019-08-06T07:03:09Z</time>
      </trkpt>
      <trkpt lat="44.90681" lon="0.54672">
        <ele>98.6647</ele>
        <time>2019-08-06T07:03:12Z</time>
      </trkpt>
      <trkpt lat="44.90683" lon="0.54665">
        <ele>97.4756</ele>
        <time>2019-08-06T07:03:16Z</time>
      </trkpt>
      <trkpt lat="44.90684" lon="0.54662">
        <ele>96.8902</ele>
        <time>2019-08-06T07:03:18Z</time>
      </trkpt>
      <trkpt lat="44.90688" lon="0.54656">
        <ele>95.7256</ele>
        <time>2019-08-06T07:03:22Z</time>
      </trkpt>
      <trkpt lat="44.90692" lon="0.5465">
        <ele>94.8574</ele>
        <time>2019-08-06T07:03:25Z</time>
      </trkpt>
      <trkpt lat="44.90695" lon="0.54645">
        <ele>93.7078</ele>
        <time>2019-08-06T07:03:29Z</time>
      </trkpt>
      <trkpt lat="44.90698" lon="0.54638">
        <ele>92.5714</ele>
        <time>2019-08-06T07:03:33Z</time>
      </trkpt>
      <trkpt lat="44.907" lon="0.54634">
        <ele>92.0118</ele>
        <time>2019-08-06T07:03:35Z</time>
      </trkpt>
      <trkpt lat="44.90702" lon="0.54631">
        <ele>91.4597</ele>
        <time>2019-08-06T07:03:37Z</time>
      </trkpt>
      <trkpt lat="44.90705" lon="0.54624">
        <ele>90.3827</ele>
        <time>2019-08-06T07:03:41Z</time>
      </trkpt>
      <trkpt lat="44.90706" lon="0.54618">
        <ele>89.611</ele>
        <time>2019-08-06T07:03:44Z</time>
      </trkpt>
      <trkpt lat="44.90706" lon="0.54613">
        <ele>88.8731</ele>
        <time>2019-08-06T07:03:47Z</time>
      </trkpt>
      <trkpt lat="44.9071" lon="0.54607">
        <ele>87.9219</ele>
        <time>2019-08-06T07:03:51Z</time>
      </trkpt>
      <trkpt lat="44.90712" lon="0.54604">
        <ele>87.4599</ele>
        <time>2019-08-06T07:03:53Z</time>
      </trkpt>
      <trkpt lat="44.90715" lon="0.54597">
        <ele>86.5681</ele>
        <time>2019-08-06T07:03:57Z</time>
      </trkpt>
      <trkpt lat="44.90717" lon="0.54591">
        <ele>85.7146</ele>
        <time>2019-08-06T07:04:01Z</time>
      </trkpt>
      <trkpt lat="44.90719" lon="0.54585">
        <ele>84.697</ele>
        <time>2019-08-06T07:04:06Z</time>
      </trkpt>
      <trkpt lat="44.90722" lon="0.54579">
        <ele>83.9181</ele>
        <time>2019-08-06T07:04:10Z</time>
      </trkpt>
      <trkpt lat="44.90725" lon="0.54574">
        <ele>83.3533</ele>
        <time>2019-08-06T07:04:13Z</time>
      </trkpt>
      <trkpt lat="44.90727" lon="0.54571">
        <ele>82.9838</ele>
        <time>2019-08-06T07:04:15Z</time>
      </trkpt>
      <trkpt lat="44.90729" lon="0.54568">
        <ele>82.6217</ele>
        <time>2019-08-06T07:04:17Z</time>
      </trkpt>
      <trkpt lat="44.90731" lon="0.54565">
        <ele>82.2655</ele>
        <time>2019-08-06T07:04:19Z</time>
      </trkpt>
      <trkpt lat="44.90733" lon="0.54559">
        <ele>81.406</ele>
        <time>2019-08-06T07:04:24Z</time>
      </trkpt>
      <trkpt lat="44.90737" lon="0.54553">
        <ele>80.751</ele>
        <time>2019-08-06T07:04:28Z</time>
      </trkpt>
      <trkpt lat="44.90739" lon="0.54549">
        <ele>80.2773</ele>
        <time>2019-08-06T07:04:31Z</time>
      </trkpt>
      <trkpt lat="44.90743" lon="0.54544">
        <ele>79.8177</ele>
        <time>2019-08-06T07:04:34Z</time>
      </trkpt>
      <trkpt lat="44.90744" lon="0.54538">
        <ele>79.3771</ele>
        <time>2019-08-06T07:04:37Z</time>
      </trkpt>
      <trkpt lat="44.90745" lon="0.54534">
        <ele>79.0942</ele>
        <time>2019-08-06T07:04:39Z</time>
      </trkpt>
      <trkpt lat="44.90746" lon="0.54527">
        <ele>78.6902</ele>
        <time>2019-08-06T07:04:42Z</time>
      </trkpt>
      <trkpt lat="44.90749" lon="0.54522">
        <ele>78.3117</ele>
        <time>2019-08-06T07:04:45Z</time>
      </trkpt>
      <trkpt lat="44.90751" lon="0.54519">
        <ele>78.0665</ele>
        <time>2019-08-06T07:04:47Z</time>
      </trkpt>
      <trkpt lat="44.90753" lon="0.54512">
        <ele>77.5914</ele>
        <time>2019-08-06T07:04:51Z</time>
      </trkpt>
      <trkpt lat="44.90754" lon="0.54505">
        <ele>77.1496</ele>
        <time>2019-08-06T07:04:55Z</time>
      </trkpt>
      <trkpt lat="44.90757" lon="0.545">
        <ele>76.7302</ele>
        <time>2019-08-06T07:04:59Z</time>
      </trkpt>
      <trkpt lat="44.90759" lon="0.54497">
        <ele>76.5239</ele>
        <time>2019-08-06T07:05:01Z</time>
      </trkpt>
      <trkpt lat="44.9076" lon="0.54494">
        <ele>76.3216</ele>
        <time>2019-08-06T07:05:03Z</time>
      </trkpt>
      <trkpt lat="44.90763" lon="0.54491">
        <ele>75.931</ele>
        <time>2019-08-06T07:05:07Z</time>
      </trkpt>
      <trkpt lat="44.90765" lon="0.54484">
        <ele>75.5573</ele>
        <time>2019-08-06T07:05:11Z</time>
      </trkpt>
      <trkpt lat="44.90766" lon="0.5448">
        <ele>75.3768</ele>
        <time>2019-08-06T07:05:13Z</time>
      </trkpt>
      <trkpt lat="44.90767" lon="0.54476">
        <ele>75.2003</ele>
        <time>2019-08-06T07:05:15Z</time>
      </trkpt>
      <trkpt lat="44.90769" lon="0.54471">
        <ele>75.0272</ele>
        <time>2019-08-06T07:05:17Z</time>
      </trkpt>
      <trkpt lat="44.90769" lon="0.54468">
        <ele>74.8577</ele>
        <time>2019-08-06T07:05:19Z</time>
      </trkpt>
      <trkpt lat="44.90771" lon="0.54463">
        <ele>74.6085</ele>
        <time>2019-08-06T07:05:22Z</time>
      </trkpt>
      <trkpt lat="44.90772" lon="0.54456">
        <ele>74.284</ele>
        <time>2019-08-06T07:05:26Z</time>
      </trkpt>
      <trkpt lat="44.90773" lon="0.5445">
        <ele>73.968</ele>
        <time>2019-08-06T07:05:30Z</time>
      </trkpt>
      <trkpt lat="44.90776" lon="0.54442">
        <ele>73.5795</ele>
        <time>2019-08-06T07:05:35Z</time>
      </trkpt>
      <trkpt lat="44.90777" lon="0.54439">
        <ele>73.4243</ele>
        <time>2019-08-06T07:05:37Z</time>
      </trkpt>
      <trkpt lat="44.90779" lon="0.54432">
        <ele>73.1916</ele>
        <time>2019-08-06T07:05:40Z</time>
      </trkpt>
      <trkpt lat="44.90781" lon="0.54426">
        <ele>72.8093</ele>
        <time>2019-08-06T07:05:45Z</time>
      </trkpt>
      <trkpt lat="44.90782" lon="0.54422">
        <ele>72.5897</ele>
        <time>2019-08-06T07:05:48Z</time>
      </trkpt>
      <trkpt lat="44.90784" lon="0.54416">
        <ele>72.3122</ele>
        <time>2019-08-06T07:05:52Z</time>
      </trkpt>
      <trkpt lat="44.90785" lon="0.54411">
        <ele>72.118</ele>
        <time>2019-08-06T07:05:55Z</time>
      </trkpt>
      <trkpt lat="44.90785" lon="0.54405">
        <ele>71.8127</ele>
        <time>2019-08-06T07:06:00Z</time>
      </trkpt>
      <trkpt lat="44.90786" lon="0.54397">
        <ele>71.5401</ele>
        <time>2019-08-06T07:06:05Z</time>
      </trkpt>
      <trkpt lat="44.90788" lon="0.5439">
        <ele>71.2936</ele>
        <time>2019-08-06T07:06:10Z</time>
      </trkpt>
      <trkpt lat="44.9079" lon="0.54385">
        <ele>71.1533</ele>
        <time>2019-08-06T07:06:13Z</time>
      </trkpt>
      <trkpt lat="44.90791" lon="0.54382">
        <ele>71.0662</ele>
        <time>2019-08-06T07:06:15Z</time>
      </trkpt>
      <trkpt lat="44.90794" lon="0.54375">
        <ele>70.9379</ele>
        <time>2019-08-06T07:06:18Z</time>
      </trkpt>
      <trkpt lat="44.90796" lon="0.54371">
        <ele>70.8549</ele>
        <time>2019-08-06T07:06:20Z</time>
      </trkpt>
      <trkpt lat="44.90798" lon="0.54367">
        <ele>70.7718</ele>
        <time>2019-08-06T07:06:22Z</time>
      </trkpt>
      <trkpt lat="44.90799" lon="0.54364">
        <ele>70.6893</ele>
        <time>2019-08-06T07:06:24Z</time>
      </trkpt>
      <trkpt lat="44.90801" lon="0.54361">
        <ele>70.607</ele>
        <time>2019-08-06T07:06:26Z</time>
      </trkpt>
      <trkpt lat="44.90804" lon="0.54354">
        <ele>70.4452</ele>
        <time>2019-08-06T07:06:30Z</time>
      </trkpt>
      <trkpt lat="44.90807" lon="0.54347">
        <ele>70.3249</ele>
        <time>2019-08-06T07:06:33Z</time>
      </trkpt>
      <trkpt lat="44.90809" lon="0.54341">
        <ele>70.2013</ele>
        <time>2019-08-06T07:06:36Z</time>
      </trkpt>
      <trkpt lat="44.9081" lon="0.54337">
        <ele>70.1179</ele>
        <time>2019-08-06T07:06:38Z</time>
      </trkpt>
      <trkpt lat="44.90813" lon="0.54331">
        <ele>69.9485</ele>
        <time>2019-08-06T07:06:42Z</time>
      </trkpt>
      <trkpt lat="44.90816" lon="0.54325">
        <ele>69.7753</ele>
        <time>2019-08-06T07:06:46Z</time>
      </trkpt>
      <trkpt lat="44.90818" lon="0.54322">
        <ele>69.6886</ele>
        <time>2019-08-06T07:06:48Z</time>
      </trkpt>
      <trkpt lat="44.90821" lon="0.54317">
        <ele>69.5165</ele>
        <time>2019-08-06T07:06:52Z</time>
      </trkpt>
      <trkpt lat="44.90824" lon="0.54313">
        <ele>69.2587</ele>
        <time>2019-08-06T07:06:58Z</time>
      </trkpt>
      <trkpt lat="44.90827" lon="0.54307">
        <ele>69.0961</ele>
        <time>2019-08-06T07:07:02Z</time>
      </trkpt>
      <trkpt lat="44.90831" lon="0.54302">
        <ele>68.8758</ele>
        <time>2019-08-06T07:07:08Z</time>
      </trkpt>
      <trkpt lat="44.90833" lon="0.543">
        <ele>68.8113</ele>
        <time>2019-08-06T07:07:10Z</time>
      </trkpt>
      <trkpt lat="44.90837" lon="0.54296">
        <ele>68.7224</ele>
        <time>2019-08-06T07:07:13Z</time>
      </trkpt>
      <trkpt lat="44.9084" lon="0.54291">
        <ele>68.6099</ele>
        <time>2019-08-06T07:07:17Z</time>
      </trkpt>
      <trkpt lat="44.90844" lon="0.54285">
        <ele>68.4947</ele>
        <time>2019-08-06T07:07:21Z</time>
      </trkpt>
      <trkpt lat="44.90847" lon="0.54278">
        <ele>68.4085</ele>
        <time>2019-08-06T07:07:24Z</time>
      </trkpt>
      <trkpt lat="44.90848" lon="0.54274">
        <ele>68.3516</ele>
        <time>2019-08-06T07:07:26Z</time>
      </trkpt>
      <trkpt lat="44.90852" lon="0.54269">
        <ele>68.2424</ele>
        <time>2019-08-06T07:07:30Z</time>
      </trkpt>
      <trkpt lat="44.90854" lon="0.54266">
        <ele>68.1886</ele>
        <time>2019-08-06T07:07:32Z</time>
      </trkpt>
      <trkpt lat="44.90856" lon="0.54263">
        <ele>68.1352</ele>
        <time>2019-08-06T07:07:34Z</time>
      </trkpt>
      <trkpt lat="44.90858" lon="0.54257">
        <ele>68.0616</ele>
        <time>2019-08-06T07:07:37Z</time>
      </trkpt>
      <trkpt lat="44.90862" lon="0.54252">
        <ele>67.9918</ele>
        <time>2019-08-06T07:07:40Z</time>
      </trkpt>
      <trkpt lat="44.90865" lon="0.54246">
        <ele>67.906</ele>
        <time>2019-08-06T07:07:44Z</time>
      </trkpt>
      <trkpt lat="44.90867" lon="0.54242">
        <ele>67.8673</ele>
        <time>2019-08-06T07:07:46Z</time>
      </trkpt>
      <trkpt lat="44.90868" lon="0.54239">
        <ele>67.8311</ele>
        <time>2019-08-06T07:07:48Z</time>
      </trkpt>
      <trkpt lat="44.90869" lon="0.54236">
        <ele>67.7963</ele>
        <time>2019-08-06T07:07:50Z</time>
      </trkpt>
      <trkpt lat="44.90873" lon="0.5423">
        <ele>67.7127</ele>
        <time>2019-08-06T07:07:55Z</time>
      </trkpt>
      <trkpt lat="44.90875" lon="0.54224">
        <ele>67.6542</ele>
        <time>2019-08-06T07:07:59Z</time>
      </trkpt>
      <trkpt lat="44.90877" lon="0.5422">
        <ele>67.6282</ele>
        <time>2019-08-06T07:08:01Z</time>
      </trkpt>
      <trkpt lat="44.90878" lon="0.54215">
        <ele>67.5922</ele>
        <time>2019-08-06T07:08:04Z</time>
      </trkpt>
      <trkpt lat="44.9088" lon="0.54211">
        <ele>67.5702</ele>
        <time>2019-08-06T07:08:06Z</time>
      </trkpt>
      <trkpt lat="44.90881" lon="0.54208">
        <ele>67.5505</ele>
        <time>2019-08-06T07:08:08Z</time>
      </trkpt>
      <trkpt lat="44.90883" lon="0.54201">
        <ele>67.5278</ele>
        <time>2019-08-06T07:08:11Z</time>
      </trkpt>
      <trkpt lat="44.90887" lon="0.54195">
        <ele>67.5174</ele>
        <time>2019-08-06T07:08:16Z</time>
      </trkpt>
      <trkpt lat="44.90889" lon="0.54188">
        <ele>67.52</ele>
        <time>2019-08-06T07:08:20Z</time>
      </trkpt>
      <trkpt lat="44.90892" lon="0.54182">
        <ele>67.5381</ele>
        <time>2019-08-06T07:08:24Z</time>
      </trkpt>
      <trkpt lat="44.90893" lon="0.54175">
        <ele>67.5673</ele>
        <time>2019-08-06T07:08:28Z</time>
      </trkpt>
      <trkpt lat="44.90896" lon="0.5417">
        <ele>67.5995</ele>
        <time>2019-08-06T07:08:32Z</time>
      </trkpt>
      <trkpt lat="44.90897" lon="0.54167">
        <ele>67.6216</ele>
        <time>2019-08-06T07:08:34Z</time>
      </trkpt>
      <trkpt lat="44.90901" lon="0.54162">
        <ele>67.6846</ele>
        <time>2019-08-06T07:08:39Z</time>
      </trkpt>
      <trkpt lat="44.90904" lon="0.54156">
        <ele>67.7306</ele>
        <time>2019-08-06T07:08:42Z</time>
      </trkpt>
      <trkpt lat="44.90907" lon="0.5415">
        <ele>67.7954</ele>
        <time>2019-08-06T07:08:46Z</time>
      </trkpt>
      <trkpt lat="44.9091" lon="0.54143">
        <ele>67.8646</ele>
        <time>2019-08-06T07:08:50Z</time>
      </trkpt>
      <trkpt lat="44.90913" lon="0.54136">
        <ele>67.933</ele>
        <time>2019-08-06T07:08:54Z</time>
      </trkpt>
      <trkpt lat="44.90914" lon="0.54133">
        <ele>67.985</ele>
        <time>2019-08-06T07:08:57Z</time>
      </trkpt>
      <trkpt lat="44.90913" lon="0.54126">
        <ele>68.107</ele>
        <time>2019-08-06T07:09:04Z</time>
      </trkpt>
      <trkpt lat="44.90914" lon="0.54117">
        <ele>68.2183</ele>
        <time>2019-08-06T07:09:09Z</time>
      </trkpt>
      <trkpt lat="44.90914" lon="0.54112">
        <ele>68.2697</ele>
        <time>2019-08-06T07:09:11Z</time>
      </trkpt>
      <trkpt lat="44.90914" lon="0.54108">
        <ele>68.3516</ele>
        <time>2019-08-06T07:09:14Z</time>
      </trkpt>
      <trkpt lat="44.90915" lon="0.54101">
        <ele>68.4943</ele>
        <time>2019-08-06T07:09:19Z</time>
      </trkpt>
      <trkpt lat="44.90916" lon="0.54094">
        <ele>68.6382</ele>
        <time>2019-08-06T07:09:24Z</time>
      </trkpt>
      <trkpt lat="44.90917" lon="0.5409">
        <ele>68.7255</ele>
        <time>2019-08-06T07:09:27Z</time>
      </trkpt>
      <trkpt lat="44.90918" lon="0.54083">
        <ele>68.8371</ele>
        <time>2019-08-06T07:09:31Z</time>
      </trkpt>
      <trkpt lat="44.90921" lon="0.54077">
        <ele>68.9372</ele>
        <time>2019-08-06T07:09:35Z</time>
      </trkpt>
      <trkpt lat="44.90922" lon="0.54074">
        <ele>68.9836</ele>
        <time>2019-08-06T07:09:37Z</time>
      </trkpt>
      <trkpt lat="44.90923" lon="0.54067">
        <ele>69.072</ele>
        <time>2019-08-06T07:09:41Z</time>
      </trkpt>
      <trkpt lat="44.90924" lon="0.54063">
        <ele>69.1139</ele>
        <time>2019-08-06T07:09:43Z</time>
      </trkpt>
      <trkpt lat="44.90926" lon="0.54057">
        <ele>69.1959</ele>
        <time>2019-08-06T07:09:47Z</time>
      </trkpt>
      <trkpt lat="44.90927" lon="0.5405">
        <ele>69.2785</ele>
        <time>2019-08-06T07:09:51Z</time>
      </trkpt>
      <trkpt lat="44.90928" lon="0.54045">
        <ele>69.3212</ele>
        <time>2019-08-06T07:09:53Z</time>
      </trkpt>
      <trkpt lat="44.9093" lon="0.54038">
        <ele>69.4027</ele>
        <time>2019-08-06T07:09:57Z</time>
      </trkpt>
      <trkpt lat="44.90931" lon="0.54031">
        <ele>69.4856</ele>
        <time>2019-08-06T07:10:01Z</time>
      </trkpt>
      <trkpt lat="44.90933" lon="0.54025">
        <ele>69.5635</ele>
        <time>2019-08-06T07:10:05Z</time>
      </trkpt>
      <trkpt lat="44.90936" lon="0.54019">
        <ele>69.6269</ele>
        <time>2019-08-06T07:10:09Z</time>
      </trkpt>
      <trkpt lat="44.90939" lon="0.54015">
        <ele>69.6698</ele>
        <time>2019-08-06T07:10:13Z</time>
      </trkpt>
      <trkpt lat="44.90941" lon="0.54008">
        <ele>69.6963</ele>
        <time>2019-08-06T07:10:16Z</time>
      </trkpt>
      <trkpt lat="44.90941" lon="0.54">
        <ele>69.7292</ele>
        <time>2019-08-06T07:10:20Z</time>
      </trkpt>
      <trkpt lat="44.9094" lon="0.53992">
        <ele>69.7639</ele>
        <time>2019-08-06T07:10:24Z</time>
      </trkpt>
      <trkpt lat="44.90942" lon="0.53985">
        <ele>69.7891</ele>
        <time>2019-08-06T07:10:27Z</time>
      </trkpt>
      <trkpt lat="44.90944" lon="0.53979">
        <ele>69.8108</ele>
        <time>2019-08-06T07:10:30Z</time>
      </trkpt>
      <trkpt lat="44.90945" lon="0.53975">
        <ele>69.8285</ele>
        <time>2019-08-06T07:10:32Z</time>
      </trkpt>
      <trkpt lat="44.90949" lon="0.53972">
        <ele>69.8464</ele>
        <time>2019-08-06T07:10:34Z</time>
      </trkpt>
      <trkpt lat="44.90951" lon="0.5397">
        <ele>69.8542</ele>
        <time>2019-08-06T07:10:35Z</time>
      </trkpt>
      <trkpt lat="44.90955" lon="0.53964">
        <ele>69.884</ele>
        <time>2019-08-06T07:10:39Z</time>
      </trkpt>
      <trkpt lat="44.9096" lon="0.5396">
        <ele>69.926</ele>
        <time>2019-08-06T07:10:43Z</time>
      </trkpt>
      <trkpt lat="44.90966" lon="0.53958">
        <ele>69.9571</ele>
        <time>2019-08-06T07:10:46Z</time>
      </trkpt>
      <trkpt lat="44.90971" lon="0.53954">
        <ele>69.9808</ele>
        <time>2019-08-06T07:10:49Z</time>
      </trkpt>
      <trkpt lat="44.90974" lon="0.53949">
        <ele>70.0036</ele>
        <time>2019-08-06T07:10:52Z</time>
      </trkpt>
      <trkpt lat="44.90979" lon="0.53947">
        <ele>70.0325</ele>
        <time>2019-08-06T07:10:56Z</time>
      </trkpt>
      <trkpt lat="44.90984" lon="0.53943">
        <ele>70.0568</ele>
        <time>2019-08-06T07:11:01Z</time>
      </trkpt>
      <trkpt lat="44.90985" lon="0.53936">
        <ele>70.0785</ele>
        <time>2019-08-06T07:11:06Z</time>
      </trkpt>
      <trkpt lat="44.90987" lon="0.5393">
        <ele>70.1053</ele>
        <time>2019-08-06T07:11:10Z</time>
      </trkpt>
      <trkpt lat="44.90989" lon="0.53927">
        <ele>70.1181</ele>
        <time>2019-08-06T07:11:12Z</time>
      </trkpt>
      <trkpt lat="44.90992" lon="0.53921">
        <ele>70.1338</ele>
        <time>2019-08-06T07:11:15Z</time>
      </trkpt>
      <trkpt lat="44.90994" lon="0.53914">
        <ele>70.1486</ele>
        <time>2019-08-06T07:11:18Z</time>
      </trkpt>
      <trkpt lat="44.90995" lon="0.5391">
        <ele>70.1614</ele>
        <time>2019-08-06T07:11:20Z</time>
      </trkpt>
      <trkpt lat="44.90998" lon="0.53904">
        <ele>70.208</ele>
        <time>2019-08-06T07:11:26Z</time>
      </trkpt>
      <trkpt lat="44.91" lon="0.539">
        <ele>70.2332</ele>
        <time>2019-08-06T07:11:29Z</time>
      </trkpt>
      <trkpt lat="44.91002" lon="0.53893">
        <ele>70.2572</ele>
        <time>2019-08-06T07:11:32Z</time>
      </trkpt>
      <trkpt lat="44.91005" lon="0.53887">
        <ele>70.2829</ele>
        <time>2019-08-06T07:11:36Z</time>
      </trkpt>
      <trkpt lat="44.91006" lon="0.5388">
        <ele>70.3112</ele>
        <time>2019-08-06T07:11:40Z</time>
      </trkpt>
      <trkpt lat="44.91007" lon="0.53875">
        <ele>70.3334</ele>
        <time>2019-08-06T07:11:43Z</time>
      </trkpt>
      <trkpt lat="44.91011" lon="0.53868">
        <ele>70.3645</ele>
        <time>2019-08-06T07:11:47Z</time>
      </trkpt>
      <trkpt lat="44.91013" lon="0.53864">
        <ele>70.377</ele>
        <time>2019-08-06T07:11:49Z</time>
      </trkpt>
      <trkpt lat="44.91015" lon="0.53859">
        <ele>70.3878</ele>
        <time>2019-08-06T07:11:51Z</time>
      </trkpt>
      <trkpt lat="44.91018" lon="0.53852">
        <ele>70.4219</ele>
        <time>2019-08-06T07:11:56Z</time>
      </trkpt>
      <trkpt lat="44.9102" lon="0.53846">
        <ele>70.4468</ele>
        <time>2019-08-06T07:11:59Z</time>
      </trkpt>
      <trkpt lat="44.91023" lon="0.53841">
        <ele>70.4708</ele>
        <time>2019-08-06T07:12:02Z</time>
      </trkpt>
      <trkpt lat="44.91026" lon="0.53836">
        <ele>70.4857</ele>
        <time>2019-08-06T07:12:04Z</time>
      </trkpt>
      <trkpt lat="44.91028" lon="0.53833">
        <ele>70.4983</ele>
        <time>2019-08-06T07:12:06Z</time>
      </trkpt>
      <trkpt lat="44.9103" lon="0.5383">
        <ele>70.509</ele>
        <time>2019-08-06T07:12:08Z</time>
      </trkpt>
      <trkpt lat="44.91033" lon="0.53822">
        <ele>70.5358</ele>
        <time>2019-08-06T07:12:13Z</time>
      </trkpt>
      <trkpt lat="44.91036" lon="0.53817">
        <ele>70.5518</ele>
        <time>2019-08-06T07:12:16Z</time>
      </trkpt>
      <trkpt lat="44.91038" lon="0.53813">
        <ele>70.5619</ele>
        <time>2019-08-06T07:12:18Z</time>
      </trkpt>
      <trkpt lat="44.9104" lon="0.53809">
        <ele>70.571</ele>
        <time>2019-08-06T07:12:20Z</time>
      </trkpt>
      <trkpt lat="44.91042" lon="0.53804">
        <ele>70.5833</ele>
        <time>2019-08-06T07:12:23Z</time>
      </trkpt>
      <trkpt lat="44.91043" lon="0.53801">
        <ele>70.5911</ele>
        <time>2019-08-06T07:12:25Z</time>
      </trkpt>
      <trkpt lat="44.91046" lon="0.53794">
        <ele>70.6066</ele>
        <time>2019-08-06T07:12:29Z</time>
      </trkpt>
      <trkpt lat="44.91048" lon="0.53791">
        <ele>70.6145</ele>
        <time>2019-08-06T07:12:31Z</time>
      </trkpt>
      <trkpt lat="44.91049" lon="0.53789">
        <ele>70.6223</ele>
        <time>2019-08-06T07:12:33Z</time>
      </trkpt>
      <trkpt lat="44.91051" lon="0.53785">
        <ele>70.6333</ele>
        <time>2019-08-06T07:12:36Z</time>
      </trkpt>
      <trkpt lat="44.91055" lon="0.53779">
        <ele>70.65</ele>
        <time>2019-08-06T07:12:40Z</time>
      </trkpt>
      <trkpt lat="44.91057" lon="0.53775">
        <ele>70.659</ele>
        <time>2019-08-06T07:12:42Z</time>
      </trkpt>
      <trkpt lat="44.91059" lon="0.53772">
        <ele>70.6744</ele>
        <time>2019-08-06T07:12:45Z</time>
      </trkpt>
      <trkpt lat="44.91061" lon="0.53766">
        <ele>70.6975</ele>
        <time>2019-08-06T07:12:49Z</time>
      </trkpt>
      <trkpt lat="44.91062" lon="0.53762">
        <ele>70.7099</ele>
        <time>2019-08-06T07:12:51Z</time>
      </trkpt>
      <trkpt lat="44.91063" lon="0.53759">
        <ele>70.7224</ele>
        <time>2019-08-06T07:12:53Z</time>
      </trkpt>
      <trkpt lat="44.91065" lon="0.53753">
        <ele>70.7427</ele>
        <time>2019-08-06T07:12:56Z</time>
      </trkpt>
      <trkpt lat="44.91067" lon="0.53748">
        <ele>70.7649</ele>
        <time>2019-08-06T07:12:59Z</time>
      </trkpt>
      <trkpt lat="44.91068" lon="0.53745">
        <ele>70.7806</ele>
        <time>2019-08-06T07:13:01Z</time>
      </trkpt>
      <trkpt lat="44.9107" lon="0.5374">
        <ele>70.8047</ele>
        <time>2019-08-06T07:13:04Z</time>
      </trkpt>
      <trkpt lat="44.91071" lon="0.53733">
        <ele>70.8486</ele>
        <time>2019-08-06T07:13:09Z</time>
      </trkpt>
      <trkpt lat="44.91071" lon="0.53727">
        <ele>70.8937</ele>
        <time>2019-08-06T07:13:13Z</time>
      </trkpt>
      <trkpt lat="44.91073" lon="0.53719">
        <ele>70.9567</ele>
        <time>2019-08-06T07:13:18Z</time>
      </trkpt>
      <trkpt lat="44.91074" lon="0.53712">
        <ele>71.0317</ele>
        <time>2019-08-06T07:13:23Z</time>
      </trkpt>
      <trkpt lat="44.91075" lon="0.53708">
        <ele>71.0815</ele>
        <time>2019-08-06T07:13:26Z</time>
      </trkpt>
      <trkpt lat="44.91075" lon="0.53701">
        <ele>71.1579</ele>
        <time>2019-08-06T07:13:30Z</time>
      </trkpt>
      <trkpt lat="44.91075" lon="0.53697">
        <ele>71.2188</ele>
        <time>2019-08-06T07:13:32Z</time>
      </trkpt>
      <trkpt lat="44.91075" lon="0.5369">
        <ele>71.3365</ele>
        <time>2019-08-06T07:13:35Z</time>
      </trkpt>
      <trkpt lat="44.91077" lon="0.53683">
        <ele>71.4674</ele>
        <time>2019-08-06T07:13:38Z</time>
      </trkpt>
      <trkpt lat="44.91078" lon="0.53676">
        <ele>71.635</ele>
        <time>2019-08-06T07:13:42Z</time>
      </trkpt>
      <trkpt lat="44.91078" lon="0.53672">
        <ele>71.7254</ele>
        <time>2019-08-06T07:13:44Z</time>
      </trkpt>
      <trkpt lat="44.9108" lon="0.53664">
        <ele>71.9529</ele>
        <time>2019-08-06T07:13:49Z</time>
      </trkpt>
      <trkpt lat="44.9108" lon="0.53661">
        <ele>72.0343</ele>
        <time>2019-08-06T07:13:51Z</time>
      </trkpt>
      <trkpt lat="44.91079" lon="0.53654">
        <ele>72.1491</ele>
        <time>2019-08-06T07:13:54Z</time>
      </trkpt>
      <trkpt lat="44.91082" lon="0.53648">
        <ele>72.267</ele>
        <time>2019-08-06T07:13:57Z</time>
      </trkpt>
      <trkpt lat="44.91085" lon="0.53642">
        <ele>72.4223</ele>
        <time>2019-08-06T07:14:01Z</time>
      </trkpt>
      <trkpt lat="44.91088" lon="0.53635">
        <ele>72.5736</ele>
        <time>2019-08-06T07:14:05Z</time>
      </trkpt>
      <trkpt lat="44.9109" lon="0.53631">
        <ele>72.6453</ele>
        <time>2019-08-06T07:14:07Z</time>
      </trkpt>
      <trkpt lat="44.91092" lon="0.53626">
        <ele>72.7155</ele>
        <time>2019-08-06T07:14:09Z</time>
      </trkpt>
      <trkpt lat="44.91094" lon="0.53622">
        <ele>72.7835</ele>
        <time>2019-08-06T07:14:11Z</time>
      </trkpt>
      <trkpt lat="44.91096" lon="0.53614">
        <ele>72.8826</ele>
        <time>2019-08-06T07:14:14Z</time>
      </trkpt>
      <trkpt lat="44.91097" lon="0.53606">
        <ele>72.9872</ele>
        <time>2019-08-06T07:14:17Z</time>
      </trkpt>
      <trkpt lat="44.91098" lon="0.536">
        <ele>73.1082</ele>
        <time>2019-08-06T07:14:20Z</time>
      </trkpt>
      <trkpt lat="44.91102" lon="0.53595">
        <ele>73.2441</ele>
        <time>2019-08-06T07:14:23Z</time>
      </trkpt>
      <trkpt lat="44.91104" lon="0.53592">
        <ele>73.3333</ele>
        <time>2019-08-06T07:14:25Z</time>
      </trkpt>
      <trkpt lat="44.91106" lon="0.53589">
        <ele>73.419</ele>
        <time>2019-08-06T07:14:27Z</time>
      </trkpt>
      <trkpt lat="44.91108" lon="0.53582">
        <ele>73.5405</ele>
        <time>2019-08-06T07:14:30Z</time>
      </trkpt>
      <trkpt lat="44.9111" lon="0.53577">
        <ele>73.6525</ele>
        <time>2019-08-06T07:14:33Z</time>
      </trkpt>
      <trkpt lat="44.91112" lon="0.53572">
        <ele>73.7531</ele>
        <time>2019-08-06T07:14:36Z</time>
      </trkpt>
      <trkpt lat="44.91113" lon="0.53569">
        <ele>73.8155</ele>
        <time>2019-08-06T07:14:38Z</time>
      </trkpt>
      <trkpt lat="44.91115" lon="0.53565">
        <ele>73.9048</ele>
        <time>2019-08-06T07:14:41Z</time>
      </trkpt>
      <trkpt lat="44.91117" lon="0.53558">
        <ele>74.0277</ele>
        <time>2019-08-06T07:14:45Z</time>
      </trkpt>
      <trkpt lat="44.9112" lon="0.53552">
        <ele>74.1481</ele>
        <time>2019-08-06T07:14:49Z</time>
      </trkpt>
      <trkpt lat="44.91121" lon="0.53549">
        <ele>74.2062</ele>
        <time>2019-08-06T07:14:51Z</time>
      </trkpt>
      <trkpt lat="44.91122" lon="0.53545">
        <ele>74.2637</ele>
        <time>2019-08-06T07:14:53Z</time>
      </trkpt>
      <trkpt lat="44.91124" lon="0.53542">
        <ele>74.3209</ele>
        <time>2019-08-06T07:14:55Z</time>
      </trkpt>
      <trkpt lat="44.91125" lon="0.53539">
        <ele>74.4116</ele>
        <time>2019-08-06T07:14:58Z</time>
      </trkpt>
      <trkpt lat="44.91126" lon="0.53533">
        <ele>74.6003</ele>
        <time>2019-08-06T07:15:04Z</time>
      </trkpt>
      <trkpt lat="44.91129" lon="0.53525">
        <ele>74.7737</ele>
        <time>2019-08-06T07:15:09Z</time>
      </trkpt>
      <trkpt lat="44.9113" lon="0.53521">
        <ele>74.8435</ele>
        <time>2019-08-06T07:15:11Z</time>
      </trkpt>
      <trkpt lat="44.91132" lon="0.53517">
        <ele>74.9131</ele>
        <time>2019-08-06T07:15:13Z</time>
      </trkpt>
      <trkpt lat="44.91133" lon="0.53511">
        <ele>75.0579</ele>
        <time>2019-08-06T07:15:17Z</time>
      </trkpt>
      <trkpt lat="44.91135" lon="0.53505">
        <ele>75.1799</ele>
        <time>2019-08-06T07:15:20Z</time>
      </trkpt>
      <trkpt lat="44.91137" lon="0.53501">
        <ele>75.2679</ele>
        <time>2019-08-06T07:15:22Z</time>
      </trkpt>
      <trkpt lat="44.9114" lon="0.53493">
        <ele>75.4031</ele>
        <time>2019-08-06T07:15:25Z</time>
      </trkpt>
      <trkpt lat="44.9114" lon="0.5349">
        <ele>75.4494</ele>
        <time>2019-08-06T07:15:26Z</time>
      </trkpt>
      <trkpt lat="44.91142" lon="0.53485">
        <ele>75.5443</ele>
        <time>2019-08-06T07:15:28Z</time>
      </trkpt>
      <trkpt lat="44.91143" lon="0.53477">
        <ele>75.7378</ele>
        <time>2019-08-06T07:15:32Z</time>
      </trkpt>
      <trkpt lat="44.91144" lon="0.53472">
        <ele>75.8831</ele>
        <time>2019-08-06T07:15:35Z</time>
      </trkpt>
      <trkpt lat="44.91148" lon="0.53466">
        <ele>76.072</ele>
        <time>2019-08-06T07:15:39Z</time>
      </trkpt>
      <trkpt lat="44.91149" lon="0.53463">
        <ele>76.1629</ele>
        <time>2019-08-06T07:15:41Z</time>
      </trkpt>
      <trkpt lat="44.91151" lon="0.53456">
        <ele>76.3861</ele>
        <time>2019-08-06T07:15:46Z</time>
      </trkpt>
      <trkpt lat="44.91152" lon="0.53452">
        <ele>76.4759</ele>
        <time>2019-08-06T07:15:48Z</time>
      </trkpt>
      <trkpt lat="44.91153" lon="0.53448">
        <ele>76.5658</ele>
        <time>2019-08-06T07:15:50Z</time>
      </trkpt>
      <trkpt lat="44.91156" lon="0.53442">
        <ele>76.6993</ele>
        <time>2019-08-06T07:15:53Z</time>
      </trkpt>
      <trkpt lat="44.91158" lon="0.53438">
        <ele>76.7888</ele>
        <time>2019-08-06T07:15:55Z</time>
      </trkpt>
      <trkpt lat="44.91159" lon="0.53435">
        <ele>76.8788</ele>
        <time>2019-08-06T07:15:57Z</time>
      </trkpt>
      <trkpt lat="44.9116" lon="0.53432">
        <ele>76.9688</ele>
        <time>2019-08-06T07:15:59Z</time>
      </trkpt>
      <trkpt lat="44.91163" lon="0.53428">
        <ele>77.0983</ele>
        <time>2019-08-06T07:16:02Z</time>
      </trkpt>
      <trkpt lat="44.91166" lon="0.53423">
        <ele>77.2232</ele>
        <time>2019-08-06T07:16:05Z</time>
      </trkpt>
      <trkpt lat="44.91169" lon="0.53417">
        <ele>77.3847</ele>
        <time>2019-08-06T07:16:09Z</time>
      </trkpt>
      <trkpt lat="44.9117" lon="0.53414">
        <ele>77.4624</ele>
        <time>2019-08-06T07:16:11Z</time>
      </trkpt>
      <trkpt lat="44.91173" lon="0.53407">
        <ele>77.617</ele>
        <time>2019-08-06T07:16:15Z</time>
      </trkpt>
      <trkpt lat="44.91174" lon="0.53403">
        <ele>77.6935</ele>
        <time>2019-08-06T07:16:17Z</time>
      </trkpt>
      <trkpt lat="44.91175" lon="0.534">
        <ele>77.7692</ele>
        <time>2019-08-06T07:16:19Z</time>
      </trkpt>
      <trkpt lat="44.91176" lon="0.53393">
        <ele>77.8867</ele>
        <time>2019-08-06T07:16:22Z</time>
      </trkpt>
      <trkpt lat="44.91179" lon="0.53387">
        <ele>78.0469</ele>
        <time>2019-08-06T07:16:26Z</time>
      </trkpt>
      <trkpt lat="44.91182" lon="0.53383">
        <ele>78.1604</ele>
        <time>2019-08-06T07:16:29Z</time>
      </trkpt>
      <trkpt lat="44.91183" lon="0.5338">
        <ele>78.2276</ele>
        <time>2019-08-06T07:16:31Z</time>
      </trkpt>
      <trkpt lat="44.91185" lon="0.53377">
        <ele>78.288</ele>
        <time>2019-08-06T07:16:33Z</time>
      </trkpt>
      <trkpt lat="44.91187" lon="0.53374">
        <ele>78.3418</ele>
        <time>2019-08-06T07:16:35Z</time>
      </trkpt>
      <trkpt lat="44.91188" lon="0.53371">
        <ele>78.3899</ele>
        <time>2019-08-06T07:16:37Z</time>
      </trkpt>
      <trkpt lat="44.9119" lon="0.53365">
        <ele>78.4576</ele>
        <time>2019-08-06T07:16:40Z</time>
      </trkpt>
      <trkpt lat="44.91194" lon="0.53359">
        <ele>78.5702</ele>
        <time>2019-08-06T07:16:45Z</time>
      </trkpt>
      <trkpt lat="44.91198" lon="0.53355">
        <ele>78.6568</ele>
        <time>2019-08-06T07:16:49Z</time>
      </trkpt>
      <trkpt lat="44.912" lon="0.53353">
        <ele>78.6955</ele>
        <time>2019-08-06T07:16:51Z</time>
      </trkpt>
      <trkpt lat="44.91203" lon="0.5335">
        <ele>78.73</ele>
        <time>2019-08-06T07:16:53Z</time>
      </trkpt>
      <trkpt lat="44.91205" lon="0.53347">
        <ele>78.7612</ele>
        <time>2019-08-06T07:16:55Z</time>
      </trkpt>
      <trkpt lat="44.91208" lon="0.53344">
        <ele>78.7911</ele>
        <time>2019-08-06T07:16:57Z</time>
      </trkpt>
      <trkpt lat="44.91211" lon="0.53341">
        <ele>78.8208</ele>
        <time>2019-08-06T07:16:59Z</time>
      </trkpt>
      <trkpt lat="44.91212" lon="0.53339">
        <ele>78.8487</ele>
        <time>2019-08-06T07:17:01Z</time>
      </trkpt>
      <trkpt lat="44.91216" lon="0.53332">
        <ele>78.8959</ele>
        <time>2019-08-06T07:17:05Z</time>
      </trkpt>
      <trkpt lat="44.91218" lon="0.53329">
        <ele>78.9177</ele>
        <time>2019-08-06T07:17:07Z</time>
      </trkpt>
      <trkpt lat="44.9122" lon="0.53324">
        <ele>78.9386</ele>
        <time>2019-08-06T07:17:09Z</time>
      </trkpt>
      <trkpt lat="44.91222" lon="0.53321">
        <ele>78.9586</ele>
        <time>2019-08-06T07:17:11Z</time>
      </trkpt>
      <trkpt lat="44.91225" lon="0.53315">
        <ele>79.0133</ele>
        <time>2019-08-06T07:17:16Z</time>
      </trkpt>
      <trkpt lat="44.91226" lon="0.53308">
        <ele>79.0644</ele>
        <time>2019-08-06T07:17:20Z</time>
      </trkpt>
      <trkpt lat="44.91227" lon="0.53304">
        <ele>79.1048</ele>
        <time>2019-08-06T07:17:23Z</time>
      </trkpt>
      <trkpt lat="44.9123" lon="0.53297">
        <ele>79.1733</ele>
        <time>2019-08-06T07:17:29Z</time>
      </trkpt>
      <trkpt lat="44.91234" lon="0.53292">
        <ele>79.1988</ele>
        <time>2019-08-06T07:17:32Z</time>
      </trkpt>
      <trkpt lat="44.91238" lon="0.53284">
        <ele>79.2275</ele>
        <time>2019-08-06T07:17:36Z</time>
      </trkpt>
      <trkpt lat="44.91241" lon="0.53277">
        <ele>79.2519</ele>
        <time>2019-08-06T07:17:40Z</time>
      </trkpt>
      <trkpt lat="44.91243" lon="0.53274">
        <ele>79.264</ele>
        <time>2019-08-06T07:17:42Z</time>
      </trkpt>
      <trkpt lat="44.91247" lon="0.5327">
        <ele>79.2804</ele>
        <time>2019-08-06T07:17:46Z</time>
      </trkpt>
      <trkpt lat="44.91249" lon="0.53267">
        <ele>79.285</ele>
        <time>2019-08-06T07:17:48Z</time>
      </trkpt>
      <trkpt lat="44.91252" lon="0.53264">
        <ele>79.2866</ele>
        <time>2019-08-06T07:17:50Z</time>
      </trkpt>
      <trkpt lat="44.91254" lon="0.53261">
        <ele>79.2861</ele>
        <time>2019-08-06T07:17:52Z</time>
      </trkpt>
      <trkpt lat="44.91256" lon="0.53258">
        <ele>79.2835</ele>
        <time>2019-08-06T07:17:54Z</time>
      </trkpt>
      <trkpt lat="44.91258" lon="0.53255">
        <ele>79.2786</ele>
        <time>2019-08-06T07:17:56Z</time>
      </trkpt>
      <trkpt lat="44.91261" lon="0.53252">
        <ele>79.2713</ele>
        <time>2019-08-06T07:17:58Z</time>
      </trkpt>
      <trkpt lat="44.91264" lon="0.53249">
        <ele>79.2625</ele>
        <time>2019-08-06T07:18:00Z</time>
      </trkpt>
      <trkpt lat="44.91266" lon="0.53247">
        <ele>79.2526</ele>
        <time>2019-08-06T07:18:02Z</time>
      </trkpt>
      <trkpt lat="44.91268" lon="0.53244">
        <ele>79.2417</ele>
        <time>2019-08-06T07:18:04Z</time>
      </trkpt>
      <trkpt lat="44.91271" lon="0.53242">
        <ele>79.2308</ele>
        <time>2019-08-06T07:18:06Z</time>
      </trkpt>
      <trkpt lat="44.91275" lon="0.53236">
        <ele>79.2139</ele>
        <time>2019-08-06T07:18:10Z</time>
      </trkpt>
      <trkpt lat="44.9128" lon="0.53232">
        <ele>79.194</ele>
        <time>2019-08-06T07:18:14Z</time>
      </trkpt>
      <trkpt lat="44.91282" lon="0.5323">
        <ele>79.1822</ele>
        <time>2019-08-06T07:18:16Z</time>
      </trkpt>
      <trkpt lat="44.91285" lon="0.53227">
        <ele>79.1689</ele>
        <time>2019-08-06T07:18:18Z</time>
      </trkpt>
      <trkpt lat="44.91287" lon="0.53225">
        <ele>79.1544</ele>
        <time>2019-08-06T07:18:20Z</time>
      </trkpt>
      <trkpt lat="44.91292" lon="0.53222">
        <ele>79.1225</ele>
        <time>2019-08-06T07:18:24Z</time>
      </trkpt>
      <trkpt lat="44.91294" lon="0.5322">
        <ele>79.1057</ele>
        <time>2019-08-06T07:18:26Z</time>
      </trkpt>
      <trkpt lat="44.91297" lon="0.53219">
        <ele>79.0892</ele>
        <time>2019-08-06T07:18:28Z</time>
      </trkpt>
      <trkpt lat="44.91303" lon="0.53217">
        <ele>79.0526</ele>
        <time>2019-08-06T07:18:35Z</time>
      </trkpt>
      <trkpt lat="44.91305" lon="0.53217">
        <ele>79.0531</ele>
        <time>2019-08-06T07:18:38Z</time>
      </trkpt>
      <trkpt lat="44.91309" lon="0.53216">
        <ele>79.0598</ele>
        <time>2019-08-06T07:18:41Z</time>
      </trkpt>
      <trkpt lat="44.91312" lon="0.53215">
        <ele>79.0644</ele>
        <time>2019-08-06T07:18:43Z</time>
      </trkpt>
      <trkpt lat="44.91315" lon="0.53214">
        <ele>79.0693</ele>
        <time>2019-08-06T07:18:45Z</time>
      </trkpt>
      <trkpt lat="44.91319" lon="0.5321">
        <ele>79.0847</ele>
        <time>2019-08-06T07:18:49Z</time>
      </trkpt>
      <trkpt lat="44.91323" lon="0.53205">
        <ele>79.1061</ele>
        <time>2019-08-06T07:18:53Z</time>
      </trkpt>
      <trkpt lat="44.91325" lon="0.53202">
        <ele>79.1201</ele>
        <time>2019-08-06T07:18:55Z</time>
      </trkpt>
      <trkpt lat="44.91328" lon="0.53196">
        <ele>79.1541</ele>
        <time>2019-08-06T07:18:59Z</time>
      </trkpt>
      <trkpt lat="44.9133" lon="0.5319">
        <ele>79.2042</ele>
        <time>2019-08-06T07:19:04Z</time>
      </trkpt>
      <trkpt lat="44.9133" lon="0.53182">
        <ele>79.2813</ele>
        <time>2019-08-06T07:19:10Z</time>
      </trkpt>
      <trkpt lat="44.9133" lon="0.53176">
        <ele>79.3431</ele>
        <time>2019-08-06T07:19:14Z</time>
      </trkpt>
      <trkpt lat="44.9133" lon="0.53173">
        <ele>79.3764</ele>
        <time>2019-08-06T07:19:16Z</time>
      </trkpt>
      <trkpt lat="44.9133" lon="0.53168">
        <ele>79.4298</ele>
        <time>2019-08-06T07:19:19Z</time>
      </trkpt>
      <trkpt lat="44.91332" lon="0.53161">
        <ele>79.5094</ele>
        <time>2019-08-06T07:19:23Z</time>
      </trkpt>
      <trkpt lat="44.91333" lon="0.53158">
        <ele>79.5778</ele>
        <time>2019-08-06T07:19:26Z</time>
      </trkpt>
      <trkpt lat="44.91334" lon="0.53154">
        <ele>79.6527</ele>
        <time>2019-08-06T07:19:29Z</time>
      </trkpt>
      <trkpt lat="44.91335" lon="0.5315">
        <ele>79.7054</ele>
        <time>2019-08-06T07:19:31Z</time>
      </trkpt>
      <trkpt lat="44.91335" lon="0.53146">
        <ele>79.7597</ele>
        <time>2019-08-06T07:19:33Z</time>
      </trkpt>
      <trkpt lat="44.91336" lon="0.5314">
        <ele>79.8727</ele>
        <time>2019-08-06T07:19:37Z</time>
      </trkpt>
      <trkpt lat="44.91336" lon="0.53136">
        <ele>79.9611</ele>
        <time>2019-08-06T07:19:40Z</time>
      </trkpt>
      <trkpt lat="44.91336" lon="0.53129">
        <ele>80.1125</ele>
        <time>2019-08-06T07:19:45Z</time>
      </trkpt>
      <trkpt lat="44.91336" lon="0.53122">
        <ele>80.2426</ele>
        <time>2019-08-06T07:19:49Z</time>
      </trkpt>
      <trkpt lat="44.91337" lon="0.53119">
        <ele>80.31</ele>
        <time>2019-08-06T07:19:51Z</time>
      </trkpt>
      <trkpt lat="44.91337" lon="0.53116">
        <ele>80.3786</ele>
        <time>2019-08-06T07:19:53Z</time>
      </trkpt>
      <trkpt lat="44.91337" lon="0.53112">
        <ele>80.4838</ele>
        <time>2019-08-06T07:19:56Z</time>
      </trkpt>
      <trkpt lat="44.91337" lon="0.53103">
        <ele>80.6622</ele>
        <time>2019-08-06T07:20:01Z</time>
      </trkpt>
      <trkpt lat="44.91335" lon="0.53096">
        <ele>80.8053</ele>
        <time>2019-08-06T07:20:05Z</time>
      </trkpt>
      <trkpt lat="44.91334" lon="0.53094">
        <ele>80.8787</ele>
        <time>2019-08-06T07:20:07Z</time>
      </trkpt>
      <trkpt lat="44.91331" lon="0.53088">
        <ele>81.0771</ele>
        <time>2019-08-06T07:20:12Z</time>
      </trkpt>
      <trkpt lat="44.91327" lon="0.53083">
        <ele>81.2012</ele>
        <time>2019-08-06T07:20:15Z</time>
      </trkpt>
      <trkpt lat="44.91324" lon="0.53077">
        <ele>81.4548</ele>
        <time>2019-08-06T07:20:20Z</time>
      </trkpt>
      <trkpt lat="44.91323" lon="0.5307">
        <ele>81.7977</ele>
        <time>2019-08-06T07:20:25Z</time>
      </trkpt>
      <trkpt lat="44.91324" lon="0.53063">
        <ele>82.1289</ele>
        <time>2019-08-06T07:20:29Z</time>
      </trkpt>
      <trkpt lat="44.91324" lon="0.53054">
        <ele>82.4744</ele>
        <time>2019-08-06T07:20:33Z</time>
      </trkpt>
      <trkpt lat="44.91325" lon="0.53047">
        <ele>82.7341</ele>
        <time>2019-08-06T07:20:36Z</time>
      </trkpt>
      <trkpt lat="44.91325" lon="0.53041">
        <ele>82.9942</ele>
        <time>2019-08-06T07:20:39Z</time>
      </trkpt>
      <trkpt lat="44.91325" lon="0.53037">
        <ele>83.1696</ele>
        <time>2019-08-06T07:20:41Z</time>
      </trkpt>
      <trkpt lat="44.91325" lon="0.53033">
        <ele>83.3508</ele>
        <time>2019-08-06T07:20:43Z</time>
      </trkpt>
      <trkpt lat="44.91325" lon="0.5303">
        <ele>83.5369</ele>
        <time>2019-08-06T07:20:45Z</time>
      </trkpt>
      <trkpt lat="44.91325" lon="0.53024">
        <ele>84.0188</ele>
        <time>2019-08-06T07:20:50Z</time>
      </trkpt>
      <trkpt lat="44.91324" lon="0.5302">
        <ele>84.2246</ele>
        <time>2019-08-06T07:20:52Z</time>
      </trkpt>
      <trkpt lat="44.91324" lon="0.53013">
        <ele>84.7991</ele>
        <time>2019-08-06T07:20:57Z</time>
      </trkpt>
      <trkpt lat="44.91324" lon="0.53004">
        <ele>85.6456</ele>
        <time>2019-08-06T07:21:03Z</time>
      </trkpt>
      <trkpt lat="44.91322" lon="0.52997">
        <ele>86.2475</ele>
        <time>2019-08-06T07:21:07Z</time>
      </trkpt>
      <trkpt lat="44.91321" lon="0.52991">
        <ele>87.0363</ele>
        <time>2019-08-06T07:21:12Z</time>
      </trkpt>
      <trkpt lat="44.91321" lon="0.52988">
        <ele>87.5282</ele>
        <time>2019-08-06T07:21:15Z</time>
      </trkpt>
      <trkpt lat="44.91321" lon="0.52983">
        <ele>88.0482</ele>
        <time>2019-08-06T07:21:18Z</time>
      </trkpt>
      <trkpt lat="44.9132" lon="0.52976">
        <ele>88.7698</ele>
        <time>2019-08-06T07:21:22Z</time>
      </trkpt>
      <trkpt lat="44.91319" lon="0.52969">
        <ele>89.4988</ele>
        <time>2019-08-06T07:21:26Z</time>
      </trkpt>
      <trkpt lat="44.91319" lon="0.52966">
        <ele>89.8585</ele>
        <time>2019-08-06T07:21:28Z</time>
      </trkpt>
      <trkpt lat="44.91319" lon="0.52962">
        <ele>90.2147</ele>
        <time>2019-08-06T07:21:30Z</time>
      </trkpt>
      <trkpt lat="44.91319" lon="0.52959">
        <ele>90.7493</ele>
        <time>2019-08-06T07:21:33Z</time>
      </trkpt>
      <trkpt lat="44.9132" lon="0.52955">
        <ele>91.1088</ele>
        <time>2019-08-06T07:21:35Z</time>
      </trkpt>
      <trkpt lat="44.91321" lon="0.52947">
        <ele>91.8344</ele>
        <time>2019-08-06T07:21:39Z</time>
      </trkpt>
      <trkpt lat="44.91321" lon="0.5294">
        <ele>92.3848</ele>
        <time>2019-08-06T07:21:42Z</time>
      </trkpt>
      <trkpt lat="44.91322" lon="0.52936">
        <ele>92.7459</ele>
        <time>2019-08-06T07:21:44Z</time>
      </trkpt>
      <trkpt lat="44.91322" lon="0.5293">
        <ele>93.2716</ele>
        <time>2019-08-06T07:21:47Z</time>
      </trkpt>
      <trkpt lat="44.91322" lon="0.52926">
        <ele>93.7841</ele>
        <time>2019-08-06T07:21:50Z</time>
      </trkpt>
      <trkpt lat="44.91322" lon="0.52919">
        <ele>94.4616</ele>
        <time>2019-08-06T07:21:54Z</time>
      </trkpt>
      <trkpt lat="44.91322" lon="0.52915">
        <ele>94.8038</ele>
        <time>2019-08-06T07:21:56Z</time>
      </trkpt>
      <trkpt lat="44.91322" lon="0.52912">
        <ele>95.1496</ele>
        <time>2019-08-06T07:21:58Z</time>
      </trkpt>
      <trkpt lat="44.91322" lon="0.52909">
        <ele>95.5025</ele>
        <time>2019-08-06T07:22:00Z</time>
      </trkpt>
      <trkpt lat="44.91322" lon="0.52905">
        <ele>95.8595</ele>
        <time>2019-08-06T07:22:02Z</time>
      </trkpt>
      <trkpt lat="44.9132" lon="0.52897">
        <ele>96.7625</ele>
        <time>2019-08-06T07:22:07Z</time>
      </trkpt>
      <trkpt lat="44.91319" lon="0.52893">
        <ele>97.3098</ele>
        <time>2019-08-06T07:22:10Z</time>
      </trkpt>
      <trkpt lat="44.91316" lon="0.52887">
        <ele>98.3821</ele>
        <time>2019-08-06T07:22:16Z</time>
      </trkpt>
      <trkpt lat="44.9131" lon="0.52888">
        <ele>98.9808</ele>
        <time>2019-08-06T07:22:22Z</time>
      </trkpt>
      <trkpt lat="44.9131" lon="0.52888">
        <ele>98.9808</ele>
        <time>2019-08-06T07:25:11Z</time>
      </trkpt>
      <trkpt lat="44.91319" lon="0.52885">
        <ele>109.441</ele>
        <time>2019-08-06T07:26:54Z</time>
      </trkpt>
      <trkpt lat="44.91324" lon="0.52881">
        <ele>109.746</ele>
        <time>2019-08-06T07:27:00Z</time>
      </trkpt>
      <trkpt lat="44.91328" lon="0.52875">
        <ele>109.929</ele>
        <time>2019-08-06T07:27:04Z</time>
      </trkpt>
      <trkpt lat="44.9133" lon="0.52873">
        <ele>110.014</ele>
        <time>2019-08-06T07:27:06Z</time>
      </trkpt>
      <trkpt lat="44.91332" lon="0.5287">
        <ele>110.093</ele>
        <time>2019-08-06T07:27:08Z</time>
      </trkpt>
      <trkpt lat="44.91337" lon="0.52867">
        <ele>110.231</ele>
        <time>2019-08-06T07:27:12Z</time>
      </trkpt>
      <trkpt lat="44.91342" lon="0.52865">
        <ele>110.342</ele>
        <time>2019-08-06T07:27:16Z</time>
      </trkpt>
      <trkpt lat="44.91345" lon="0.52864">
        <ele>110.39</ele>
        <time>2019-08-06T07:27:18Z</time>
      </trkpt>
      <trkpt lat="44.91349" lon="0.5286">
        <ele>110.472</ele>
        <time>2019-08-06T07:27:22Z</time>
      </trkpt>
      <trkpt lat="44.91354" lon="0.52854">
        <ele>110.559</ele>
        <time>2019-08-06T07:27:27Z</time>
      </trkpt>
      <trkpt lat="44.91358" lon="0.5285">
        <ele>110.629</ele>
        <time>2019-08-06T07:27:31Z</time>
      </trkpt>
      <trkpt lat="44.91362" lon="0.52845">
        <ele>110.702</ele>
        <time>2019-08-06T07:27:35Z</time>
      </trkpt>
      <trkpt lat="44.91366" lon="0.52839">
        <ele>110.775</ele>
        <time>2019-08-06T07:27:39Z</time>
      </trkpt>
      <trkpt lat="44.91368" lon="0.52837">
        <ele>110.808</ele>
        <time>2019-08-06T07:27:41Z</time>
      </trkpt>
      <trkpt lat="44.91371" lon="0.52831">
        <ele>110.872</ele>
        <time>2019-08-06T07:27:45Z</time>
      </trkpt>
      <trkpt lat="44.91373" lon="0.52825">
        <ele>110.944</ele>
        <time>2019-08-06T07:27:50Z</time>
      </trkpt>
      <trkpt lat="44.91377" lon="0.5282">
        <ele>111.014</ele>
        <time>2019-08-06T07:27:55Z</time>
      </trkpt>
      <trkpt lat="44.9138" lon="0.52814">
        <ele>111.055</ele>
        <time>2019-08-06T07:27:58Z</time>
      </trkpt>
      <trkpt lat="44.91382" lon="0.52807">
        <ele>111.093</ele>
        <time>2019-08-06T07:28:01Z</time>
      </trkpt>
      <trkpt lat="44.91384" lon="0.52803">
        <ele>111.118</ele>
        <time>2019-08-06T07:28:03Z</time>
      </trkpt>
      <trkpt lat="44.91385" lon="0.52796">
        <ele>111.172</ele>
        <time>2019-08-06T07:28:07Z</time>
      </trkpt>
      <trkpt lat="44.91386" lon="0.52793">
        <ele>111.199</ele>
        <time>2019-08-06T07:28:09Z</time>
      </trkpt>
      <trkpt lat="44.91388" lon="0.52786">
        <ele>111.25</ele>
        <time>2019-08-06T07:28:13Z</time>
      </trkpt>
      <trkpt lat="44.91388" lon="0.52782">
        <ele>111.274</ele>
        <time>2019-08-06T07:28:15Z</time>
      </trkpt>
      <trkpt lat="44.91389" lon="0.52778">
        <ele>111.296</ele>
        <time>2019-08-06T07:28:17Z</time>
      </trkpt>
      <trkpt lat="44.9139" lon="0.52774">
        <ele>111.327</ele>
        <time>2019-08-06T07:28:20Z</time>
      </trkpt>
      <trkpt lat="44.9139" lon="0.52766">
        <ele>111.378</ele>
        <time>2019-08-06T07:28:25Z</time>
      </trkpt>
      <trkpt lat="44.9139" lon="0.52762">
        <ele>111.401</ele>
        <time>2019-08-06T07:28:27Z</time>
      </trkpt>
      <trkpt lat="44.91391" lon="0.52758">
        <ele>111.425</ele>
        <time>2019-08-06T07:28:29Z</time>
      </trkpt>
      <trkpt lat="44.91391" lon="0.52754">
        <ele>111.451</ele>
        <time>2019-08-06T07:28:31Z</time>
      </trkpt>
      <trkpt lat="44.91391" lon="0.5275">
        <ele>111.478</ele>
        <time>2019-08-06T07:28:33Z</time>
      </trkpt>
      <trkpt lat="44.91391" lon="0.52746">
        <ele>111.507</ele>
        <time>2019-08-06T07:28:35Z</time>
      </trkpt>
      <trkpt lat="44.91391" lon="0.52743">
        <ele>111.536</ele>
        <time>2019-08-06T07:28:37Z</time>
      </trkpt>
      <trkpt lat="44.91392" lon="0.52739">
        <ele>111.566</ele>
        <time>2019-08-06T07:28:39Z</time>
      </trkpt>
      <trkpt lat="44.91391" lon="0.52731">
        <ele>111.627</ele>
        <time>2019-08-06T07:28:43Z</time>
      </trkpt>
      <trkpt lat="44.91391" lon="0.52728">
        <ele>111.657</ele>
        <time>2019-08-06T07:28:45Z</time>
      </trkpt>
      <trkpt lat="44.91389" lon="0.52722">
        <ele>111.723</ele>
        <time>2019-08-06T07:28:49Z</time>
      </trkpt>
      <trkpt lat="44.91388" lon="0.52715">
        <ele>111.796</ele>
        <time>2019-08-06T07:28:53Z</time>
      </trkpt>
      <trkpt lat="44.91387" lon="0.5271">
        <ele>111.853</ele>
        <time>2019-08-06T07:28:56Z</time>
      </trkpt>
      <trkpt lat="44.91387" lon="0.52702">
        <ele>111.954</ele>
        <time>2019-08-06T07:29:01Z</time>
      </trkpt>
      <trkpt lat="44.91387" lon="0.52698">
        <ele>111.996</ele>
        <time>2019-08-06T07:29:03Z</time>
      </trkpt>
      <trkpt lat="44.91386" lon="0.52691">
        <ele>112.083</ele>
        <time>2019-08-06T07:29:07Z</time>
      </trkpt>
      <trkpt lat="44.91387" lon="0.52682">
        <ele>112.23</ele>
        <time>2019-08-06T07:29:13Z</time>
      </trkpt>
      <trkpt lat="44.9139" lon="0.52674">
        <ele>112.336</ele>
        <time>2019-08-06T07:29:17Z</time>
      </trkpt>
      <trkpt lat="44.9139" lon="0.52667">
        <ele>112.427</ele>
        <time>2019-08-06T07:29:20Z</time>
      </trkpt>
      <trkpt lat="44.91389" lon="0.5266">
        <ele>112.56</ele>
        <time>2019-08-06T07:29:23Z</time>
      </trkpt>
      <trkpt lat="44.91388" lon="0.52657">
        <ele>112.665</ele>
        <time>2019-08-06T07:29:25Z</time>
      </trkpt>
      <trkpt lat="44.91387" lon="0.52652">
        <ele>112.964</ele>
        <time>2019-08-06T07:29:31Z</time>
      </trkpt>
      <trkpt lat="44.91388" lon="0.52645">
        <ele>113.114</ele>
        <time>2019-08-06T07:29:34Z</time>
      </trkpt>
      <trkpt lat="44.91388" lon="0.5264">
        <ele>113.21</ele>
        <time>2019-08-06T07:29:36Z</time>
      </trkpt>
      <trkpt lat="44.91389" lon="0.52636">
        <ele>113.305</ele>
        <time>2019-08-06T07:29:38Z</time>
      </trkpt>
      <trkpt lat="44.91389" lon="0.52632">
        <ele>113.399</ele>
        <time>2019-08-06T07:29:40Z</time>
      </trkpt>
      <trkpt lat="44.9139" lon="0.52627">
        <ele>113.494</ele>
        <time>2019-08-06T07:29:42Z</time>
      </trkpt>
      <trkpt lat="44.9139" lon="0.52624">
        <ele>113.587</ele>
        <time>2019-08-06T07:29:44Z</time>
      </trkpt>
      <trkpt lat="44.9139" lon="0.52617">
        <ele>113.771</ele>
        <time>2019-08-06T07:29:48Z</time>
      </trkpt>
      <trkpt lat="44.9139" lon="0.52613">
        <ele>113.862</ele>
        <time>2019-08-06T07:29:50Z</time>
      </trkpt>
      <trkpt lat="44.91391" lon="0.52609">
        <ele>113.953</ele>
        <time>2019-08-06T07:29:52Z</time>
      </trkpt>
      <trkpt lat="44.91391" lon="0.52606">
        <ele>114.044</ele>
        <time>2019-08-06T07:29:54Z</time>
      </trkpt>
      <trkpt lat="44.91391" lon="0.52598">
        <ele>114.273</ele>
        <time>2019-08-06T07:29:59Z</time>
      </trkpt>
      <trkpt lat="44.91392" lon="0.52591">
        <ele>114.509</ele>
        <time>2019-08-06T07:30:04Z</time>
      </trkpt>
      <trkpt lat="44.91394" lon="0.52584">
        <ele>114.72</ele>
        <time>2019-08-06T07:30:08Z</time>
      </trkpt>
      <trkpt lat="44.91395" lon="0.5258">
        <ele>114.83</ele>
        <time>2019-08-06T07:30:10Z</time>
      </trkpt>
      <trkpt lat="44.91395" lon="0.52576">
        <ele>114.943</ele>
        <time>2019-08-06T07:30:12Z</time>
      </trkpt>
      <trkpt lat="44.91396" lon="0.52572">
        <ele>115.12</ele>
        <time>2019-08-06T07:30:15Z</time>
      </trkpt>
      <trkpt lat="44.91397" lon="0.52564">
        <ele>115.437</ele>
        <time>2019-08-06T07:30:20Z</time>
      </trkpt>
      <trkpt lat="44.91397" lon="0.5256">
        <ele>115.639</ele>
        <time>2019-08-06T07:30:23Z</time>
      </trkpt>
      <trkpt lat="44.91396" lon="0.52553">
        <ele>115.916</ele>
        <time>2019-08-06T07:30:27Z</time>
      </trkpt>
      <trkpt lat="44.91394" lon="0.52546">
        <ele>116.278</ele>
        <time>2019-08-06T07:30:32Z</time>
      </trkpt>
      <trkpt lat="44.91392" lon="0.5254">
        <ele>116.646</ele>
        <time>2019-08-06T07:30:37Z</time>
      </trkpt>
      <trkpt lat="44.91391" lon="0.52532">
        <ele>117.063</ele>
        <time>2019-08-06T07:30:43Z</time>
      </trkpt>
      <trkpt lat="44.91389" lon="0.52525">
        <ele>117.465</ele>
        <time>2019-08-06T07:30:49Z</time>
      </trkpt>
      <trkpt lat="44.91388" lon="0.52518">
        <ele>117.801</ele>
        <time>2019-08-06T07:30:54Z</time>
      </trkpt>
      <trkpt lat="44.91388" lon="0.52514">
        <ele>118.139</ele>
        <time>2019-08-06T07:30:59Z</time>
      </trkpt>
      <trkpt lat="44.91388" lon="0.52511">
        <ele>118.347</ele>
        <time>2019-08-06T07:31:02Z</time>
      </trkpt>
      <trkpt lat="44.91389" lon="0.52503">
        <ele>118.647</ele>
        <time>2019-08-06T07:31:06Z</time>
      </trkpt>
      <trkpt lat="44.91389" lon="0.525">
        <ele>118.792</ele>
        <time>2019-08-06T07:31:08Z</time>
      </trkpt>
      <trkpt lat="44.9139" lon="0.52496">
        <ele>118.935</ele>
        <time>2019-08-06T07:31:10Z</time>
      </trkpt>
      <trkpt lat="44.9139" lon="0.52492">
        <ele>119.075</ele>
        <time>2019-08-06T07:31:12Z</time>
      </trkpt>
      <trkpt lat="44.91391" lon="0.52488">
        <ele>119.278</ele>
        <time>2019-08-06T07:31:15Z</time>
      </trkpt>
      <trkpt lat="44.91392" lon="0.52483">
        <ele>119.533</ele>
        <time>2019-08-06T07:31:19Z</time>
      </trkpt>
      <trkpt lat="44.91394" lon="0.52476">
        <ele>119.777</ele>
        <time>2019-08-06T07:31:23Z</time>
      </trkpt>
      <trkpt lat="44.91394" lon="0.52469">
        <ele>120.075</ele>
        <time>2019-08-06T07:31:28Z</time>
      </trkpt>
      <trkpt lat="44.91394" lon="0.52466">
        <ele>120.246</ele>
        <time>2019-08-06T07:31:31Z</time>
      </trkpt>
      <trkpt lat="44.91394" lon="0.5246">
        <ele>120.455</ele>
        <time>2019-08-06T07:31:35Z</time>
      </trkpt>
      <trkpt lat="44.91394" lon="0.52456">
        <ele>120.647</ele>
        <time>2019-08-06T07:31:39Z</time>
      </trkpt>
      <trkpt lat="44.91393" lon="0.52447">
        <ele>121.047</ele>
        <time>2019-08-06T07:31:47Z</time>
      </trkpt>
      <trkpt lat="44.91394" lon="0.5244">
        <ele>121.442</ele>
        <time>2019-08-06T07:31:55Z</time>
      </trkpt>
      <trkpt lat="44.91395" lon="0.52434">
        <ele>121.596</ele>
        <time>2019-08-06T07:31:58Z</time>
      </trkpt>
      <trkpt lat="44.91396" lon="0.5243">
        <ele>121.812</ele>
        <time>2019-08-06T07:32:02Z</time>
      </trkpt>
      <trkpt lat="44.91397" lon="0.52422">
        <ele>122.093</ele>
        <time>2019-08-06T07:32:07Z</time>
      </trkpt>
      <trkpt lat="44.91398" lon="0.52418">
        <ele>122.212</ele>
        <time>2019-08-06T07:32:09Z</time>
      </trkpt>
      <trkpt lat="44.914" lon="0.52411">
        <ele>122.393</ele>
        <time>2019-08-06T07:32:12Z</time>
      </trkpt>
      <trkpt lat="44.91402" lon="0.52406">
        <ele>122.777</ele>
        <time>2019-08-06T07:32:18Z</time>
      </trkpt>
      <trkpt lat="44.91403" lon="0.52399">
        <ele>122.984</ele>
        <time>2019-08-06T07:32:21Z</time>
      </trkpt>
      <trkpt lat="44.91405" lon="0.5239">
        <ele>123.179</ele>
        <time>2019-08-06T07:32:24Z</time>
      </trkpt>
      <trkpt lat="44.91409" lon="0.52384">
        <ele>123.405</ele>
        <time>2019-08-06T07:32:28Z</time>
      </trkpt>
      <trkpt lat="44.91412" lon="0.52379">
        <ele>123.55</ele>
        <time>2019-08-06T07:32:31Z</time>
      </trkpt>
      <trkpt lat="44.91415" lon="0.52374">
        <ele>123.717</ele>
        <time>2019-08-06T07:32:35Z</time>
      </trkpt>
      <trkpt lat="44.91418" lon="0.5237">
        <ele>123.847</ele>
        <time>2019-08-06T07:32:39Z</time>
      </trkpt>
      <trkpt lat="44.91422" lon="0.52366">
        <ele>123.959</ele>
        <time>2019-08-06T07:32:44Z</time>
      </trkpt>
      <trkpt lat="44.91425" lon="0.52364">
        <ele>123.999</ele>
        <time>2019-08-06T07:32:47Z</time>
      </trkpt>
      <trkpt lat="44.91428" lon="0.52362">
        <ele>124.015</ele>
        <time>2019-08-06T07:32:49Z</time>
      </trkpt>
      <trkpt lat="44.9143" lon="0.5236">
        <ele>124.025</ele>
        <time>2019-08-06T07:32:51Z</time>
      </trkpt>
      <trkpt lat="44.91433" lon="0.52358">
        <ele>124.028</ele>
        <time>2019-08-06T07:32:53Z</time>
      </trkpt>
      <trkpt lat="44.91435" lon="0.52356">
        <ele>124.024</ele>
        <time>2019-08-06T07:32:55Z</time>
      </trkpt>
      <trkpt lat="44.91438" lon="0.52352">
        <ele>124.007</ele>
        <time>2019-08-06T07:32:58Z</time>
      </trkpt>
      <trkpt lat="44.91441" lon="0.52349">
        <ele>123.988</ele>
        <time>2019-08-06T07:33:00Z</time>
      </trkpt>
      <trkpt lat="44.91443" lon="0.52346">
        <ele>123.964</ele>
        <time>2019-08-06T07:33:02Z</time>
      </trkpt>
      <trkpt lat="44.91445" lon="0.52343">
        <ele>123.936</ele>
        <time>2019-08-06T07:33:04Z</time>
      </trkpt>
      <trkpt lat="44.91448" lon="0.5234">
        <ele>123.904</ele>
        <time>2019-08-06T07:33:06Z</time>
      </trkpt>
      <trkpt lat="44.91452" lon="0.52336">
        <ele>123.833</ele>
        <time>2019-08-06T07:33:10Z</time>
      </trkpt>
      <trkpt lat="44.91456" lon="0.52333">
        <ele>123.773</ele>
        <time>2019-08-06T07:33:13Z</time>
      </trkpt>
      <trkpt lat="44.91461" lon="0.52332">
        <ele>123.682</ele>
        <time>2019-08-06T07:33:17Z</time>
      </trkpt>
      <trkpt lat="44.91462" lon="0.52335">
        <ele>123.554</ele>
        <time>2019-08-06T07:33:23Z</time>
      </trkpt>
      <trkpt lat="44.91466" lon="0.52337">
        <ele>123.414</ele>
        <time>2019-08-06T07:33:32Z</time>
      </trkpt>
      <trkpt lat="44.91471" lon="0.52338">
        <ele>123.379</ele>
        <time>2019-08-06T07:33:36Z</time>
      </trkpt>
      <trkpt lat="44.91477" lon="0.52336">
        <ele>123.36</ele>
        <time>2019-08-06T07:33:40Z</time>
      </trkpt>
      <trkpt lat="44.91479" lon="0.52335">
        <ele>123.354</ele>
        <time>2019-08-06T07:33:42Z</time>
      </trkpt>
      <trkpt lat="44.91484" lon="0.52333">
        <ele>123.352</ele>
        <time>2019-08-06T07:33:47Z</time>
      </trkpt>
      <trkpt lat="44.91487" lon="0.52331">
        <ele>123.357</ele>
        <time>2019-08-06T07:33:49Z</time>
      </trkpt>
      <trkpt lat="44.9149" lon="0.52329">
        <ele>123.363</ele>
        <time>2019-08-06T07:33:51Z</time>
      </trkpt>
      <trkpt lat="44.91494" lon="0.52327">
        <ele>123.372</ele>
        <time>2019-08-06T07:33:54Z</time>
      </trkpt>
      <trkpt lat="44.91499" lon="0.52324">
        <ele>123.384</ele>
        <time>2019-08-06T07:33:57Z</time>
      </trkpt>
      <trkpt lat="44.91503" lon="0.52321">
        <ele>123.413</ele>
        <time>2019-08-06T07:34:02Z</time>
      </trkpt>
      <trkpt lat="44.91507" lon="0.52317">
        <ele>123.471</ele>
        <time>2019-08-06T07:34:08Z</time>
      </trkpt>
      <trkpt lat="44.91509" lon="0.52315">
        <ele>123.513</ele>
        <time>2019-08-06T07:34:11Z</time>
      </trkpt>
      <trkpt lat="44.91512" lon="0.52313">
        <ele>123.544</ele>
        <time>2019-08-06T07:34:13Z</time>
      </trkpt>
      <trkpt lat="44.91515" lon="0.52309">
        <ele>123.632</ele>
        <time>2019-08-06T07:34:19Z</time>
      </trkpt>
      <trkpt lat="44.91521" lon="0.52308">
        <ele>123.689</ele>
        <time>2019-08-06T07:34:22Z</time>
      </trkpt>
      <trkpt lat="44.91525" lon="0.52302">
        <ele>123.766</ele>
        <time>2019-08-06T07:34:26Z</time>
      </trkpt>
      <trkpt lat="44.91527" lon="0.52299">
        <ele>123.806</ele>
        <time>2019-08-06T07:34:28Z</time>
      </trkpt>
      <trkpt lat="44.91531" lon="0.52295">
        <ele>123.868</ele>
        <time>2019-08-06T07:34:32Z</time>
      </trkpt>
      <trkpt lat="44.91533" lon="0.52292">
        <ele>123.911</ele>
        <time>2019-08-06T07:34:34Z</time>
      </trkpt>
      <trkpt lat="44.91538" lon="0.52287">
        <ele>124.027</ele>
        <time>2019-08-06T07:34:39Z</time>
      </trkpt>
      <trkpt lat="44.91542" lon="0.52283">
        <ele>124.122</ele>
        <time>2019-08-06T07:34:43Z</time>
      </trkpt>
      <trkpt lat="44.91547" lon="0.52278">
        <ele>124.22</ele>
        <time>2019-08-06T07:34:47Z</time>
      </trkpt>
      <trkpt lat="44.9155" lon="0.52271">
        <ele>124.347</ele>
        <time>2019-08-06T07:34:52Z</time>
      </trkpt>
      <trkpt lat="44.91551" lon="0.52268">
        <ele>124.452</ele>
        <time>2019-08-06T07:34:56Z</time>
      </trkpt>
      <trkpt lat="44.91555" lon="0.52264">
        <ele>124.559</ele>
        <time>2019-08-06T07:35:00Z</time>
      </trkpt>
      <trkpt lat="44.91557" lon="0.52262">
        <ele>124.641</ele>
        <time>2019-08-06T07:35:03Z</time>
      </trkpt>
      <trkpt lat="44.9156" lon="0.52261">
        <ele>124.725</ele>
        <time>2019-08-06T07:35:06Z</time>
      </trkpt>
      <trkpt lat="44.91562" lon="0.52259">
        <ele>124.781</ele>
        <time>2019-08-06T07:35:08Z</time>
      </trkpt>
      <trkpt lat="44.91566" lon="0.52256">
        <ele>124.868</ele>
        <time>2019-08-06T07:35:11Z</time>
      </trkpt>
      <trkpt lat="44.91568" lon="0.52255">
        <ele>124.982</ele>
        <time>2019-08-06T07:35:15Z</time>
      </trkpt>
      <trkpt lat="44.9157" lon="0.52249">
        <ele>125.099</ele>
        <time>2019-08-06T07:35:19Z</time>
      </trkpt>
      <trkpt lat="44.91568" lon="0.52242">
        <ele>125.265</ele>
        <time>2019-08-06T07:35:24Z</time>
      </trkpt>
      <trkpt lat="44.91566" lon="0.52234">
        <ele>125.409</ele>
        <time>2019-08-06T07:35:28Z</time>
      </trkpt>
      <trkpt lat="44.91565" lon="0.52231">
        <ele>125.448</ele>
        <time>2019-08-06T07:35:29Z</time>
      </trkpt>
      <trkpt lat="44.91567" lon="0.52225">
        <ele>125.701</ele>
        <time>2019-08-06T07:35:35Z</time>
      </trkpt>
      <trkpt lat="44.9157" lon="0.52218">
        <ele>125.834</ele>
        <time>2019-08-06T07:35:38Z</time>
      </trkpt>
      <trkpt lat="44.91571" lon="0.52214">
        <ele>125.925</ele>
        <time>2019-08-06T07:35:40Z</time>
      </trkpt>
      <trkpt lat="44.91572" lon="0.52208">
        <ele>126.107</ele>
        <time>2019-08-06T07:35:44Z</time>
      </trkpt>
      <trkpt lat="44.91574" lon="0.52202">
        <ele>126.292</ele>
        <time>2019-08-06T07:35:49Z</time>
      </trkpt>
      <trkpt lat="44.91577" lon="0.52195">
        <ele>126.466</ele>
        <time>2019-08-06T07:35:53Z</time>
      </trkpt>
      <trkpt lat="44.91581" lon="0.52191">
        <ele>126.554</ele>
        <time>2019-08-06T07:35:56Z</time>
      </trkpt>
      <trkpt lat="44.91584" lon="0.52182">
        <ele>126.833</ele>
        <time>2019-08-06T07:36:03Z</time>
      </trkpt>
      <trkpt lat="44.91587" lon="0.52176">
        <ele>126.982</ele>
        <time>2019-08-06T07:36:06Z</time>
      </trkpt>
      <trkpt lat="44.91589" lon="0.52172">
        <ele>127.082</ele>
        <time>2019-08-06T07:36:08Z</time>
      </trkpt>
      <trkpt lat="44.91591" lon="0.52165">
        <ele>127.284</ele>
        <time>2019-08-06T07:36:12Z</time>
      </trkpt>
      <trkpt lat="44.91594" lon="0.5216">
        <ele>127.485</ele>
        <time>2019-08-06T07:36:16Z</time>
      </trkpt>
      <trkpt lat="44.91596" lon="0.52156">
        <ele>127.636</ele>
        <time>2019-08-06T07:36:19Z</time>
      </trkpt>
      <trkpt lat="44.91598" lon="0.52148">
        <ele>127.839</ele>
        <time>2019-08-06T07:36:23Z</time>
      </trkpt>
      <trkpt lat="44.916" lon="0.52145">
        <ele>127.994</ele>
        <time>2019-08-06T07:36:26Z</time>
      </trkpt>
      <trkpt lat="44.91602" lon="0.52138">
        <ele>128.206</ele>
        <time>2019-08-06T07:36:30Z</time>
      </trkpt>
      <trkpt lat="44.91604" lon="0.52131">
        <ele>128.365</ele>
        <time>2019-08-06T07:36:33Z</time>
      </trkpt>
      <trkpt lat="44.91604" lon="0.52123">
        <ele>128.519</ele>
        <time>2019-08-06T07:36:36Z</time>
      </trkpt>
      <trkpt lat="44.91606" lon="0.52115">
        <ele>128.669</ele>
        <time>2019-08-06T07:36:39Z</time>
      </trkpt>
      <trkpt lat="44.91608" lon="0.52109">
        <ele>128.865</ele>
        <time>2019-08-06T07:36:43Z</time>
      </trkpt>
      <trkpt lat="44.91611" lon="0.52102">
        <ele>129.105</ele>
        <time>2019-08-06T07:36:48Z</time>
      </trkpt>
      <trkpt lat="44.91613" lon="0.52097">
        <ele>129.387</ele>
        <time>2019-08-06T07:36:54Z</time>
      </trkpt>
      <trkpt lat="44.91614" lon="0.52089">
        <ele>129.629</ele>
        <time>2019-08-06T07:36:59Z</time>
      </trkpt>
      <trkpt lat="44.91615" lon="0.52083">
        <ele>129.78</ele>
        <time>2019-08-06T07:37:02Z</time>
      </trkpt>
      <trkpt lat="44.91618" lon="0.52077">
        <ele>129.879</ele>
        <time>2019-08-06T07:37:04Z</time>
      </trkpt>
      <trkpt lat="44.91621" lon="0.52069">
        <ele>130.022</ele>
        <time>2019-08-06T07:37:07Z</time>
      </trkpt>
      <trkpt lat="44.91622" lon="0.52066">
        <ele>130.114</ele>
        <time>2019-08-06T07:37:09Z</time>
      </trkpt>
      <trkpt lat="44.91625" lon="0.52061">
        <ele>130.247</ele>
        <time>2019-08-06T07:37:12Z</time>
      </trkpt>
      <trkpt lat="44.91627" lon="0.52057">
        <ele>130.374</ele>
        <time>2019-08-06T07:37:15Z</time>
      </trkpt>
      <trkpt lat="44.91629" lon="0.52053">
        <ele>130.496</ele>
        <time>2019-08-06T07:37:18Z</time>
      </trkpt>
      <trkpt lat="44.91631" lon="0.52047">
        <ele>130.653</ele>
        <time>2019-08-06T07:37:22Z</time>
      </trkpt>
      <trkpt lat="44.91628" lon="0.52043">
        <ele>130.972</ele>
        <time>2019-08-06T07:37:30Z</time>
      </trkpt>
      <trkpt lat="44.9163" lon="0.52035">
        <ele>131.142</ele>
        <time>2019-08-06T07:37:34Z</time>
      </trkpt>
      <trkpt lat="44.91631" lon="0.52031">
        <ele>131.189</ele>
        <time>2019-08-06T07:37:36Z</time>
      </trkpt>
      <trkpt lat="44.91631" lon="0.52027">
        <ele>131.276</ele>
        <time>2019-08-06T07:37:38Z</time>
      </trkpt>
      <trkpt lat="44.91633" lon="0.52019">
        <ele>131.403</ele>
        <time>2019-08-06T07:37:41Z</time>
      </trkpt>
      <trkpt lat="44.91634" lon="0.52015">
        <ele>131.529</ele>
        <time>2019-08-06T07:37:44Z</time>
      </trkpt>
      <trkpt lat="44.91636" lon="0.52009">
        <ele>131.725</ele>
        <time>2019-08-06T07:37:49Z</time>
      </trkpt>
      <trkpt lat="44.91636" lon="0.52002">
        <ele>131.837</ele>
        <time>2019-08-06T07:37:52Z</time>
      </trkpt>
      <trkpt lat="44.91636" lon="0.51998">
        <ele>131.949</ele>
        <time>2019-08-06T07:37:55Z</time>
      </trkpt>
      <trkpt lat="44.91639" lon="0.51992">
        <ele>132.207</ele>
        <time>2019-08-06T07:38:02Z</time>
      </trkpt>
      <trkpt lat="44.91641" lon="0.51985">
        <ele>132.324</ele>
        <time>2019-08-06T07:38:06Z</time>
      </trkpt>
      <trkpt lat="44.91634" lon="0.51982">
        <ele>132.655</ele>
        <time>2019-08-06T07:38:13Z</time>
      </trkpt>
      <trkpt lat="44.91632" lon="0.51981">
        <ele>132.713</ele>
        <time>2019-08-06T07:38:14Z</time>
      </trkpt>
      <trkpt lat="44.91629" lon="0.51979">
        <ele>132.774</ele>
        <time>2019-08-06T07:38:15Z</time>
      </trkpt>
      <trkpt lat="44.91625" lon="0.51978">
        <ele>132.901</ele>
        <time>2019-08-06T07:38:17Z</time>
      </trkpt>
      <trkpt lat="44.9162" lon="0.51974">
        <ele>133.173</ele>
        <time>2019-08-06T07:38:21Z</time>
      </trkpt>
      <trkpt lat="44.91616" lon="0.51973">
        <ele>133.537</ele>
        <time>2019-08-06T07:38:26Z</time>
      </trkpt>
      <trkpt lat="44.91611" lon="0.51974">
        <ele>133.933</ele>
        <time>2019-08-06T07:38:31Z</time>
      </trkpt>
      <trkpt lat="44.91605" lon="0.51973">
        <ele>134.349</ele>
        <time>2019-08-06T07:38:36Z</time>
      </trkpt>
      <trkpt lat="44.916" lon="0.51972">
        <ele>134.605</ele>
        <time>2019-08-06T07:38:39Z</time>
      </trkpt>
      <trkpt lat="44.91595" lon="0.51973">
        <ele>135.024</ele>
        <time>2019-08-06T07:38:44Z</time>
      </trkpt>
      <trkpt lat="44.9159" lon="0.51971">
        <ele>135.354</ele>
        <time>2019-08-06T07:38:48Z</time>
      </trkpt>
      <trkpt lat="44.91586" lon="0.5197">
        <ele>135.517</ele>
        <time>2019-08-06T07:38:50Z</time>
      </trkpt>
      <trkpt lat="44.91581" lon="0.51967">
        <ele>135.762</ele>
        <time>2019-08-06T07:38:53Z</time>
      </trkpt>
      <trkpt lat="44.91578" lon="0.51966">
        <ele>135.924</ele>
        <time>2019-08-06T07:38:55Z</time>
      </trkpt>
      <trkpt lat="44.91572" lon="0.51965">
        <ele>136.167</ele>
        <time>2019-08-06T07:38:58Z</time>
      </trkpt>
      <trkpt lat="44.91569" lon="0.51963">
        <ele>136.416</ele>
        <time>2019-08-06T07:39:01Z</time>
      </trkpt>
      <trkpt lat="44.91565" lon="0.51962">
        <ele>136.586</ele>
        <time>2019-08-06T07:39:03Z</time>
      </trkpt>
      <trkpt lat="44.91563" lon="0.51961">
        <ele>136.76</ele>
        <time>2019-08-06T07:39:05Z</time>
      </trkpt>
      <trkpt lat="44.91556" lon="0.51961">
        <ele>137.131</ele>
        <time>2019-08-06T07:39:09Z</time>
      </trkpt>
      <trkpt lat="44.91554" lon="0.5196">
        <ele>137.326</ele>
        <time>2019-08-06T07:39:11Z</time>
      </trkpt>
      <trkpt lat="44.91548" lon="0.51961">
        <ele>137.966</ele>
        <time>2019-08-06T07:39:17Z</time>
      </trkpt>
      <trkpt lat="44.91544" lon="0.51961">
        <ele>138.676</ele>
        <time>2019-08-06T07:39:23Z</time>
      </trkpt>
      <trkpt lat="44.91539" lon="0.51961">
        <ele>139.046</ele>
        <time>2019-08-06T07:39:26Z</time>
      </trkpt>
      <trkpt lat="44.91536" lon="0.5196">
        <ele>139.303</ele>
        <time>2019-08-06T07:39:28Z</time>
      </trkpt>
      <trkpt lat="44.9153" lon="0.51962">
        <ele>139.835</ele>
        <time>2019-08-06T07:39:32Z</time>
      </trkpt>
      <trkpt lat="44.91526" lon="0.51962">
        <ele>140.245</ele>
        <time>2019-08-06T07:39:35Z</time>
      </trkpt>
      <trkpt lat="44.91524" lon="0.51963">
        <ele>140.523</ele>
        <time>2019-08-06T07:39:37Z</time>
      </trkpt>
      <trkpt lat="44.91521" lon="0.51963">
        <ele>140.802</ele>
        <time>2019-08-06T07:39:39Z</time>
      </trkpt>
      <trkpt lat="44.91518" lon="0.51964">
        <ele>141.225</ele>
        <time>2019-08-06T07:39:42Z</time>
      </trkpt>
      <trkpt lat="44.91515" lon="0.51964">
        <ele>141.509</ele>
        <time>2019-08-06T07:39:44Z</time>
      </trkpt>
      <trkpt lat="44.91513" lon="0.51964">
        <ele>141.794</ele>
        <time>2019-08-06T07:39:46Z</time>
      </trkpt>
      <trkpt lat="44.91509" lon="0.51964">
        <ele>142.367</ele>
        <time>2019-08-06T07:39:50Z</time>
      </trkpt>
      <trkpt lat="44.91506" lon="0.51964">
        <ele>142.653</ele>
        <time>2019-08-06T07:39:52Z</time>
      </trkpt>
      <trkpt lat="44.91504" lon="0.51964">
        <ele>142.937</ele>
        <time>2019-08-06T07:39:54Z</time>
      </trkpt>
      <trkpt lat="44.915" lon="0.51967">
        <ele>143.808</ele>
        <time>2019-08-06T07:40:00Z</time>
      </trkpt>
      <trkpt lat="44.91497" lon="0.51967">
        <ele>144.397</ele>
        <time>2019-08-06T07:40:04Z</time>
      </trkpt>
      <trkpt lat="44.91493" lon="0.51968">
        <ele>144.98</ele>
        <time>2019-08-06T07:40:08Z</time>
      </trkpt>
      <trkpt lat="44.91489" lon="0.51967">
        <ele>145.677</ele>
        <time>2019-08-06T07:40:13Z</time>
      </trkpt>
      <trkpt lat="44.91486" lon="0.51967">
        <ele>146.201</ele>
        <time>2019-08-06T07:40:17Z</time>
      </trkpt>
      <trkpt lat="44.91482" lon="0.51966">
        <ele>146.818</ele>
        <time>2019-08-06T07:40:22Z</time>
      </trkpt>
      <trkpt lat="44.91478" lon="0.51965">
        <ele>147.056</ele>
        <time>2019-08-06T07:40:24Z</time>
      </trkpt>
      <trkpt lat="44.91474" lon="0.51963">
        <ele>147.288</ele>
        <time>2019-08-06T07:40:26Z</time>
      </trkpt>
      <trkpt lat="44.91472" lon="0.51962">
        <ele>147.516</ele>
        <time>2019-08-06T07:40:28Z</time>
      </trkpt>
      <trkpt lat="44.91467" lon="0.51963">
        <ele>148.068</ele>
        <time>2019-08-06T07:40:33Z</time>
      </trkpt>
      <trkpt lat="44.91462" lon="0.5196">
        <ele>148.499</ele>
        <time>2019-08-06T07:40:37Z</time>
      </trkpt>
      <trkpt lat="44.91457" lon="0.51958">
        <ele>148.919</ele>
        <time>2019-08-06T07:40:41Z</time>
      </trkpt>
      <trkpt lat="44.91451" lon="0.51955">
        <ele>149.232</ele>
        <time>2019-08-06T07:40:44Z</time>
      </trkpt>
      <trkpt lat="44.91448" lon="0.51953">
        <ele>149.44</ele>
        <time>2019-08-06T07:40:46Z</time>
      </trkpt>
      <trkpt lat="44.91442" lon="0.51951">
        <ele>149.752</ele>
        <time>2019-08-06T07:40:49Z</time>
      </trkpt>
      <trkpt lat="44.91438" lon="0.51949">
        <ele>150.065</ele>
        <time>2019-08-06T07:40:52Z</time>
      </trkpt>
      <trkpt lat="44.91433" lon="0.51948">
        <ele>150.382</ele>
        <time>2019-08-06T07:40:55Z</time>
      </trkpt>
      <trkpt lat="44.9143" lon="0.51948">
        <ele>150.595</ele>
        <time>2019-08-06T07:40:57Z</time>
      </trkpt>
      <trkpt lat="44.91425" lon="0.51949">
        <ele>151.135</ele>
        <time>2019-08-06T07:41:02Z</time>
      </trkpt>
      <trkpt lat="44.91422" lon="0.51949">
        <ele>151.465</ele>
        <time>2019-08-06T07:41:05Z</time>
      </trkpt>
      <trkpt lat="44.91416" lon="0.51948">
        <ele>151.907</ele>
        <time>2019-08-06T07:41:09Z</time>
      </trkpt>
      <trkpt lat="44.91411" lon="0.51945">
        <ele>152.239</ele>
        <time>2019-08-06T07:41:12Z</time>
      </trkpt>
      <trkpt lat="44.91406" lon="0.51945">
        <ele>152.993</ele>
        <time>2019-08-06T07:41:19Z</time>
      </trkpt>
      <trkpt lat="44.91403" lon="0.51945">
        <ele>153.295</ele>
        <time>2019-08-06T07:41:22Z</time>
      </trkpt>
      <trkpt lat="44.914" lon="0.51945">
        <ele>153.674</ele>
        <time>2019-08-06T07:41:26Z</time>
      </trkpt>
      <trkpt lat="44.91395" lon="0.51943">
        <ele>154.033</ele>
        <time>2019-08-06T07:41:30Z</time>
      </trkpt>
      <trkpt lat="44.91392" lon="0.51943">
        <ele>154.206</ele>
        <time>2019-08-06T07:41:32Z</time>
      </trkpt>
      <trkpt lat="44.91389" lon="0.51942">
        <ele>154.46</ele>
        <time>2019-08-06T07:41:35Z</time>
      </trkpt>
      <trkpt lat="44.91387" lon="0.51941">
        <ele>154.627</ele>
        <time>2019-08-06T07:41:37Z</time>
      </trkpt>
      <trkpt lat="44.91384" lon="0.5194">
        <ele>154.792</ele>
        <time>2019-08-06T07:41:39Z</time>
      </trkpt>
      <trkpt lat="44.91379" lon="0.51939">
        <ele>155.195</ele>
        <time>2019-08-06T07:41:44Z</time>
      </trkpt>
      <trkpt lat="44.91374" lon="0.51936">
        <ele>155.576</ele>
        <time>2019-08-06T07:41:49Z</time>
      </trkpt>
      <trkpt lat="44.9137" lon="0.51932">
        <ele>155.794</ele>
        <time>2019-08-06T07:41:52Z</time>
      </trkpt>
      <trkpt lat="44.91367" lon="0.51929">
        <ele>155.938</ele>
        <time>2019-08-06T07:41:54Z</time>
      </trkpt>
      <trkpt lat="44.91362" lon="0.51926">
        <ele>156.15</ele>
        <time>2019-08-06T07:41:57Z</time>
      </trkpt>
      <trkpt lat="44.91358" lon="0.51923">
        <ele>156.423</ele>
        <time>2019-08-06T07:42:01Z</time>
      </trkpt>
      <trkpt lat="44.91353" lon="0.51921">
        <ele>156.759</ele>
        <time>2019-08-06T07:42:06Z</time>
      </trkpt>
      <trkpt lat="44.9135" lon="0.5192">
        <ele>156.89</ele>
        <time>2019-08-06T07:42:08Z</time>
      </trkpt>
      <trkpt lat="44.91347" lon="0.51919">
        <ele>157.086</ele>
        <time>2019-08-06T07:42:11Z</time>
      </trkpt>
      <trkpt lat="44.91343" lon="0.51918">
        <ele>157.282</ele>
        <time>2019-08-06T07:42:14Z</time>
      </trkpt>
      <trkpt lat="44.91337" lon="0.51916">
        <ele>157.613</ele>
        <time>2019-08-06T07:42:19Z</time>
      </trkpt>
      <trkpt lat="44.91334" lon="0.51915">
        <ele>157.811</ele>
        <time>2019-08-06T07:42:22Z</time>
      </trkpt>
      <trkpt lat="44.91331" lon="0.51914">
        <ele>158.072</ele>
        <time>2019-08-06T07:42:26Z</time>
      </trkpt>
      <trkpt lat="44.91326" lon="0.51911">
        <ele>158.265</ele>
        <time>2019-08-06T07:42:29Z</time>
      </trkpt>
      <trkpt lat="44.91323" lon="0.51909">
        <ele>158.392</ele>
        <time>2019-08-06T07:42:31Z</time>
      </trkpt>
      <trkpt lat="44.9132" lon="0.51907">
        <ele>158.517</ele>
        <time>2019-08-06T07:42:33Z</time>
      </trkpt>
      <trkpt lat="44.91317" lon="0.51905">
        <ele>158.639</ele>
        <time>2019-08-06T07:42:35Z</time>
      </trkpt>
      <trkpt lat="44.91312" lon="0.51903">
        <ele>158.934</ele>
        <time>2019-08-06T07:42:40Z</time>
      </trkpt>
      <trkpt lat="44.91308" lon="0.519">
        <ele>159.162</ele>
        <time>2019-08-06T07:42:44Z</time>
      </trkpt>
      <trkpt lat="44.91303" lon="0.51899">
        <ele>159.437</ele>
        <time>2019-08-06T07:42:49Z</time>
      </trkpt>
      <trkpt lat="44.91299" lon="0.51897">
        <ele>159.604</ele>
        <time>2019-08-06T07:42:53Z</time>
      </trkpt>
      <trkpt lat="44.91294" lon="0.51894">
        <ele>159.871</ele>
        <time>2019-08-06T07:42:58Z</time>
      </trkpt>
      <trkpt lat="44.91292" lon="0.51892">
        <ele>159.924</ele>
        <time>2019-08-06T07:42:59Z</time>
      </trkpt>
      <trkpt lat="44.91287" lon="0.51888">
        <ele>160.079</ele>
        <time>2019-08-06T07:43:02Z</time>
      </trkpt>
      <trkpt lat="44.91283" lon="0.51886">
        <ele>160.336</ele>
        <time>2019-08-06T07:43:07Z</time>
      </trkpt>
      <trkpt lat="44.91278" lon="0.51886">
        <ele>160.538</ele>
        <time>2019-08-06T07:43:11Z</time>
      </trkpt>
      <trkpt lat="44.91275" lon="0.51885">
        <ele>160.64</ele>
        <time>2019-08-06T07:43:13Z</time>
      </trkpt>
      <trkpt lat="44.91272" lon="0.51885">
        <ele>160.792</ele>
        <time>2019-08-06T07:43:16Z</time>
      </trkpt>
      <trkpt lat="44.91267" lon="0.51883">
        <ele>161.051</ele>
        <time>2019-08-06T07:43:21Z</time>
      </trkpt>
      <trkpt lat="44.91262" lon="0.51882">
        <ele>161.265</ele>
        <time>2019-08-06T07:43:25Z</time>
      </trkpt>
      <trkpt lat="44.91255" lon="0.51879">
        <ele>161.422</ele>
        <time>2019-08-06T07:43:28Z</time>
      </trkpt>
      <trkpt lat="44.91249" lon="0.51878">
        <ele>161.576</ele>
        <time>2019-08-06T07:43:31Z</time>
      </trkpt>
      <trkpt lat="44.91243" lon="0.51878">
        <ele>161.726</ele>
        <time>2019-08-06T07:43:34Z</time>
      </trkpt>
      <trkpt lat="44.91241" lon="0.51878">
        <ele>161.825</ele>
        <time>2019-08-06T07:43:36Z</time>
      </trkpt>
      <trkpt lat="44.91236" lon="0.5188">
        <ele>162.016</ele>
        <time>2019-08-06T07:43:40Z</time>
      </trkpt>
      <trkpt lat="44.91231" lon="0.51881">
        <ele>162.201</ele>
        <time>2019-08-06T07:43:44Z</time>
      </trkpt>
      <trkpt lat="44.91226" lon="0.51883">
        <ele>162.375</ele>
        <time>2019-08-06T07:43:48Z</time>
      </trkpt>
      <trkpt lat="44.91221" lon="0.51883">
        <ele>162.547</ele>
        <time>2019-08-06T07:43:52Z</time>
      </trkpt>
      <trkpt lat="44.91219" lon="0.51882">
        <ele>162.59</ele>
        <time>2019-08-06T07:43:53Z</time>
      </trkpt>
      <trkpt lat="44.91215" lon="0.51881">
        <ele>162.812</ele>
        <time>2019-08-06T07:43:58Z</time>
      </trkpt>
      <trkpt lat="44.9121" lon="0.51883">
        <ele>162.984</ele>
        <time>2019-08-06T07:44:02Z</time>
      </trkpt>
      <trkpt lat="44.91206" lon="0.51884">
        <ele>163.112</ele>
        <time>2019-08-06T07:44:05Z</time>
      </trkpt>
      <trkpt lat="44.91202" lon="0.51884">
        <ele>163.198</ele>
        <time>2019-08-06T07:44:07Z</time>
      </trkpt>
      <trkpt lat="44.91196" lon="0.51885">
        <ele>163.375</ele>
        <time>2019-08-06T07:44:11Z</time>
      </trkpt>
      <trkpt lat="44.91191" lon="0.51885">
        <ele>163.558</ele>
        <time>2019-08-06T07:44:15Z</time>
      </trkpt>
      <trkpt lat="44.91186" lon="0.51888">
        <ele>163.784</ele>
        <time>2019-08-06T07:44:20Z</time>
      </trkpt>
      <trkpt lat="44.9118" lon="0.51888">
        <ele>163.919</ele>
        <time>2019-08-06T07:44:23Z</time>
      </trkpt>
      <trkpt lat="44.91175" lon="0.51889">
        <ele>164.136</ele>
        <time>2019-08-06T07:44:28Z</time>
      </trkpt>
      <trkpt lat="44.9117" lon="0.5189">
        <ele>164.345</ele>
        <time>2019-08-06T07:44:33Z</time>
      </trkpt>
      <trkpt lat="44.91165" lon="0.5189">
        <ele>164.463</ele>
        <time>2019-08-06T07:44:36Z</time>
      </trkpt>
      <trkpt lat="44.91162" lon="0.5189">
        <ele>164.541</ele>
        <time>2019-08-06T07:44:38Z</time>
      </trkpt>
      <trkpt lat="44.91157" lon="0.51891">
        <ele>164.654</ele>
        <time>2019-08-06T07:44:41Z</time>
      </trkpt>
      <trkpt lat="44.91151" lon="0.5189">
        <ele>164.84</ele>
        <time>2019-08-06T07:44:46Z</time>
      </trkpt>
      <trkpt lat="44.91148" lon="0.5189">
        <ele>164.99</ele>
        <time>2019-08-06T07:44:50Z</time>
      </trkpt>
      <trkpt lat="44.91145" lon="0.5189">
        <ele>165.143</ele>
        <time>2019-08-06T07:44:54Z</time>
      </trkpt>
      <trkpt lat="44.9114" lon="0.51889">
        <ele>165.294</ele>
        <time>2019-08-06T07:44:58Z</time>
      </trkpt>
      <trkpt lat="44.91137" lon="0.51889">
        <ele>165.366</ele>
        <time>2019-08-06T07:45:00Z</time>
      </trkpt>
      <trkpt lat="44.91132" lon="0.51887">
        <ele>165.506</ele>
        <time>2019-08-06T07:45:04Z</time>
      </trkpt>
      <trkpt lat="44.9113" lon="0.51886">
        <ele>165.611</ele>
        <time>2019-08-06T07:45:08Z</time>
      </trkpt>
      <trkpt lat="44.91127" lon="0.51886">
        <ele>165.742</ele>
        <time>2019-08-06T07:45:12Z</time>
      </trkpt>
      <trkpt lat="44.91122" lon="0.51882">
        <ele>165.873</ele>
        <time>2019-08-06T07:45:16Z</time>
      </trkpt>
      <trkpt lat="44.91118" lon="0.5188">
        <ele>166.045</ele>
        <time>2019-08-06T07:45:22Z</time>
      </trkpt>
      <trkpt lat="44.91113" lon="0.51876">
        <ele>166.15</ele>
        <time>2019-08-06T07:45:25Z</time>
      </trkpt>
      <trkpt lat="44.91108" lon="0.51875">
        <ele>166.286</ele>
        <time>2019-08-06T07:45:29Z</time>
      </trkpt>
      <trkpt lat="44.91104" lon="0.51873">
        <ele>166.352</ele>
        <time>2019-08-06T07:45:31Z</time>
      </trkpt>
      <trkpt lat="44.91099" lon="0.51872">
        <ele>166.453</ele>
        <time>2019-08-06T07:45:34Z</time>
      </trkpt>
      <trkpt lat="44.91097" lon="0.51871">
        <ele>166.553</ele>
        <time>2019-08-06T07:45:37Z</time>
      </trkpt>
      <trkpt lat="44.91093" lon="0.5187">
        <ele>166.621</ele>
        <time>2019-08-06T07:45:39Z</time>
      </trkpt>
      <trkpt lat="44.91088" lon="0.51871">
        <ele>166.797</ele>
        <time>2019-08-06T07:45:45Z</time>
      </trkpt>
      <trkpt lat="44.91085" lon="0.51872">
        <ele>166.864</ele>
        <time>2019-08-06T07:45:47Z</time>
      </trkpt>
      <trkpt lat="44.91081" lon="0.51868">
        <ele>166.963</ele>
        <time>2019-08-06T07:45:50Z</time>
      </trkpt>
      <trkpt lat="44.91076" lon="0.51865">
        <ele>167.094</ele>
        <time>2019-08-06T07:45:54Z</time>
      </trkpt>
      <trkpt lat="44.9107" lon="0.51862">
        <ele>167.189</ele>
        <time>2019-08-06T07:45:57Z</time>
      </trkpt>
      <trkpt lat="44.91065" lon="0.51862">
        <ele>167.252</ele>
        <time>2019-08-06T07:45:59Z</time>
      </trkpt>
      <trkpt lat="44.9106" lon="0.51862">
        <ele>167.314</ele>
        <time>2019-08-06T07:46:01Z</time>
      </trkpt>
      <trkpt lat="44.91055" lon="0.51863">
        <ele>167.408</ele>
        <time>2019-08-06T07:46:04Z</time>
      </trkpt>
      <trkpt lat="44.91051" lon="0.51865">
        <ele>167.499</ele>
        <time>2019-08-06T07:46:07Z</time>
      </trkpt>
      <trkpt lat="44.91045" lon="0.51866">
        <ele>167.613</ele>
        <time>2019-08-06T07:46:11Z</time>
      </trkpt>
      <trkpt lat="44.91043" lon="0.51866">
        <ele>167.666</ele>
        <time>2019-08-06T07:46:13Z</time>
      </trkpt>
      <trkpt lat="44.91038" lon="0.51868">
        <ele>167.791</ele>
        <time>2019-08-06T07:46:18Z</time>
      </trkpt>
      <trkpt lat="44.91034" lon="0.51865">
        <ele>167.887</ele>
        <time>2019-08-06T07:46:22Z</time>
      </trkpt>
      <trkpt lat="44.91031" lon="0.51863">
        <ele>167.937</ele>
        <time>2019-08-06T07:46:24Z</time>
      </trkpt>
      <trkpt lat="44.91028" lon="0.51861">
        <ele>167.988</ele>
        <time>2019-08-06T07:46:26Z</time>
      </trkpt>
      <trkpt lat="44.91023" lon="0.5186">
        <ele>168.112</ele>
        <time>2019-08-06T07:46:31Z</time>
      </trkpt>
      <trkpt lat="44.9102" lon="0.5186">
        <ele>168.161</ele>
        <time>2019-08-06T07:46:33Z</time>
      </trkpt>
      <trkpt lat="44.91016" lon="0.5186">
        <ele>168.209</ele>
        <time>2019-08-06T07:46:35Z</time>
      </trkpt>
      <trkpt lat="44.91013" lon="0.51861">
        <ele>168.256</ele>
        <time>2019-08-06T07:46:37Z</time>
      </trkpt>
      <trkpt lat="44.91007" lon="0.51858">
        <ele>168.351</ele>
        <time>2019-08-06T07:46:41Z</time>
      </trkpt>
      <trkpt lat="44.91003" lon="0.51858">
        <ele>168.469</ele>
        <time>2019-08-06T07:46:46Z</time>
      </trkpt>
      <trkpt lat="44.90998" lon="0.51858">
        <ele>168.618</ele>
        <time>2019-08-06T07:46:52Z</time>
      </trkpt>
      <trkpt lat="44.90993" lon="0.51856">
        <ele>168.696</ele>
        <time>2019-08-06T07:46:55Z</time>
      </trkpt>
      <trkpt lat="44.90989" lon="0.51855">
        <ele>168.778</ele>
        <time>2019-08-06T07:46:58Z</time>
      </trkpt>
      <trkpt lat="44.90984" lon="0.51854">
        <ele>168.923</ele>
        <time>2019-08-06T07:47:03Z</time>
      </trkpt>
      <trkpt lat="44.9098" lon="0.51854">
        <ele>169.046</ele>
        <time>2019-08-06T07:47:07Z</time>
      </trkpt>
      <trkpt lat="44.90975" lon="0.51855">
        <ele>169.205</ele>
        <time>2019-08-06T07:47:13Z</time>
      </trkpt>
      <trkpt lat="44.9097" lon="0.51854">
        <ele>169.364</ele>
        <time>2019-08-06T07:47:18Z</time>
      </trkpt>
      <trkpt lat="44.90965" lon="0.51851">
        <ele>169.493</ele>
        <time>2019-08-06T07:47:22Z</time>
      </trkpt>
      <trkpt lat="44.90962" lon="0.5185">
        <ele>169.559</ele>
        <time>2019-08-06T07:47:24Z</time>
      </trkpt>
      <trkpt lat="44.90959" lon="0.51848">
        <ele>169.626</ele>
        <time>2019-08-06T07:47:26Z</time>
      </trkpt>
      <trkpt lat="44.90954" lon="0.51845">
        <ele>169.766</ele>
        <time>2019-08-06T07:47:30Z</time>
      </trkpt>
      <trkpt lat="44.90949" lon="0.51843">
        <ele>169.912</ele>
        <time>2019-08-06T07:47:34Z</time>
      </trkpt>
      <trkpt lat="44.90944" lon="0.51839">
        <ele>170.102</ele>
        <time>2019-08-06T07:47:39Z</time>
      </trkpt>
      <trkpt lat="44.90938" lon="0.51839">
        <ele>170.257</ele>
        <time>2019-08-06T07:47:43Z</time>
      </trkpt>
      <trkpt lat="44.90933" lon="0.51842">
        <ele>170.403</ele>
        <time>2019-08-06T07:47:47Z</time>
      </trkpt>
      <trkpt lat="44.90927" lon="0.51841">
        <ele>170.507</ele>
        <time>2019-08-06T07:47:50Z</time>
      </trkpt>
      <trkpt lat="44.90922" lon="0.51839">
        <ele>170.606</ele>
        <time>2019-08-06T07:47:53Z</time>
      </trkpt>
      <trkpt lat="44.90918" lon="0.51837">
        <ele>170.701</ele>
        <time>2019-08-06T07:47:56Z</time>
      </trkpt>
      <trkpt lat="44.90916" lon="0.51836">
        <ele>170.792</ele>
        <time>2019-08-06T07:47:59Z</time>
      </trkpt>
      <trkpt lat="44.90912" lon="0.51834">
        <ele>170.88</ele>
        <time>2019-08-06T07:48:02Z</time>
      </trkpt>
      <trkpt lat="44.90908" lon="0.51832">
        <ele>170.966</ele>
        <time>2019-08-06T07:48:05Z</time>
      </trkpt>
      <trkpt lat="44.90905" lon="0.5183">
        <ele>171.023</ele>
        <time>2019-08-06T07:48:07Z</time>
      </trkpt>
      <trkpt lat="44.90902" lon="0.51829">
        <ele>171.08</ele>
        <time>2019-08-06T07:48:09Z</time>
      </trkpt>
      <trkpt lat="44.90899" lon="0.51828">
        <ele>171.139</ele>
        <time>2019-08-06T07:48:11Z</time>
      </trkpt>
      <trkpt lat="44.90897" lon="0.51826">
        <ele>171.2</ele>
        <time>2019-08-06T07:48:14Z</time>
      </trkpt>
      <trkpt lat="44.90891" lon="0.51825">
        <ele>171.354</ele>
        <time>2019-08-06T07:48:18Z</time>
      </trkpt>
      <trkpt lat="44.90886" lon="0.51821">
        <ele>171.54</ele>
        <time>2019-08-06T07:48:24Z</time>
      </trkpt>
      <trkpt lat="44.90881" lon="0.51818">
        <ele>171.655</ele>
        <time>2019-08-06T07:48:28Z</time>
      </trkpt>
      <trkpt lat="44.90878" lon="0.51816">
        <ele>171.709</ele>
        <time>2019-08-06T07:48:30Z</time>
      </trkpt>
      <trkpt lat="44.90874" lon="0.51814">
        <ele>171.762</ele>
        <time>2019-08-06T07:48:32Z</time>
      </trkpt>
      <trkpt lat="44.90871" lon="0.51812">
        <ele>171.814</ele>
        <time>2019-08-06T07:48:34Z</time>
      </trkpt>
      <trkpt lat="44.90866" lon="0.51811">
        <ele>171.912</ele>
        <time>2019-08-06T07:48:38Z</time>
      </trkpt>
      <trkpt lat="44.90862" lon="0.5181">
        <ele>172.006</ele>
        <time>2019-08-06T07:48:42Z</time>
      </trkpt>
      <trkpt lat="44.90858" lon="0.51809">
        <ele>172.1</ele>
        <time>2019-08-06T07:48:46Z</time>
      </trkpt>
      <trkpt lat="44.90854" lon="0.51805">
        <ele>172.202</ele>
        <time>2019-08-06T07:48:50Z</time>
      </trkpt>
      <trkpt lat="44.90849" lon="0.51802">
        <ele>172.278</ele>
        <time>2019-08-06T07:48:53Z</time>
      </trkpt>
      <trkpt lat="44.90845" lon="0.51799">
        <ele>172.355</ele>
        <time>2019-08-06T07:48:56Z</time>
      </trkpt>
      <trkpt lat="44.90841" lon="0.51796">
        <ele>172.408</ele>
        <time>2019-08-06T07:48:58Z</time>
      </trkpt>
      <trkpt lat="44.90837" lon="0.51794">
        <ele>172.489</ele>
        <time>2019-08-06T07:49:01Z</time>
      </trkpt>
      <trkpt lat="44.90832" lon="0.51793">
        <ele>172.571</ele>
        <time>2019-08-06T07:49:04Z</time>
      </trkpt>
      <trkpt lat="44.90828" lon="0.51793">
        <ele>172.683</ele>
        <time>2019-08-06T07:49:08Z</time>
      </trkpt>
      <trkpt lat="44.90824" lon="0.51792">
        <ele>172.8</ele>
        <time>2019-08-06T07:49:12Z</time>
      </trkpt>
      <trkpt lat="44.90819" lon="0.51793">
        <ele>172.921</ele>
        <time>2019-08-06T07:49:16Z</time>
      </trkpt>
      <trkpt lat="44.90815" lon="0.51793">
        <ele>173.016</ele>
        <time>2019-08-06T07:49:19Z</time>
      </trkpt>
      <trkpt lat="44.90813" lon="0.51794">
        <ele>173.084</ele>
        <time>2019-08-06T07:49:21Z</time>
      </trkpt>
      <trkpt lat="44.90808" lon="0.51796">
        <ele>173.292</ele>
        <time>2019-08-06T07:49:27Z</time>
      </trkpt>
      <trkpt lat="44.90803" lon="0.51797">
        <ele>173.431</ele>
        <time>2019-08-06T07:49:31Z</time>
      </trkpt>
      <trkpt lat="44.908" lon="0.51798">
        <ele>173.504</ele>
        <time>2019-08-06T07:49:33Z</time>
      </trkpt>
      <trkpt lat="44.90794" lon="0.51798">
        <ele>173.66</ele>
        <time>2019-08-06T07:49:37Z</time>
      </trkpt>
      <trkpt lat="44.90791" lon="0.51798">
        <ele>173.741</ele>
        <time>2019-08-06T07:49:39Z</time>
      </trkpt>
      <trkpt lat="44.90786" lon="0.51797">
        <ele>173.904</ele>
        <time>2019-08-06T07:49:43Z</time>
      </trkpt>
      <trkpt lat="44.90782" lon="0.51794">
        <ele>173.987</ele>
        <time>2019-08-06T07:49:45Z</time>
      </trkpt>
      <trkpt lat="44.9078" lon="0.51793">
        <ele>174.071</ele>
        <time>2019-08-06T07:49:47Z</time>
      </trkpt>
      <trkpt lat="44.90776" lon="0.51793">
        <ele>174.279</ele>
        <time>2019-08-06T07:49:53Z</time>
      </trkpt>
      <trkpt lat="44.90771" lon="0.51793">
        <ele>174.516</ele>
        <time>2019-08-06T07:49:59Z</time>
      </trkpt>
      <trkpt lat="44.90766" lon="0.51791">
        <ele>174.744</ele>
        <time>2019-08-06T07:50:05Z</time>
      </trkpt>
      <trkpt lat="44.90761" lon="0.51792">
        <ele>174.857</ele>
        <time>2019-08-06T07:50:08Z</time>
      </trkpt>
      <trkpt lat="44.90755" lon="0.51789">
        <ele>175.01</ele>
        <time>2019-08-06T07:50:12Z</time>
      </trkpt>
      <trkpt lat="44.9075" lon="0.51789">
        <ele>175.123</ele>
        <time>2019-08-06T07:50:15Z</time>
      </trkpt>
      <trkpt lat="44.90746" lon="0.51789">
        <ele>175.232</ele>
        <time>2019-08-06T07:50:18Z</time>
      </trkpt>
      <trkpt lat="44.9074" lon="0.51789">
        <ele>175.408</ele>
        <time>2019-08-06T07:50:23Z</time>
      </trkpt>
      <trkpt lat="44.90737" lon="0.51788">
        <ele>175.51</ele>
        <time>2019-08-06T07:50:26Z</time>
      </trkpt>
      <trkpt lat="44.90734" lon="0.51788">
        <ele>175.578</ele>
        <time>2019-08-06T07:50:28Z</time>
      </trkpt>
      <trkpt lat="44.9073" lon="0.51789">
        <ele>175.677</ele>
        <time>2019-08-06T07:50:31Z</time>
      </trkpt>
      <trkpt lat="44.90725" lon="0.51788">
        <ele>175.774</ele>
        <time>2019-08-06T07:50:34Z</time>
      </trkpt>
      <trkpt lat="44.9072" lon="0.51789">
        <ele>175.935</ele>
        <time>2019-08-06T07:50:39Z</time>
      </trkpt>
      <trkpt lat="44.90715" lon="0.51789">
        <ele>176.064</ele>
        <time>2019-08-06T07:50:43Z</time>
      </trkpt>
      <trkpt lat="44.9071" lon="0.51786">
        <ele>176.162</ele>
        <time>2019-08-06T07:50:46Z</time>
      </trkpt>
      <trkpt lat="44.90707" lon="0.51785">
        <ele>176.266</ele>
        <time>2019-08-06T07:50:49Z</time>
      </trkpt>
      <trkpt lat="44.90704" lon="0.51784">
        <ele>176.369</ele>
        <time>2019-08-06T07:50:52Z</time>
      </trkpt>
      <trkpt lat="44.90698" lon="0.51784">
        <ele>176.507</ele>
        <time>2019-08-06T07:50:56Z</time>
      </trkpt>
      <trkpt lat="44.90693" lon="0.51782">
        <ele>176.649</ele>
        <time>2019-08-06T07:51:00Z</time>
      </trkpt>
      <trkpt lat="44.90688" lon="0.51783">
        <ele>176.791</ele>
        <time>2019-08-06T07:51:04Z</time>
      </trkpt>
      <trkpt lat="44.90686" lon="0.51784">
        <ele>176.895</ele>
        <time>2019-08-06T07:51:07Z</time>
      </trkpt>
      <trkpt lat="44.90681" lon="0.51783">
        <ele>177.066</ele>
        <time>2019-08-06T07:51:12Z</time>
      </trkpt>
      <trkpt lat="44.90678" lon="0.51783">
        <ele>177.134</ele>
        <time>2019-08-06T07:51:14Z</time>
      </trkpt>
      <trkpt lat="44.90675" lon="0.51783">
        <ele>177.235</ele>
        <time>2019-08-06T07:51:17Z</time>
      </trkpt>
      <trkpt lat="44.90673" lon="0.51781">
        <ele>177.437</ele>
        <time>2019-08-06T07:51:25Z</time>
      </trkpt>
      <trkpt lat="44.90665" lon="0.51788">
        <ele>181.228</ele>
        <time>2019-08-06T07:54:55Z</time>
      </trkpt>
      <trkpt lat="44.9067" lon="0.51799">
        <ele>181.717</ele>
        <time>2019-08-06T07:55:06Z</time>
      </trkpt>
      <trkpt lat="44.90673" lon="0.51803">
        <ele>181.912</ele>
        <time>2019-08-06T07:55:09Z</time>
      </trkpt>
      <trkpt lat="44.90677" lon="0.51807">
        <ele>182.232</ele>
        <time>2019-08-06T07:55:14Z</time>
      </trkpt>
      <trkpt lat="44.90681" lon="0.51811">
        <ele>182.479</ele>
        <time>2019-08-06T07:55:18Z</time>
      </trkpt>
      <trkpt lat="44.90684" lon="0.51816">
        <ele>182.721</ele>
        <time>2019-08-06T07:55:22Z</time>
      </trkpt>
      <trkpt lat="44.90686" lon="0.5182">
        <ele>182.9</ele>
        <time>2019-08-06T07:55:25Z</time>
      </trkpt>
      <trkpt lat="44.90688" lon="0.51822">
        <ele>183.017</ele>
        <time>2019-08-06T07:55:27Z</time>
      </trkpt>
      <trkpt lat="44.90692" lon="0.51828">
        <ele>183.306</ele>
        <time>2019-08-06T07:55:32Z</time>
      </trkpt>
      <trkpt lat="44.90695" lon="0.51832">
        <ele>183.474</ele>
        <time>2019-08-06T07:55:35Z</time>
      </trkpt>
      <trkpt lat="44.90698" lon="0.51836">
        <ele>183.641</ele>
        <time>2019-08-06T07:55:38Z</time>
      </trkpt>
      <trkpt lat="44.90701" lon="0.51842">
        <ele>183.806</ele>
        <time>2019-08-06T07:55:41Z</time>
      </trkpt>
      <trkpt lat="44.90703" lon="0.51846">
        <ele>183.916</ele>
        <time>2019-08-06T07:55:43Z</time>
      </trkpt>
      <trkpt lat="44.90707" lon="0.51852">
        <ele>184.131</ele>
        <time>2019-08-06T07:55:47Z</time>
      </trkpt>
      <trkpt lat="44.9071" lon="0.51858">
        <ele>184.343</ele>
        <time>2019-08-06T07:55:51Z</time>
      </trkpt>
      <trkpt lat="44.90712" lon="0.51862">
        <ele>184.447</ele>
        <time>2019-08-06T07:55:53Z</time>
      </trkpt>
      <trkpt lat="44.90715" lon="0.51868">
        <ele>184.65</ele>
        <time>2019-08-06T07:55:57Z</time>
      </trkpt>
      <trkpt lat="44.90717" lon="0.51872">
        <ele>184.796</ele>
        <time>2019-08-06T07:56:00Z</time>
      </trkpt>
      <trkpt lat="44.90719" lon="0.51876">
        <ele>184.892</ele>
        <time>2019-08-06T07:56:02Z</time>
      </trkpt>
      <trkpt lat="44.9072" lon="0.51879">
        <ele>184.985</ele>
        <time>2019-08-06T07:56:04Z</time>
      </trkpt>
      <trkpt lat="44.90722" lon="0.51883">
        <ele>185.078</ele>
        <time>2019-08-06T07:56:06Z</time>
      </trkpt>
      <trkpt lat="44.90725" lon="0.51888">
        <ele>185.215</ele>
        <time>2019-08-06T07:56:09Z</time>
      </trkpt>
      <trkpt lat="44.90729" lon="0.51893">
        <ele>185.35</ele>
        <time>2019-08-06T07:56:12Z</time>
      </trkpt>
      <trkpt lat="44.90732" lon="0.51897">
        <ele>185.483</ele>
        <time>2019-08-06T07:56:15Z</time>
      </trkpt>
      <trkpt lat="44.90734" lon="0.51899">
        <ele>185.57</ele>
        <time>2019-08-06T07:56:17Z</time>
      </trkpt>
      <trkpt lat="44.90738" lon="0.51905">
        <ele>185.742</ele>
        <time>2019-08-06T07:56:21Z</time>
      </trkpt>
      <trkpt lat="44.9074" lon="0.5191">
        <ele>185.869</ele>
        <time>2019-08-06T07:56:24Z</time>
      </trkpt>
      <trkpt lat="44.90744" lon="0.51915">
        <ele>185.996</ele>
        <time>2019-08-06T07:56:27Z</time>
      </trkpt>
      <trkpt lat="44.90747" lon="0.51918">
        <ele>186.12</ele>
        <time>2019-08-06T07:56:30Z</time>
      </trkpt>
      <trkpt lat="44.90751" lon="0.51924">
        <ele>186.282</ele>
        <time>2019-08-06T07:56:34Z</time>
      </trkpt>
      <trkpt lat="44.90753" lon="0.51926">
        <ele>186.362</ele>
        <time>2019-08-06T07:56:36Z</time>
      </trkpt>
      <trkpt lat="44.90757" lon="0.51933">
        <ele>186.518</ele>
        <time>2019-08-06T07:56:40Z</time>
      </trkpt>
      <trkpt lat="44.90761" lon="0.51938">
        <ele>186.669</ele>
        <time>2019-08-06T07:56:44Z</time>
      </trkpt>
      <trkpt lat="44.90763" lon="0.51941">
        <ele>186.742</ele>
        <time>2019-08-06T07:56:46Z</time>
      </trkpt>
      <trkpt lat="44.90766" lon="0.51946">
        <ele>186.884</ele>
        <time>2019-08-06T07:56:50Z</time>
      </trkpt>
      <trkpt lat="44.9077" lon="0.51951">
        <ele>186.987</ele>
        <time>2019-08-06T07:56:53Z</time>
      </trkpt>
      <trkpt lat="44.90772" lon="0.51953">
        <ele>187.054</ele>
        <time>2019-08-06T07:56:55Z</time>
      </trkpt>
      <trkpt lat="44.90775" lon="0.51959">
        <ele>187.153</ele>
        <time>2019-08-06T07:56:58Z</time>
      </trkpt>
      <trkpt lat="44.90776" lon="0.51962">
        <ele>187.218</ele>
        <time>2019-08-06T07:57:00Z</time>
      </trkpt>
      <trkpt lat="44.90778" lon="0.5197">
        <ele>187.347</ele>
        <time>2019-08-06T07:57:04Z</time>
      </trkpt>
      <trkpt lat="44.90777" lon="0.51978">
        <ele>187.438</ele>
        <time>2019-08-06T07:57:07Z</time>
      </trkpt>
      <trkpt lat="44.90776" lon="0.51985">
        <ele>187.524</ele>
        <time>2019-08-06T07:57:10Z</time>
      </trkpt>
      <trkpt lat="44.90775" lon="0.51989">
        <ele>187.578</ele>
        <time>2019-08-06T07:57:12Z</time>
      </trkpt>
      <trkpt lat="44.90773" lon="0.51995">
        <ele>187.68</ele>
        <time>2019-08-06T07:57:16Z</time>
      </trkpt>
      <trkpt lat="44.90772" lon="0.52003">
        <ele>187.821</ele>
        <time>2019-08-06T07:57:22Z</time>
      </trkpt>
      <trkpt lat="44.9077" lon="0.52008">
        <ele>187.904</ele>
        <time>2019-08-06T07:57:26Z</time>
      </trkpt>
      <trkpt lat="44.90768" lon="0.52013">
        <ele>187.962</ele>
        <time>2019-08-06T07:57:29Z</time>
      </trkpt>
      <trkpt lat="44.90766" lon="0.52016">
        <ele>188</ele>
        <time>2019-08-06T07:57:31Z</time>
      </trkpt>
      <trkpt lat="44.90765" lon="0.5202">
        <ele>188.036</ele>
        <time>2019-08-06T07:57:33Z</time>
      </trkpt>
      <trkpt lat="44.90763" lon="0.52024">
        <ele>188.088</ele>
        <time>2019-08-06T07:57:36Z</time>
      </trkpt>
      <trkpt lat="44.90759" lon="0.5203">
        <ele>188.154</ele>
        <time>2019-08-06T07:57:40Z</time>
      </trkpt>
      <trkpt lat="44.90756" lon="0.52039">
        <ele>188.202</ele>
        <time>2019-08-06T07:57:43Z</time>
      </trkpt>
      <trkpt lat="44.90754" lon="0.52046">
        <ele>188.25</ele>
        <time>2019-08-06T07:57:46Z</time>
      </trkpt>
      <trkpt lat="44.90754" lon="0.52053">
        <ele>188.337</ele>
        <time>2019-08-06T07:57:51Z</time>
      </trkpt>
      <trkpt lat="44.90756" lon="0.5206">
        <ele>188.409</ele>
        <time>2019-08-06T07:57:55Z</time>
      </trkpt>
      <trkpt lat="44.9076" lon="0.52066">
        <ele>188.484</ele>
        <time>2019-08-06T07:57:59Z</time>
      </trkpt>
      <trkpt lat="44.90762" lon="0.52068">
        <ele>188.523</ele>
        <time>2019-08-06T07:58:01Z</time>
      </trkpt>
      <trkpt lat="44.90764" lon="0.52071">
        <ele>188.562</ele>
        <time>2019-08-06T07:58:03Z</time>
      </trkpt>
      <trkpt lat="44.90767" lon="0.52074">
        <ele>188.621</ele>
        <time>2019-08-06T07:58:06Z</time>
      </trkpt>
      <trkpt lat="44.90771" lon="0.52081">
        <ele>188.7</ele>
        <time>2019-08-06T07:58:10Z</time>
      </trkpt>
      <trkpt lat="44.90775" lon="0.52087">
        <ele>188.778</ele>
        <time>2019-08-06T07:58:14Z</time>
      </trkpt>
      <trkpt lat="44.90778" lon="0.5209">
        <ele>188.816</ele>
        <time>2019-08-06T07:58:16Z</time>
      </trkpt>
      <trkpt lat="44.90782" lon="0.52095">
        <ele>188.891</ele>
        <time>2019-08-06T07:58:20Z</time>
      </trkpt>
      <trkpt lat="44.90784" lon="0.52097">
        <ele>188.929</ele>
        <time>2019-08-06T07:58:22Z</time>
      </trkpt>
      <trkpt lat="44.90786" lon="0.521">
        <ele>188.967</ele>
        <time>2019-08-06T07:58:24Z</time>
      </trkpt>
      <trkpt lat="44.90789" lon="0.52103">
        <ele>189.005</ele>
        <time>2019-08-06T07:58:26Z</time>
      </trkpt>
      <trkpt lat="44.90794" lon="0.52106">
        <ele>189.083</ele>
        <time>2019-08-06T07:58:30Z</time>
      </trkpt>
      <trkpt lat="44.90796" lon="0.52107">
        <ele>189.122</ele>
        <time>2019-08-06T07:58:32Z</time>
      </trkpt>
      <trkpt lat="44.90799" lon="0.52108">
        <ele>189.16</ele>
        <time>2019-08-06T07:58:34Z</time>
      </trkpt>
      <trkpt lat="44.90802" lon="0.52109">
        <ele>189.197</ele>
        <time>2019-08-06T07:58:36Z</time>
      </trkpt>
      <trkpt lat="44.90805" lon="0.52111">
        <ele>189.234</ele>
        <time>2019-08-06T07:58:38Z</time>
      </trkpt>
      <trkpt lat="44.90808" lon="0.52112">
        <ele>189.269</ele>
        <time>2019-08-06T07:58:40Z</time>
      </trkpt>
      <trkpt lat="44.90812" lon="0.52116">
        <ele>189.354</ele>
        <time>2019-08-06T07:58:45Z</time>
      </trkpt>
      <trkpt lat="44.90816" lon="0.52119">
        <ele>189.418</ele>
        <time>2019-08-06T07:58:49Z</time>
      </trkpt>
      <trkpt lat="44.90819" lon="0.5212">
        <ele>189.449</ele>
        <time>2019-08-06T07:58:51Z</time>
      </trkpt>
      <trkpt lat="44.90824" lon="0.52122">
        <ele>189.493</ele>
        <time>2019-08-06T07:58:54Z</time>
      </trkpt>
      <trkpt lat="44.90828" lon="0.52126">
        <ele>189.551</ele>
        <time>2019-08-06T07:58:58Z</time>
      </trkpt>
      <trkpt lat="44.9083" lon="0.52129">
        <ele>189.579</ele>
        <time>2019-08-06T07:59:00Z</time>
      </trkpt>
      <trkpt lat="44.90834" lon="0.52133">
        <ele>189.618</ele>
        <time>2019-08-06T07:59:03Z</time>
      </trkpt>
      <trkpt lat="44.90837" lon="0.52138">
        <ele>189.68</ele>
        <time>2019-08-06T07:59:08Z</time>
      </trkpt>
      <trkpt lat="44.9084" lon="0.52143">
        <ele>189.714</ele>
        <time>2019-08-06T07:59:11Z</time>
      </trkpt>
      <trkpt lat="44.90843" lon="0.52149">
        <ele>189.767</ele>
        <time>2019-08-06T07:59:16Z</time>
      </trkpt>
      <trkpt lat="44.90844" lon="0.52154">
        <ele>189.799</ele>
        <time>2019-08-06T07:59:19Z</time>
      </trkpt>
      <trkpt lat="44.90847" lon="0.52161">
        <ele>189.845</ele>
        <time>2019-08-06T07:59:23Z</time>
      </trkpt>
      <trkpt lat="44.90848" lon="0.52164">
        <ele>189.869</ele>
        <time>2019-08-06T07:59:25Z</time>
      </trkpt>
      <trkpt lat="44.90849" lon="0.52168">
        <ele>189.896</ele>
        <time>2019-08-06T07:59:27Z</time>
      </trkpt>
      <trkpt lat="44.90851" lon="0.52171">
        <ele>189.924</ele>
        <time>2019-08-06T07:59:29Z</time>
      </trkpt>
      <trkpt lat="44.90852" lon="0.52175">
        <ele>189.952</ele>
        <time>2019-08-06T07:59:31Z</time>
      </trkpt>
      <trkpt lat="44.90854" lon="0.52179">
        <ele>189.983</ele>
        <time>2019-08-06T07:59:33Z</time>
      </trkpt>
      <trkpt lat="44.90855" lon="0.52183">
        <ele>190.014</ele>
        <time>2019-08-06T07:59:35Z</time>
      </trkpt>
      <trkpt lat="44.90857" lon="0.52188">
        <ele>190.045</ele>
        <time>2019-08-06T07:59:37Z</time>
      </trkpt>
      <trkpt lat="44.9086" lon="0.52194">
        <ele>190.107</ele>
        <time>2019-08-06T07:59:41Z</time>
      </trkpt>
      <trkpt lat="44.90862" lon="0.52196">
        <ele>190.138</ele>
        <time>2019-08-06T07:59:43Z</time>
      </trkpt>
      <trkpt lat="44.90864" lon="0.522">
        <ele>190.183</ele>
        <time>2019-08-06T07:59:46Z</time>
      </trkpt>
      <trkpt lat="44.90867" lon="0.52206">
        <ele>190.24</ele>
        <time>2019-08-06T07:59:50Z</time>
      </trkpt>
      <trkpt lat="44.90869" lon="0.52211">
        <ele>190.291</ele>
        <time>2019-08-06T07:59:54Z</time>
      </trkpt>
      <trkpt lat="44.9087" lon="0.52215">
        <ele>190.312</ele>
        <time>2019-08-06T07:59:56Z</time>
      </trkpt>
      <trkpt lat="44.90873" lon="0.5222">
        <ele>190.339</ele>
        <time>2019-08-06T07:59:59Z</time>
      </trkpt>
      <trkpt lat="44.90876" lon="0.52225">
        <ele>190.361</ele>
        <time>2019-08-06T08:00:02Z</time>
      </trkpt>
      <trkpt lat="44.90878" lon="0.52231">
        <ele>190.376</ele>
        <time>2019-08-06T08:00:05Z</time>
      </trkpt>
      <trkpt lat="44.9088" lon="0.52238">
        <ele>190.389</ele>
        <time>2019-08-06T08:00:09Z</time>
      </trkpt>
      <trkpt lat="44.90881" lon="0.52242">
        <ele>190.392</ele>
        <time>2019-08-06T08:00:11Z</time>
      </trkpt>
      <trkpt lat="44.90884" lon="0.52247">
        <ele>190.395</ele>
        <time>2019-08-06T08:00:15Z</time>
      </trkpt>
      <trkpt lat="44.90886" lon="0.52251">
        <ele>190.397</ele>
        <time>2019-08-06T08:00:17Z</time>
      </trkpt>
      <trkpt lat="44.90887" lon="0.52255">
        <ele>190.398</ele>
        <time>2019-08-06T08:00:19Z</time>
      </trkpt>
      <trkpt lat="44.90888" lon="0.52258">
        <ele>190.398</ele>
        <time>2019-08-06T08:00:21Z</time>
      </trkpt>
      <trkpt lat="44.90889" lon="0.52262">
        <ele>190.397</ele>
        <time>2019-08-06T08:00:23Z</time>
      </trkpt>
      <trkpt lat="44.90891" lon="0.52266">
        <ele>190.395</ele>
        <time>2019-08-06T08:00:25Z</time>
      </trkpt>
      <trkpt lat="44.90892" lon="0.52271">
        <ele>190.393</ele>
        <time>2019-08-06T08:00:27Z</time>
      </trkpt>
      <trkpt lat="44.90892" lon="0.52274">
        <ele>190.391</ele>
        <time>2019-08-06T08:00:29Z</time>
      </trkpt>
      <trkpt lat="44.90893" lon="0.52279">
        <ele>190.389</ele>
        <time>2019-08-06T08:00:31Z</time>
      </trkpt>
      <trkpt lat="44.90894" lon="0.52282">
        <ele>190.387</ele>
        <time>2019-08-06T08:00:33Z</time>
      </trkpt>
      <trkpt lat="44.90895" lon="0.52287">
        <ele>190.386</ele>
        <time>2019-08-06T08:00:35Z</time>
      </trkpt>
      <trkpt lat="44.90895" lon="0.52292">
        <ele>190.388</ele>
        <time>2019-08-06T08:00:37Z</time>
      </trkpt>
      <trkpt lat="44.90896" lon="0.52295">
        <ele>190.392</ele>
        <time>2019-08-06T08:00:39Z</time>
      </trkpt>
      <trkpt lat="44.90899" lon="0.52301">
        <ele>190.409</ele>
        <time>2019-08-06T08:00:44Z</time>
      </trkpt>
      <trkpt lat="44.909" lon="0.52305">
        <ele>190.424</ele>
        <time>2019-08-06T08:00:47Z</time>
      </trkpt>
      <trkpt lat="44.90904" lon="0.52311">
        <ele>190.454</ele>
        <time>2019-08-06T08:00:52Z</time>
      </trkpt>
      <trkpt lat="44.90906" lon="0.52313">
        <ele>190.467</ele>
        <time>2019-08-06T08:00:54Z</time>
      </trkpt>
      <trkpt lat="44.90909" lon="0.5232">
        <ele>190.494</ele>
        <time>2019-08-06T08:00:58Z</time>
      </trkpt>
      <trkpt lat="44.90913" lon="0.52325">
        <ele>190.523</ele>
        <time>2019-08-06T08:01:02Z</time>
      </trkpt>
      <trkpt lat="44.90915" lon="0.52329">
        <ele>190.545</ele>
        <time>2019-08-06T08:01:05Z</time>
      </trkpt>
      <trkpt lat="44.90919" lon="0.52333">
        <ele>190.566</ele>
        <time>2019-08-06T08:01:08Z</time>
      </trkpt>
      <trkpt lat="44.90922" lon="0.52337">
        <ele>190.582</ele>
        <time>2019-08-06T08:01:11Z</time>
      </trkpt>
      <trkpt lat="44.90926" lon="0.52342">
        <ele>190.595</ele>
        <time>2019-08-06T08:01:14Z</time>
      </trkpt>
      <trkpt lat="44.90928" lon="0.52344">
        <ele>190.602</ele>
        <time>2019-08-06T08:01:16Z</time>
      </trkpt>
      <trkpt lat="44.90932" lon="0.52349">
        <ele>190.612</ele>
        <time>2019-08-06T08:01:20Z</time>
      </trkpt>
      <trkpt lat="44.90936" lon="0.52354">
        <ele>190.619</ele>
        <time>2019-08-06T08:01:24Z</time>
      </trkpt>
      <trkpt lat="44.90941" lon="0.52358">
        <ele>190.623</ele>
        <time>2019-08-06T08:01:28Z</time>
      </trkpt>
      <trkpt lat="44.90943" lon="0.5236">
        <ele>190.624</ele>
        <time>2019-08-06T08:01:30Z</time>
      </trkpt>
      <trkpt lat="44.90945" lon="0.52363">
        <ele>190.625</ele>
        <time>2019-08-06T08:01:32Z</time>
      </trkpt>
      <trkpt lat="44.90948" lon="0.52366">
        <ele>190.625</ele>
        <time>2019-08-06T08:01:34Z</time>
      </trkpt>
      <trkpt lat="44.9095" lon="0.52369">
        <ele>190.625</ele>
        <time>2019-08-06T08:01:36Z</time>
      </trkpt>
      <trkpt lat="44.90952" lon="0.52375">
        <ele>190.624</ele>
        <time>2019-08-06T08:01:39Z</time>
      </trkpt>
      <trkpt lat="44.90955" lon="0.5238">
        <ele>190.623</ele>
        <time>2019-08-06T08:01:42Z</time>
      </trkpt>
      <trkpt lat="44.90958" lon="0.52387">
        <ele>190.622</ele>
        <time>2019-08-06T08:01:48Z</time>
      </trkpt>
      <trkpt lat="44.90961" lon="0.52393">
        <ele>190.615</ele>
        <time>2019-08-06T08:01:52Z</time>
      </trkpt>
      <trkpt lat="44.90965" lon="0.52398">
        <ele>190.604</ele>
        <time>2019-08-06T08:01:56Z</time>
      </trkpt>
      <trkpt lat="44.90967" lon="0.52401">
        <ele>190.597</ele>
        <time>2019-08-06T08:01:58Z</time>
      </trkpt>
      <trkpt lat="44.90969" lon="0.52403">
        <ele>190.589</ele>
        <time>2019-08-06T08:02:00Z</time>
      </trkpt>
      <trkpt lat="44.90971" lon="0.52405">
        <ele>190.58</ele>
        <time>2019-08-06T08:02:02Z</time>
      </trkpt>
      <trkpt lat="44.90974" lon="0.52408">
        <ele>190.564</ele>
        <time>2019-08-06T08:02:06Z</time>
      </trkpt>
      <trkpt lat="44.90977" lon="0.52414">
        <ele>190.551</ele>
        <time>2019-08-06T08:02:10Z</time>
      </trkpt>
      <trkpt lat="44.90981" lon="0.5242">
        <ele>190.538</ele>
        <time>2019-08-06T08:02:14Z</time>
      </trkpt>
      <trkpt lat="44.90984" lon="0.52424">
        <ele>190.526</ele>
        <time>2019-08-06T08:02:17Z</time>
      </trkpt>
      <trkpt lat="44.90986" lon="0.52428">
        <ele>190.518</ele>
        <time>2019-08-06T08:02:19Z</time>
      </trkpt>
      <trkpt lat="44.9099" lon="0.52433">
        <ele>190.504</ele>
        <time>2019-08-06T08:02:22Z</time>
      </trkpt>
      <trkpt lat="44.90993" lon="0.52438">
        <ele>190.489</ele>
        <time>2019-08-06T08:02:25Z</time>
      </trkpt>
      <trkpt lat="44.90997" lon="0.52443">
        <ele>190.467</ele>
        <time>2019-08-06T08:02:29Z</time>
      </trkpt>
      <trkpt lat="44.90999" lon="0.52445">
        <ele>190.456</ele>
        <time>2019-08-06T08:02:31Z</time>
      </trkpt>
      <trkpt lat="44.91002" lon="0.52448">
        <ele>190.437</ele>
        <time>2019-08-06T08:02:34Z</time>
      </trkpt>
      <trkpt lat="44.91004" lon="0.52451">
        <ele>190.424</ele>
        <time>2019-08-06T08:02:36Z</time>
      </trkpt>
      <trkpt lat="44.91006" lon="0.52453">
        <ele>190.412</ele>
        <time>2019-08-06T08:02:38Z</time>
      </trkpt>
      <trkpt lat="44.91007" lon="0.52456">
        <ele>190.4</ele>
        <time>2019-08-06T08:02:40Z</time>
      </trkpt>
      <trkpt lat="44.9101" lon="0.52459">
        <ele>190.388</ele>
        <time>2019-08-06T08:02:42Z</time>
      </trkpt>
      <trkpt lat="44.91014" lon="0.52464">
        <ele>190.361</ele>
        <time>2019-08-06T08:02:46Z</time>
      </trkpt>
      <trkpt lat="44.91016" lon="0.52467">
        <ele>190.34</ele>
        <time>2019-08-06T08:02:49Z</time>
      </trkpt>
      <trkpt lat="44.91019" lon="0.5247">
        <ele>190.319</ele>
        <time>2019-08-06T08:02:52Z</time>
      </trkpt>
      <trkpt lat="44.91023" lon="0.52473">
        <ele>190.261</ele>
        <time>2019-08-06T08:03:00Z</time>
      </trkpt>
      <trkpt lat="44.91027" lon="0.52476">
        <ele>190.235</ele>
        <time>2019-08-06T08:03:04Z</time>
      </trkpt>
      <trkpt lat="44.91031" lon="0.52481">
        <ele>190.213</ele>
        <time>2019-08-06T08:03:08Z</time>
      </trkpt>
      <trkpt lat="44.91034" lon="0.52484">
        <ele>190.202</ele>
        <time>2019-08-06T08:03:10Z</time>
      </trkpt>
      <trkpt lat="44.91039" lon="0.52488">
        <ele>190.186</ele>
        <time>2019-08-06T08:03:13Z</time>
      </trkpt>
      <trkpt lat="44.91042" lon="0.52493">
        <ele>190.173</ele>
        <time>2019-08-06T08:03:16Z</time>
      </trkpt>
      <trkpt lat="44.91044" lon="0.52496">
        <ele>190.165</ele>
        <time>2019-08-06T08:03:18Z</time>
      </trkpt>
      <trkpt lat="44.91047" lon="0.52498">
        <ele>190.157</ele>
        <time>2019-08-06T08:03:20Z</time>
      </trkpt>
      <trkpt lat="44.9105" lon="0.52504">
        <ele>190.147</ele>
        <time>2019-08-06T08:03:23Z</time>
      </trkpt>
      <trkpt lat="44.91051" lon="0.52507">
        <ele>190.141</ele>
        <time>2019-08-06T08:03:25Z</time>
      </trkpt>
      <trkpt lat="44.91054" lon="0.52513">
        <ele>190.123</ele>
        <time>2019-08-06T08:03:31Z</time>
      </trkpt>
      <trkpt lat="44.91055" lon="0.52517">
        <ele>190.113</ele>
        <time>2019-08-06T08:03:34Z</time>
      </trkpt>
      <trkpt lat="44.91056" lon="0.5252">
        <ele>190.103</ele>
        <time>2019-08-06T08:03:37Z</time>
      </trkpt>
      <trkpt lat="44.91057" lon="0.52523">
        <ele>190.097</ele>
        <time>2019-08-06T08:03:39Z</time>
      </trkpt>
      <trkpt lat="44.91058" lon="0.52526">
        <ele>190.092</ele>
        <time>2019-08-06T08:03:41Z</time>
      </trkpt>
      <trkpt lat="44.9106" lon="0.52533">
        <ele>190.083</ele>
        <time>2019-08-06T08:03:45Z</time>
      </trkpt>
      <trkpt lat="44.91061" lon="0.5254">
        <ele>190.077</ele>
        <time>2019-08-06T08:03:49Z</time>
      </trkpt>
      <trkpt lat="44.91063" lon="0.52546">
        <ele>190.073</ele>
        <time>2019-08-06T08:03:53Z</time>
      </trkpt>
      <trkpt lat="44.91064" lon="0.52551">
        <ele>190.072</ele>
        <time>2019-08-06T08:03:56Z</time>
      </trkpt>
      <trkpt lat="44.91066" lon="0.52557">
        <ele>190.07</ele>
        <time>2019-08-06T08:04:00Z</time>
      </trkpt>
      <trkpt lat="44.9107" lon="0.52563">
        <ele>190.066</ele>
        <time>2019-08-06T08:04:04Z</time>
      </trkpt>
      <trkpt lat="44.91071" lon="0.52571">
        <ele>190.061</ele>
        <time>2019-08-06T08:04:09Z</time>
      </trkpt>
      <trkpt lat="44.91074" lon="0.52577">
        <ele>190.059</ele>
        <time>2019-08-06T08:04:13Z</time>
      </trkpt>
      <trkpt lat="44.91076" lon="0.5258">
        <ele>190.058</ele>
        <time>2019-08-06T08:04:15Z</time>
      </trkpt>
      <trkpt lat="44.91077" lon="0.52584">
        <ele>190.057</ele>
        <time>2019-08-06T08:04:17Z</time>
      </trkpt>
      <trkpt lat="44.9108" lon="0.52589">
        <ele>190.053</ele>
        <time>2019-08-06T08:04:20Z</time>
      </trkpt>
      <trkpt lat="44.91082" lon="0.52593">
        <ele>190.049</ele>
        <time>2019-08-06T08:04:22Z</time>
      </trkpt>
      <trkpt lat="44.91086" lon="0.52598">
        <ele>190.037</ele>
        <time>2019-08-06T08:04:26Z</time>
      </trkpt>
      <trkpt lat="44.91089" lon="0.52603">
        <ele>190.014</ele>
        <time>2019-08-06T08:04:31Z</time>
      </trkpt>
      <trkpt lat="44.91092" lon="0.5261">
        <ele>189.992</ele>
        <time>2019-08-06T08:04:35Z</time>
      </trkpt>
      <trkpt lat="44.91095" lon="0.52616">
        <ele>189.975</ele>
        <time>2019-08-06T08:04:38Z</time>
      </trkpt>
      <trkpt lat="44.91097" lon="0.52619">
        <ele>189.959</ele>
        <time>2019-08-06T08:04:41Z</time>
      </trkpt>
      <trkpt lat="44.91099" lon="0.52622">
        <ele>189.944</ele>
        <time>2019-08-06T08:04:44Z</time>
      </trkpt>
      <trkpt lat="44.91101" lon="0.52624">
        <ele>189.93</ele>
        <time>2019-08-06T08:04:47Z</time>
      </trkpt>
      <trkpt lat="44.91102" lon="0.52627">
        <ele>189.915</ele>
        <time>2019-08-06T08:04:50Z</time>
      </trkpt>
      <trkpt lat="44.91104" lon="0.5263">
        <ele>189.905</ele>
        <time>2019-08-06T08:04:52Z</time>
      </trkpt>
      <trkpt lat="44.91107" lon="0.52633">
        <ele>189.887</ele>
        <time>2019-08-06T08:04:55Z</time>
      </trkpt>
      <trkpt lat="44.91109" lon="0.52639">
        <ele>189.863</ele>
        <time>2019-08-06T08:04:59Z</time>
      </trkpt>
      <trkpt lat="44.91112" lon="0.52646">
        <ele>189.832</ele>
        <time>2019-08-06T08:05:04Z</time>
      </trkpt>
      <trkpt lat="44.91114" lon="0.5265">
        <ele>189.811</ele>
        <time>2019-08-06T08:05:07Z</time>
      </trkpt>
      <trkpt lat="44.91116" lon="0.52657">
        <ele>189.781</ele>
        <time>2019-08-06T08:05:11Z</time>
      </trkpt>
      <trkpt lat="44.91118" lon="0.52664">
        <ele>189.744</ele>
        <time>2019-08-06T08:05:15Z</time>
      </trkpt>
      <trkpt lat="44.91119" lon="0.52671">
        <ele>189.706</ele>
        <time>2019-08-06T08:05:19Z</time>
      </trkpt>
      <trkpt lat="44.91119" lon="0.52676">
        <ele>189.687</ele>
        <time>2019-08-06T08:05:21Z</time>
      </trkpt>
      <trkpt lat="44.9112" lon="0.5268">
        <ele>189.666</ele>
        <time>2019-08-06T08:05:23Z</time>
      </trkpt>
      <trkpt lat="44.9112" lon="0.52687">
        <ele>189.636</ele>
        <time>2019-08-06T08:05:26Z</time>
      </trkpt>
      <trkpt lat="44.9112" lon="0.52694">
        <ele>189.605</ele>
        <time>2019-08-06T08:05:29Z</time>
      </trkpt>
      <trkpt lat="44.91121" lon="0.527">
        <ele>189.55</ele>
        <time>2019-08-06T08:05:34Z</time>
      </trkpt>
      <trkpt lat="44.91122" lon="0.52707">
        <ele>189.517</ele>
        <time>2019-08-06T08:05:37Z</time>
      </trkpt>
      <trkpt lat="44.91123" lon="0.52712">
        <ele>189.474</ele>
        <time>2019-08-06T08:05:41Z</time>
      </trkpt>
      <trkpt lat="44.91123" lon="0.52717">
        <ele>189.442</ele>
        <time>2019-08-06T08:05:44Z</time>
      </trkpt>
      <trkpt lat="44.91123" lon="0.52721">
        <ele>189.42</ele>
        <time>2019-08-06T08:05:46Z</time>
      </trkpt>
      <trkpt lat="44.91126" lon="0.52728">
        <ele>189.372</ele>
        <time>2019-08-06T08:05:50Z</time>
      </trkpt>
      <trkpt lat="44.91127" lon="0.52736">
        <ele>189.331</ele>
        <time>2019-08-06T08:05:53Z</time>
      </trkpt>
      <trkpt lat="44.91128" lon="0.52741">
        <ele>189.304</ele>
        <time>2019-08-06T08:05:55Z</time>
      </trkpt>
      <trkpt lat="44.9113" lon="0.52748">
        <ele>189.248</ele>
        <time>2019-08-06T08:05:59Z</time>
      </trkpt>
      <trkpt lat="44.91131" lon="0.52751">
        <ele>189.219</ele>
        <time>2019-08-06T08:06:01Z</time>
      </trkpt>
      <trkpt lat="44.91134" lon="0.52757">
        <ele>189.157</ele>
        <time>2019-08-06T08:06:05Z</time>
      </trkpt>
      <trkpt lat="44.91138" lon="0.52763">
        <ele>189.107</ele>
        <time>2019-08-06T08:06:08Z</time>
      </trkpt>
      <trkpt lat="44.91139" lon="0.52766">
        <ele>189.072</ele>
        <time>2019-08-06T08:06:10Z</time>
      </trkpt>
      <trkpt lat="44.91141" lon="0.52769">
        <ele>189.036</ele>
        <time>2019-08-06T08:06:12Z</time>
      </trkpt>
      <trkpt lat="44.91143" lon="0.52774">
        <ele>188.979</ele>
        <time>2019-08-06T08:06:15Z</time>
      </trkpt>
      <trkpt lat="44.91145" lon="0.52781">
        <ele>188.922</ele>
        <time>2019-08-06T08:06:18Z</time>
      </trkpt>
      <trkpt lat="44.91146" lon="0.52784">
        <ele>188.885</ele>
        <time>2019-08-06T08:06:20Z</time>
      </trkpt>
      <trkpt lat="44.91147" lon="0.52787">
        <ele>188.848</ele>
        <time>2019-08-06T08:06:22Z</time>
      </trkpt>
      <trkpt lat="44.9115" lon="0.52794">
        <ele>188.773</ele>
        <time>2019-08-06T08:06:26Z</time>
      </trkpt>
      <trkpt lat="44.91154" lon="0.52804">
        <ele>188.657</ele>
        <time>2019-08-06T08:06:32Z</time>
      </trkpt>
      <trkpt lat="44.91156" lon="0.52808">
        <ele>188.617</ele>
        <time>2019-08-06T08:06:34Z</time>
      </trkpt>
      <trkpt lat="44.91158" lon="0.52814">
        <ele>188.535</ele>
        <time>2019-08-06T08:06:38Z</time>
      </trkpt>
      <trkpt lat="44.9116" lon="0.52818">
        <ele>188.494</ele>
        <time>2019-08-06T08:06:40Z</time>
      </trkpt>
      <trkpt lat="44.91161" lon="0.52821">
        <ele>188.451</ele>
        <time>2019-08-06T08:06:42Z</time>
      </trkpt>
      <trkpt lat="44.91161" lon="0.52828">
        <ele>188.362</ele>
        <time>2019-08-06T08:06:46Z</time>
      </trkpt>
      <trkpt lat="44.9116" lon="0.52836">
        <ele>188.272</ele>
        <time>2019-08-06T08:06:50Z</time>
      </trkpt>
      <trkpt lat="44.91159" lon="0.52841">
        <ele>188.227</ele>
        <time>2019-08-06T08:06:52Z</time>
      </trkpt>
      <trkpt lat="44.91159" lon="0.52847">
        <ele>188.18</ele>
        <time>2019-08-06T08:06:54Z</time>
      </trkpt>
      <trkpt lat="44.91158" lon="0.52852">
        <ele>188.133</ele>
        <time>2019-08-06T08:06:56Z</time>
      </trkpt>
      <trkpt lat="44.91155" lon="0.52859">
        <ele>188.034</ele>
        <time>2019-08-06T08:07:00Z</time>
      </trkpt>
      <trkpt lat="44.91153" lon="0.52862">
        <ele>187.954</ele>
        <time>2019-08-06T08:07:03Z</time>
      </trkpt>
      <trkpt lat="44.91152" lon="0.52869">
        <ele>187.842</ele>
        <time>2019-08-06T08:07:07Z</time>
      </trkpt>
      <trkpt lat="44.91151" lon="0.52873">
        <ele>187.785</ele>
        <time>2019-08-06T08:07:09Z</time>
      </trkpt>
      <trkpt lat="44.91151" lon="0.52876">
        <ele>187.73</ele>
        <time>2019-08-06T08:07:11Z</time>
      </trkpt>
      <trkpt lat="44.9115" lon="0.5288">
        <ele>187.674</ele>
        <time>2019-08-06T08:07:13Z</time>
      </trkpt>
      <trkpt lat="44.91149" lon="0.52887">
        <ele>187.589</ele>
        <time>2019-08-06T08:07:16Z</time>
      </trkpt>
      <trkpt lat="44.91148" lon="0.52891">
        <ele>187.467</ele>
        <time>2019-08-06T08:07:20Z</time>
      </trkpt>
      <trkpt lat="44.91144" lon="0.52895">
        <ele>187.292</ele>
        <time>2019-08-06T08:07:25Z</time>
      </trkpt>
      <trkpt lat="44.91142" lon="0.52898">
        <ele>187.181</ele>
        <time>2019-08-06T08:07:28Z</time>
      </trkpt>
      <trkpt lat="44.91139" lon="0.52905">
        <ele>186.944</ele>
        <time>2019-08-06T08:07:34Z</time>
      </trkpt>
      <trkpt lat="44.91138" lon="0.52908">
        <ele>186.817</ele>
        <time>2019-08-06T08:07:37Z</time>
      </trkpt>
      <trkpt lat="44.91137" lon="0.52912">
        <ele>186.733</ele>
        <time>2019-08-06T08:07:39Z</time>
      </trkpt>
      <trkpt lat="44.91136" lon="0.52915">
        <ele>186.649</ele>
        <time>2019-08-06T08:07:41Z</time>
      </trkpt>
      <trkpt lat="44.91133" lon="0.52921">
        <ele>186.405</ele>
        <time>2019-08-06T08:07:47Z</time>
      </trkpt>
      <trkpt lat="44.91131" lon="0.52929">
        <ele>186.247</ele>
        <time>2019-08-06T08:07:51Z</time>
      </trkpt>
      <trkpt lat="44.91131" lon="0.52937">
        <ele>186.093</ele>
        <time>2019-08-06T08:07:55Z</time>
      </trkpt>
      <trkpt lat="44.91131" lon="0.52946">
        <ele>185.975</ele>
        <time>2019-08-06T08:07:58Z</time>
      </trkpt>
      <trkpt lat="44.91129" lon="0.52953">
        <ele>185.856</ele>
        <time>2019-08-06T08:08:01Z</time>
      </trkpt>
      <trkpt lat="44.91126" lon="0.52958">
        <ele>185.731</ele>
        <time>2019-08-06T08:08:04Z</time>
      </trkpt>
      <trkpt lat="44.91124" lon="0.52961">
        <ele>185.603</ele>
        <time>2019-08-06T08:08:07Z</time>
      </trkpt>
      <trkpt lat="44.9112" lon="0.52964">
        <ele>185.389</ele>
        <time>2019-08-06T08:08:12Z</time>
      </trkpt>
      <trkpt lat="44.91118" lon="0.5297">
        <ele>185.218</ele>
        <time>2019-08-06T08:08:16Z</time>
      </trkpt>
      <trkpt lat="44.91116" lon="0.52975">
        <ele>185.051</ele>
        <time>2019-08-06T08:08:20Z</time>
      </trkpt>
      <trkpt lat="44.91111" lon="0.52978">
        <ele>184.852</ele>
        <time>2019-08-06T08:08:25Z</time>
      </trkpt>
      <trkpt lat="44.91106" lon="0.52978">
        <ele>184.664</ele>
        <time>2019-08-06T08:08:30Z</time>
      </trkpt>
      <trkpt lat="44.91099" lon="0.52983">
        <ele>184.519</ele>
        <time>2019-08-06T08:08:34Z</time>
      </trkpt>
      <trkpt lat="44.91095" lon="0.52987">
        <ele>184.379</ele>
        <time>2019-08-06T08:08:38Z</time>
      </trkpt>
      <trkpt lat="44.9109" lon="0.52988">
        <ele>184.176</ele>
        <time>2019-08-06T08:08:44Z</time>
      </trkpt>
      <trkpt lat="44.91087" lon="0.52994">
        <ele>184.008</ele>
        <time>2019-08-06T08:08:49Z</time>
      </trkpt>
      <trkpt lat="44.91081" lon="0.52994">
        <ele>183.908</ele>
        <time>2019-08-06T08:08:52Z</time>
      </trkpt>
      <trkpt lat="44.91076" lon="0.52992">
        <ele>183.808</ele>
        <time>2019-08-06T08:08:55Z</time>
      </trkpt>
      <trkpt lat="44.91071" lon="0.5299">
        <ele>183.71</ele>
        <time>2019-08-06T08:08:58Z</time>
      </trkpt>
      <trkpt lat="44.91068" lon="0.52989">
        <ele>183.645</ele>
        <time>2019-08-06T08:09:00Z</time>
      </trkpt>
      <trkpt lat="44.91063" lon="0.52989">
        <ele>183.513</ele>
        <time>2019-08-06T08:09:04Z</time>
      </trkpt>
      <trkpt lat="44.91058" lon="0.52991">
        <ele>183.414</ele>
        <time>2019-08-06T08:09:07Z</time>
      </trkpt>
      <trkpt lat="44.91054" lon="0.52993">
        <ele>183.284</ele>
        <time>2019-08-06T08:09:11Z</time>
      </trkpt>
      <trkpt lat="44.91049" lon="0.52994">
        <ele>183.123</ele>
        <time>2019-08-06T08:09:16Z</time>
      </trkpt>
      <trkpt lat="44.91045" lon="0.52994">
        <ele>182.999</ele>
        <time>2019-08-06T08:09:20Z</time>
      </trkpt>
      <trkpt lat="44.91042" lon="0.52994">
        <ele>182.91</ele>
        <time>2019-08-06T08:09:23Z</time>
      </trkpt>
      <trkpt lat="44.91037" lon="0.52992">
        <ele>182.796</ele>
        <time>2019-08-06T08:09:27Z</time>
      </trkpt>
      <trkpt lat="44.91032" lon="0.52989">
        <ele>182.687</ele>
        <time>2019-08-06T08:09:31Z</time>
      </trkpt>
      <trkpt lat="44.91028" lon="0.52987">
        <ele>182.608</ele>
        <time>2019-08-06T08:09:34Z</time>
      </trkpt>
      <trkpt lat="44.91026" lon="0.52986">
        <ele>182.558</ele>
        <time>2019-08-06T08:09:36Z</time>
      </trkpt>
      <trkpt lat="44.91022" lon="0.52984">
        <ele>182.484</ele>
        <time>2019-08-06T08:09:39Z</time>
      </trkpt>
      <trkpt lat="44.91018" lon="0.52981">
        <ele>182.359</ele>
        <time>2019-08-06T08:09:44Z</time>
      </trkpt>
      <trkpt lat="44.91015" lon="0.52979">
        <ele>182.284</ele>
        <time>2019-08-06T08:09:47Z</time>
      </trkpt>
      <trkpt lat="44.91012" lon="0.52973">
        <ele>182.116</ele>
        <time>2019-08-06T08:09:53Z</time>
      </trkpt>
      <trkpt lat="44.91008" lon="0.5297">
        <ele>181.956</ele>
        <time>2019-08-06T08:09:58Z</time>
      </trkpt>
      <trkpt lat="44.91003" lon="0.5297">
        <ele>181.778</ele>
        <time>2019-08-06T08:10:03Z</time>
      </trkpt>
      <trkpt lat="44.91" lon="0.52969">
        <ele>181.667</ele>
        <time>2019-08-06T08:10:06Z</time>
      </trkpt>
      <trkpt lat="44.90993" lon="0.5297">
        <ele>181.388</ele>
        <time>2019-08-06T08:10:13Z</time>
      </trkpt>
      <trkpt lat="44.9099" lon="0.52971">
        <ele>181.255</ele>
        <time>2019-08-06T08:10:16Z</time>
      </trkpt>
      <trkpt lat="44.90985" lon="0.52969">
        <ele>181.118</ele>
        <time>2019-08-06T08:10:19Z</time>
      </trkpt>
      <trkpt lat="44.9098" lon="0.52968">
        <ele>181.014</ele>
        <time>2019-08-06T08:10:22Z</time>
      </trkpt>
      <trkpt lat="44.9098" lon="0.52968">
        <ele>180.98</ele>
        <time>2019-08-06T08:10:28Z</time>
      </trkpt>
      <trkpt lat="44.90975" lon="0.52979">
        <ele>177.927</ele>
        <time>2019-08-06T08:11:20Z</time>
      </trkpt>
      <trkpt lat="44.90975" lon="0.52983">
        <ele>177.734</ele>
        <time>2019-08-06T08:11:22Z</time>
      </trkpt>
      <trkpt lat="44.90974" lon="0.52987">
        <ele>177.548</ele>
        <time>2019-08-06T08:11:24Z</time>
      </trkpt>
      <trkpt lat="44.90976" lon="0.52994">
        <ele>177.114</ele>
        <time>2019-08-06T08:11:29Z</time>
      </trkpt>
      <trkpt lat="44.90977" lon="0.52997">
        <ele>176.949</ele>
        <time>2019-08-06T08:11:31Z</time>
      </trkpt>
      <trkpt lat="44.90978" lon="0.53">
        <ele>176.788</ele>
        <time>2019-08-06T08:11:33Z</time>
      </trkpt>
      <trkpt lat="44.90979" lon="0.53005">
        <ele>176.546</ele>
        <time>2019-08-06T08:11:36Z</time>
      </trkpt>
      <trkpt lat="44.90981" lon="0.5301">
        <ele>176.229</ele>
        <time>2019-08-06T08:11:40Z</time>
      </trkpt>
      <trkpt lat="44.90981" lon="0.53017">
        <ele>175.921</ele>
        <time>2019-08-06T08:11:44Z</time>
      </trkpt>
      <trkpt lat="44.90984" lon="0.53023">
        <ele>175.619</ele>
        <time>2019-08-06T08:11:48Z</time>
      </trkpt>
      <trkpt lat="44.90987" lon="0.53028">
        <ele>175.327</ele>
        <time>2019-08-06T08:11:52Z</time>
      </trkpt>
      <trkpt lat="44.90988" lon="0.53036">
        <ele>175.041</ele>
        <time>2019-08-06T08:11:56Z</time>
      </trkpt>
      <trkpt lat="44.9099" lon="0.5304">
        <ele>174.898</ele>
        <time>2019-08-06T08:11:58Z</time>
      </trkpt>
      <trkpt lat="44.90993" lon="0.53047">
        <ele>174.618</ele>
        <time>2019-08-06T08:12:02Z</time>
      </trkpt>
      <trkpt lat="44.90996" lon="0.53053">
        <ele>174.345</ele>
        <time>2019-08-06T08:12:06Z</time>
      </trkpt>
      <trkpt lat="44.90999" lon="0.53059">
        <ele>174.076</ele>
        <time>2019-08-06T08:12:10Z</time>
      </trkpt>
      <trkpt lat="44.91001" lon="0.53066">
        <ele>173.753</ele>
        <time>2019-08-06T08:12:15Z</time>
      </trkpt>
      <trkpt lat="44.91003" lon="0.53074">
        <ele>173.496</ele>
        <time>2019-08-06T08:12:19Z</time>
      </trkpt>
      <trkpt lat="44.91006" lon="0.53079">
        <ele>173.245</ele>
        <time>2019-08-06T08:12:23Z</time>
      </trkpt>
      <trkpt lat="44.91007" lon="0.53082">
        <ele>173.12</ele>
        <time>2019-08-06T08:12:25Z</time>
      </trkpt>
      <trkpt lat="44.91009" lon="0.53087">
        <ele>172.934</ele>
        <time>2019-08-06T08:12:28Z</time>
      </trkpt>
      <trkpt lat="44.91012" lon="0.53094">
        <ele>172.69</ele>
        <time>2019-08-06T08:12:32Z</time>
      </trkpt>
      <trkpt lat="44.91014" lon="0.531">
        <ele>172.511</ele>
        <time>2019-08-06T08:12:35Z</time>
      </trkpt>
      <trkpt lat="44.91015" lon="0.53103">
        <ele>172.394</ele>
        <time>2019-08-06T08:12:37Z</time>
      </trkpt>
      <trkpt lat="44.91015" lon="0.53111">
        <ele>172.117</ele>
        <time>2019-08-06T08:12:42Z</time>
      </trkpt>
      <trkpt lat="44.91014" lon="0.53117">
        <ele>171.96</ele>
        <time>2019-08-06T08:12:45Z</time>
      </trkpt>
      <trkpt lat="44.91013" lon="0.53122">
        <ele>171.81</ele>
        <time>2019-08-06T08:12:48Z</time>
      </trkpt>
      <trkpt lat="44.91011" lon="0.53128">
        <ele>171.616</ele>
        <time>2019-08-06T08:12:52Z</time>
      </trkpt>
      <trkpt lat="44.91011" lon="0.53136">
        <ele>171.388</ele>
        <time>2019-08-06T08:12:57Z</time>
      </trkpt>
      <trkpt lat="44.91009" lon="0.53144">
        <ele>171.22</ele>
        <time>2019-08-06T08:13:01Z</time>
      </trkpt>
      <trkpt lat="44.91008" lon="0.5315">
        <ele>171.099</ele>
        <time>2019-08-06T08:13:04Z</time>
      </trkpt>
      <trkpt lat="44.91008" lon="0.53154">
        <ele>171.02</ele>
        <time>2019-08-06T08:13:06Z</time>
      </trkpt>
      <trkpt lat="44.91007" lon="0.53162">
        <ele>170.873</ele>
        <time>2019-08-06T08:13:10Z</time>
      </trkpt>
      <trkpt lat="44.91005" lon="0.53169">
        <ele>170.77</ele>
        <time>2019-08-06T08:13:13Z</time>
      </trkpt>
      <trkpt lat="44.91003" lon="0.53173">
        <ele>170.704</ele>
        <time>2019-08-06T08:13:15Z</time>
      </trkpt>
      <trkpt lat="44.91002" lon="0.5318">
        <ele>170.579</ele>
        <time>2019-08-06T08:13:19Z</time>
      </trkpt>
      <trkpt lat="44.91" lon="0.53186">
        <ele>170.489</ele>
        <time>2019-08-06T08:13:22Z</time>
      </trkpt>
      <trkpt lat="44.90999" lon="0.5319">
        <ele>170.431</ele>
        <time>2019-08-06T08:13:24Z</time>
      </trkpt>
      <trkpt lat="44.90998" lon="0.53193">
        <ele>170.374</ele>
        <time>2019-08-06T08:13:26Z</time>
      </trkpt>
      <trkpt lat="44.90997" lon="0.53197">
        <ele>170.319</ele>
        <time>2019-08-06T08:13:28Z</time>
      </trkpt>
      <trkpt lat="44.90997" lon="0.53201">
        <ele>170.238</ele>
        <time>2019-08-06T08:13:31Z</time>
      </trkpt>
      <trkpt lat="44.90994" lon="0.53208">
        <ele>170.106</ele>
        <time>2019-08-06T08:13:36Z</time>
      </trkpt>
      <trkpt lat="44.90993" lon="0.53214">
        <ele>170.032</ele>
        <time>2019-08-06T08:13:39Z</time>
      </trkpt>
      <trkpt lat="44.9099" lon="0.53222">
        <ele>169.94</ele>
        <time>2019-08-06T08:13:43Z</time>
      </trkpt>
      <trkpt lat="44.90989" lon="0.53226">
        <ele>169.897</ele>
        <time>2019-08-06T08:13:45Z</time>
      </trkpt>
      <trkpt lat="44.90988" lon="0.53231">
        <ele>169.856</ele>
        <time>2019-08-06T08:13:47Z</time>
      </trkpt>
      <trkpt lat="44.90986" lon="0.53238">
        <ele>169.794</ele>
        <time>2019-08-06T08:13:50Z</time>
      </trkpt>
      <trkpt lat="44.90983" lon="0.53243">
        <ele>169.709</ele>
        <time>2019-08-06T08:13:54Z</time>
      </trkpt>
      <trkpt lat="44.90981" lon="0.53248">
        <ele>169.646</ele>
        <time>2019-08-06T08:13:57Z</time>
      </trkpt>
      <trkpt lat="44.90979" lon="0.53251">
        <ele>169.583</ele>
        <time>2019-08-06T08:14:00Z</time>
      </trkpt>
      <trkpt lat="44.90977" lon="0.53255">
        <ele>169.523</ele>
        <time>2019-08-06T08:14:03Z</time>
      </trkpt>
      <trkpt lat="44.90976" lon="0.53259">
        <ele>169.487</ele>
        <time>2019-08-06T08:14:05Z</time>
      </trkpt>
      <trkpt lat="44.90973" lon="0.53265">
        <ele>169.415</ele>
        <time>2019-08-06T08:14:09Z</time>
      </trkpt>
      <trkpt lat="44.90971" lon="0.53268">
        <ele>169.379</ele>
        <time>2019-08-06T08:14:11Z</time>
      </trkpt>
      <trkpt lat="44.90969" lon="0.53275">
        <ele>169.31</ele>
        <time>2019-08-06T08:14:15Z</time>
      </trkpt>
      <trkpt lat="44.90966" lon="0.53281">
        <ele>169.243</ele>
        <time>2019-08-06T08:14:19Z</time>
      </trkpt>
      <trkpt lat="44.90964" lon="0.53288">
        <ele>169.179</ele>
        <time>2019-08-06T08:14:23Z</time>
      </trkpt>
      <trkpt lat="44.90963" lon="0.53292">
        <ele>169.149</ele>
        <time>2019-08-06T08:14:25Z</time>
      </trkpt>
      <trkpt lat="44.90961" lon="0.53295">
        <ele>169.122</ele>
        <time>2019-08-06T08:14:27Z</time>
      </trkpt>
      <trkpt lat="44.9096" lon="0.53299">
        <ele>169.096</ele>
        <time>2019-08-06T08:14:29Z</time>
      </trkpt>
      <trkpt lat="44.90956" lon="0.53304">
        <ele>169.039</ele>
        <time>2019-08-06T08:14:34Z</time>
      </trkpt>
      <trkpt lat="44.90954" lon="0.53309">
        <ele>168.998</ele>
        <time>2019-08-06T08:14:38Z</time>
      </trkpt>
      <trkpt lat="44.90951" lon="0.53315">
        <ele>168.959</ele>
        <time>2019-08-06T08:14:42Z</time>
      </trkpt>
      <trkpt lat="44.90949" lon="0.53323">
        <ele>168.925</ele>
        <time>2019-08-06T08:14:46Z</time>
      </trkpt>
      <trkpt lat="44.90948" lon="0.53326">
        <ele>168.91</ele>
        <time>2019-08-06T08:14:48Z</time>
      </trkpt>
      <trkpt lat="44.90946" lon="0.53333">
        <ele>168.886</ele>
        <time>2019-08-06T08:14:52Z</time>
      </trkpt>
      <trkpt lat="44.90944" lon="0.53339">
        <ele>168.868</ele>
        <time>2019-08-06T08:14:56Z</time>
      </trkpt>
      <trkpt lat="44.90944" lon="0.53342">
        <ele>168.862</ele>
        <time>2019-08-06T08:14:58Z</time>
      </trkpt>
      <trkpt lat="44.90942" lon="0.5335">
        <ele>168.856</ele>
        <time>2019-08-06T08:15:02Z</time>
      </trkpt>
      <trkpt lat="44.9094" lon="0.53358">
        <ele>168.855</ele>
        <time>2019-08-06T08:15:07Z</time>
      </trkpt>
      <trkpt lat="44.90939" lon="0.53365">
        <ele>168.863</ele>
        <time>2019-08-06T08:15:11Z</time>
      </trkpt>
      <trkpt lat="44.90938" lon="0.53369">
        <ele>168.873</ele>
        <time>2019-08-06T08:15:14Z</time>
      </trkpt>
      <trkpt lat="44.90934" lon="0.53372">
        <ele>168.89</ele>
        <time>2019-08-06T08:15:18Z</time>
      </trkpt>
      <trkpt lat="44.90924" lon="0.5337">
        <ele>168.905</ele>
        <time>2019-08-06T08:15:23Z</time>
      </trkpt>
      <trkpt lat="44.90921" lon="0.53369">
        <ele>168.908</ele>
        <time>2019-08-06T08:15:27Z</time>
      </trkpt>
      <trkpt lat="44.90917" lon="0.53372">
        <ele>168.919</ele>
        <time>2019-08-06T08:15:34Z</time>
      </trkpt>
      <trkpt lat="44.90914" lon="0.53372">
        <ele>168.931</ele>
        <time>2019-08-06T08:15:37Z</time>
      </trkpt>
      <trkpt lat="44.90909" lon="0.53374">
        <ele>168.959</ele>
        <time>2019-08-06T08:15:41Z</time>
      </trkpt>
      <trkpt lat="44.90906" lon="0.53375">
        <ele>168.983</ele>
        <time>2019-08-06T08:15:44Z</time>
      </trkpt>
      <trkpt lat="44.90904" lon="0.53375">
        <ele>169.012</ele>
        <time>2019-08-06T08:15:47Z</time>
      </trkpt>
      <trkpt lat="44.909" lon="0.53377">
        <ele>169.058</ele>
        <time>2019-08-06T08:15:51Z</time>
      </trkpt>
      <trkpt lat="44.90897" lon="0.53379">
        <ele>169.084</ele>
        <time>2019-08-06T08:15:53Z</time>
      </trkpt>
      <trkpt lat="44.90892" lon="0.53382">
        <ele>169.152</ele>
        <time>2019-08-06T08:15:58Z</time>
      </trkpt>
      <trkpt lat="44.90889" lon="0.53387">
        <ele>169.2</ele>
        <time>2019-08-06T08:16:01Z</time>
      </trkpt>
      <trkpt lat="44.90887" lon="0.5339">
        <ele>169.235</ele>
        <time>2019-08-06T08:16:03Z</time>
      </trkpt>
      <trkpt lat="44.90884" lon="0.53393">
        <ele>169.272</ele>
        <time>2019-08-06T08:16:05Z</time>
      </trkpt>
      <trkpt lat="44.90881" lon="0.53398">
        <ele>169.33</ele>
        <time>2019-08-06T08:16:08Z</time>
      </trkpt>
      <trkpt lat="44.90879" lon="0.53401">
        <ele>169.37</ele>
        <time>2019-08-06T08:16:10Z</time>
      </trkpt>
      <trkpt lat="44.90877" lon="0.53407">
        <ele>169.432</ele>
        <time>2019-08-06T08:16:13Z</time>
      </trkpt>
      <trkpt lat="44.90875" lon="0.53411">
        <ele>169.475</ele>
        <time>2019-08-06T08:16:15Z</time>
      </trkpt>
      <trkpt lat="44.90873" lon="0.53415">
        <ele>169.519</ele>
        <time>2019-08-06T08:16:17Z</time>
      </trkpt>
      <trkpt lat="44.90872" lon="0.53418">
        <ele>169.563</ele>
        <time>2019-08-06T08:16:19Z</time>
      </trkpt>
      <trkpt lat="44.90869" lon="0.53423">
        <ele>169.629</ele>
        <time>2019-08-06T08:16:22Z</time>
      </trkpt>
      <trkpt lat="44.90867" lon="0.53426">
        <ele>169.672</ele>
        <time>2019-08-06T08:16:24Z</time>
      </trkpt>
      <trkpt lat="44.90865" lon="0.53429">
        <ele>169.717</ele>
        <time>2019-08-06T08:16:26Z</time>
      </trkpt>
      <trkpt lat="44.90861" lon="0.53434">
        <ele>169.828</ele>
        <time>2019-08-06T08:16:31Z</time>
      </trkpt>
      <trkpt lat="44.90859" lon="0.53436">
        <ele>169.874</ele>
        <time>2019-08-06T08:16:33Z</time>
      </trkpt>
      <trkpt lat="44.90857" lon="0.53439">
        <ele>169.92</ele>
        <time>2019-08-06T08:16:35Z</time>
      </trkpt>
      <trkpt lat="44.90855" lon="0.53441">
        <ele>169.966</ele>
        <time>2019-08-06T08:16:37Z</time>
      </trkpt>
      <trkpt lat="44.90851" lon="0.53446">
        <ele>170.056</ele>
        <time>2019-08-06T08:16:41Z</time>
      </trkpt>
      <trkpt lat="44.90847" lon="0.53452">
        <ele>170.165</ele>
        <time>2019-08-06T08:16:46Z</time>
      </trkpt>
      <trkpt lat="44.90845" lon="0.53454">
        <ele>170.211</ele>
        <time>2019-08-06T08:16:48Z</time>
      </trkpt>
      <trkpt lat="44.90842" lon="0.53459">
        <ele>170.329</ele>
        <time>2019-08-06T08:16:53Z</time>
      </trkpt>
      <trkpt lat="44.90839" lon="0.53464">
        <ele>170.424</ele>
        <time>2019-08-06T08:16:57Z</time>
      </trkpt>
      <trkpt lat="44.90835" lon="0.53468">
        <ele>170.541</ele>
        <time>2019-08-06T08:17:02Z</time>
      </trkpt>
      <trkpt lat="44.90832" lon="0.53471">
        <ele>170.608</ele>
        <time>2019-08-06T08:17:05Z</time>
      </trkpt>
      <trkpt lat="44.90828" lon="0.53475">
        <ele>170.649</ele>
        <time>2019-08-06T08:17:07Z</time>
      </trkpt>
      <trkpt lat="44.90826" lon="0.53477">
        <ele>170.668</ele>
        <time>2019-08-06T08:17:08Z</time>
      </trkpt>
      <trkpt lat="44.90823" lon="0.5348">
        <ele>170.704</ele>
        <time>2019-08-06T08:17:10Z</time>
      </trkpt>
      <trkpt lat="44.90819" lon="0.53485">
        <ele>170.755</ele>
        <time>2019-08-06T08:17:13Z</time>
      </trkpt>
      <trkpt lat="44.90816" lon="0.53492">
        <ele>170.804</ele>
        <time>2019-08-06T08:17:16Z</time>
      </trkpt>
      <trkpt lat="44.90814" lon="0.53496">
        <ele>170.851</ele>
        <time>2019-08-06T08:17:19Z</time>
      </trkpt>
      <trkpt lat="44.90812" lon="0.53503">
        <ele>170.926</ele>
        <time>2019-08-06T08:17:24Z</time>
      </trkpt>
      <trkpt lat="44.90811" lon="0.53511">
        <ele>170.986</ele>
        <time>2019-08-06T08:17:28Z</time>
      </trkpt>
      <trkpt lat="44.90811" lon="0.53516">
        <ele>171.033</ele>
        <time>2019-08-06T08:17:31Z</time>
      </trkpt>
      <trkpt lat="44.90811" lon="0.5352">
        <ele>171.065</ele>
        <time>2019-08-06T08:17:33Z</time>
      </trkpt>
      <trkpt lat="44.90811" lon="0.53523">
        <ele>171.097</ele>
        <time>2019-08-06T08:17:35Z</time>
      </trkpt>
      <trkpt lat="44.90811" lon="0.53527">
        <ele>171.146</ele>
        <time>2019-08-06T08:17:38Z</time>
      </trkpt>
      <trkpt lat="44.90812" lon="0.53534">
        <ele>171.212</ele>
        <time>2019-08-06T08:17:42Z</time>
      </trkpt>
      <trkpt lat="44.90812" lon="0.53538">
        <ele>171.246</ele>
        <time>2019-08-06T08:17:44Z</time>
      </trkpt>
      <trkpt lat="44.90811" lon="0.53545">
        <ele>171.345</ele>
        <time>2019-08-06T08:17:50Z</time>
      </trkpt>
      <trkpt lat="44.90811" lon="0.53549">
        <ele>171.409</ele>
        <time>2019-08-06T08:17:54Z</time>
      </trkpt>
      <trkpt lat="44.9081" lon="0.53556">
        <ele>171.472</ele>
        <time>2019-08-06T08:17:58Z</time>
      </trkpt>
      <trkpt lat="44.90809" lon="0.53559">
        <ele>171.503</ele>
        <time>2019-08-06T08:18:00Z</time>
      </trkpt>
      <trkpt lat="44.90809" lon="0.53566">
        <ele>171.564</ele>
        <time>2019-08-06T08:18:04Z</time>
      </trkpt>
      <trkpt lat="44.90809" lon="0.5357">
        <ele>171.607</ele>
        <time>2019-08-06T08:18:07Z</time>
      </trkpt>
      <trkpt lat="44.90808" lon="0.53575">
        <ele>171.647</ele>
        <time>2019-08-06T08:18:10Z</time>
      </trkpt>
      <trkpt lat="44.90807" lon="0.53582">
        <ele>171.699</ele>
        <time>2019-08-06T08:18:14Z</time>
      </trkpt>
      <trkpt lat="44.90802" lon="0.53585">
        <ele>171.761</ele>
        <time>2019-08-06T08:18:19Z</time>
      </trkpt>
      <trkpt lat="44.90798" lon="0.53584">
        <ele>171.819</ele>
        <time>2019-08-06T08:18:24Z</time>
      </trkpt>
      <trkpt lat="44.90792" lon="0.53584">
        <ele>171.886</ele>
        <time>2019-08-06T08:18:30Z</time>
      </trkpt>
      <trkpt lat="44.90789" lon="0.53584">
        <ele>171.941</ele>
        <time>2019-08-06T08:18:35Z</time>
      </trkpt>
      <trkpt lat="44.90783" lon="0.53583">
        <ele>171.983</ele>
        <time>2019-08-06T08:18:39Z</time>
      </trkpt>
      <trkpt lat="44.90778" lon="0.53584">
        <ele>172.012</ele>
        <time>2019-08-06T08:18:42Z</time>
      </trkpt>
      <trkpt lat="44.90773" lon="0.53583">
        <ele>172.049</ele>
        <time>2019-08-06T08:18:46Z</time>
      </trkpt>
      <trkpt lat="44.90768" lon="0.53584">
        <ele>172.095</ele>
        <time>2019-08-06T08:18:51Z</time>
      </trkpt>
      <trkpt lat="44.90763" lon="0.53586">
        <ele>172.14</ele>
        <time>2019-08-06T08:18:56Z</time>
      </trkpt>
      <trkpt lat="44.90757" lon="0.53586">
        <ele>172.178</ele>
        <time>2019-08-06T08:19:00Z</time>
      </trkpt>
      <trkpt lat="44.90752" lon="0.53586">
        <ele>172.224</ele>
        <time>2019-08-06T08:19:05Z</time>
      </trkpt>
      <trkpt lat="44.90747" lon="0.53587">
        <ele>172.25</ele>
        <time>2019-08-06T08:19:08Z</time>
      </trkpt>
      <trkpt lat="44.90741" lon="0.53587">
        <ele>172.275</ele>
        <time>2019-08-06T08:19:11Z</time>
      </trkpt>
      <trkpt lat="44.90735" lon="0.53588">
        <ele>172.309</ele>
        <time>2019-08-06T08:19:15Z</time>
      </trkpt>
      <trkpt lat="44.90731" lon="0.53593">
        <ele>172.356</ele>
        <time>2019-08-06T08:19:20Z</time>
      </trkpt>
      <trkpt lat="44.9073" lon="0.53601">
        <ele>172.423</ele>
        <time>2019-08-06T08:19:27Z</time>
      </trkpt>
      <trkpt lat="44.9073" lon="0.53605">
        <ele>172.442</ele>
        <time>2019-08-06T08:19:29Z</time>
      </trkpt>
      <trkpt lat="44.90729" lon="0.5361">
        <ele>172.47</ele>
        <time>2019-08-06T08:19:32Z</time>
      </trkpt>
      <trkpt lat="44.90729" lon="0.53614">
        <ele>172.499</ele>
        <time>2019-08-06T08:19:35Z</time>
      </trkpt>
      <trkpt lat="44.90727" lon="0.53622">
        <ele>172.526</ele>
        <time>2019-08-06T08:19:38Z</time>
      </trkpt>
      <trkpt lat="44.90727" lon="0.53625">
        <ele>172.543</ele>
        <time>2019-08-06T08:19:40Z</time>
      </trkpt>
      <trkpt lat="44.90724" lon="0.5363">
        <ele>172.588</ele>
        <time>2019-08-06T08:19:47Z</time>
      </trkpt>
      <trkpt lat="44.90724" lon="0.53637">
        <ele>172.635</ele>
        <time>2019-08-06T08:19:54Z</time>
      </trkpt>
      <trkpt lat="44.90723" lon="0.53644">
        <ele>172.66</ele>
        <time>2019-08-06T08:19:58Z</time>
      </trkpt>
      <trkpt lat="44.90723" lon="0.53649">
        <ele>172.686</ele>
        <time>2019-08-06T08:20:02Z</time>
      </trkpt>
      <trkpt lat="44.90723" lon="0.53657">
        <ele>172.715</ele>
        <time>2019-08-06T08:20:06Z</time>
      </trkpt>
      <trkpt lat="44.90722" lon="0.53664">
        <ele>172.745</ele>
        <time>2019-08-06T08:20:10Z</time>
      </trkpt>
      <trkpt lat="44.90721" lon="0.53671">
        <ele>172.776</ele>
        <time>2019-08-06T08:20:14Z</time>
      </trkpt>
      <trkpt lat="44.9072" lon="0.53678">
        <ele>172.804</ele>
        <time>2019-08-06T08:20:18Z</time>
      </trkpt>
      <trkpt lat="44.90721" lon="0.53687">
        <ele>172.829</ele>
        <time>2019-08-06T08:20:22Z</time>
      </trkpt>
      <trkpt lat="44.90721" lon="0.53692">
        <ele>172.87</ele>
        <time>2019-08-06T08:20:28Z</time>
      </trkpt>
      <trkpt lat="44.90718" lon="0.53702">
        <ele>172.894</ele>
        <time>2019-08-06T08:20:32Z</time>
      </trkpt>
      <trkpt lat="44.90717" lon="0.53707">
        <ele>172.903</ele>
        <time>2019-08-06T08:20:34Z</time>
      </trkpt>
      <trkpt lat="44.90717" lon="0.53713">
        <ele>172.928</ele>
        <time>2019-08-06T08:20:39Z</time>
      </trkpt>
      <trkpt lat="44.90716" lon="0.53722">
        <ele>172.963</ele>
        <time>2019-08-06T08:20:45Z</time>
      </trkpt>
      <trkpt lat="44.90716" lon="0.53731">
        <ele>173.003</ele>
        <time>2019-08-06T08:20:51Z</time>
      </trkpt>
      <trkpt lat="44.90708" lon="0.53734">
        <ele>173.045</ele>
        <time>2019-08-06T08:20:57Z</time>
      </trkpt>
      <trkpt lat="44.90705" lon="0.53741">
        <ele>173.071</ele>
        <time>2019-08-06T08:21:01Z</time>
      </trkpt>
      <trkpt lat="44.90709" lon="0.53756">
        <ele>173.084</ele>
        <time>2019-08-06T08:21:04Z</time>
      </trkpt>
      <trkpt lat="44.9071" lon="0.53763">
        <ele>173.085</ele>
        <time>2019-08-06T08:21:06Z</time>
      </trkpt>
      <trkpt lat="44.9071" lon="0.53769">
        <ele>173.083</ele>
        <time>2019-08-06T08:21:07Z</time>
      </trkpt>
      <trkpt lat="44.9071" lon="0.53776">
        <ele>173.081</ele>
        <time>2019-08-06T08:21:08Z</time>
      </trkpt>
      <trkpt lat="44.9071" lon="0.53782">
        <ele>173.078</ele>
        <time>2019-08-06T08:21:09Z</time>
      </trkpt>
      <trkpt lat="44.90709" lon="0.53779">
        <ele>173.031</ele>
        <time>2019-08-06T08:21:17Z</time>
      </trkpt>
      <trkpt lat="44.90709" lon="0.53784">
        <ele>173.006</ele>
        <time>2019-08-06T08:21:20Z</time>
      </trkpt>
      <trkpt lat="44.90708" lon="0.53791">
        <ele>172.977</ele>
        <time>2019-08-06T08:21:23Z</time>
      </trkpt>
      <trkpt lat="44.90707" lon="0.53797">
        <ele>172.945</ele>
        <time>2019-08-06T08:21:26Z</time>
      </trkpt>
      <trkpt lat="44.90707" lon="0.53804">
        <ele>172.911</ele>
        <time>2019-08-06T08:21:29Z</time>
      </trkpt>
      <trkpt lat="44.90707" lon="0.53809">
        <ele>172.876</ele>
        <time>2019-08-06T08:21:32Z</time>
      </trkpt>
      <trkpt lat="44.90706" lon="0.53813">
        <ele>172.841</ele>
        <time>2019-08-06T08:21:35Z</time>
      </trkpt>
      <trkpt lat="44.90707" lon="0.53821">
        <ele>172.792</ele>
        <time>2019-08-06T08:21:39Z</time>
      </trkpt>
      <trkpt lat="44.90707" lon="0.53826">
        <ele>172.767</ele>
        <time>2019-08-06T08:21:41Z</time>
      </trkpt>
      <trkpt lat="44.90707" lon="0.53831">
        <ele>172.742</ele>
        <time>2019-08-06T08:21:43Z</time>
      </trkpt>
      <trkpt lat="44.90708" lon="0.53838">
        <ele>172.704</ele>
        <time>2019-08-06T08:21:46Z</time>
      </trkpt>
      <trkpt lat="44.90708" lon="0.53843">
        <ele>172.664</ele>
        <time>2019-08-06T08:21:49Z</time>
      </trkpt>
      <trkpt lat="44.9071" lon="0.5385">
        <ele>172.61</ele>
        <time>2019-08-06T08:21:53Z</time>
      </trkpt>
      <trkpt lat="44.90713" lon="0.53856">
        <ele>172.54</ele>
        <time>2019-08-06T08:21:58Z</time>
      </trkpt>
      <trkpt lat="44.90718" lon="0.53859">
        <ele>172.453</ele>
        <time>2019-08-06T08:22:03Z</time>
      </trkpt>
      <trkpt lat="44.90723" lon="0.5386">
        <ele>172.337</ele>
        <time>2019-08-06T08:22:08Z</time>
      </trkpt>
      <trkpt lat="44.90727" lon="0.53865">
        <ele>172.21</ele>
        <time>2019-08-06T08:22:13Z</time>
      </trkpt>
      <trkpt lat="44.90729" lon="0.53872">
        <ele>171.996</ele>
        <time>2019-08-06T08:22:21Z</time>
      </trkpt>
      <trkpt lat="44.90722" lon="0.53875">
        <ele>171.807</ele>
        <time>2019-08-06T08:22:29Z</time>
      </trkpt>
      <trkpt lat="44.90717" lon="0.53874">
        <ele>171.701</ele>
        <time>2019-08-06T08:22:34Z</time>
      </trkpt>
      <trkpt lat="44.90713" lon="0.53878">
        <ele>171.607</ele>
        <time>2019-08-06T08:22:39Z</time>
      </trkpt>
      <trkpt lat="44.9071" lon="0.5388">
        <ele>171.553</ele>
        <time>2019-08-06T08:22:42Z</time>
      </trkpt>
      <trkpt lat="44.90706" lon="0.53882">
        <ele>171.475</ele>
        <time>2019-08-06T08:22:47Z</time>
      </trkpt>
      <trkpt lat="44.90698" lon="0.53877">
        <ele>171.29</ele>
        <time>2019-08-06T08:22:57Z</time>
      </trkpt>
      <trkpt lat="44.90691" lon="0.53873">
        <ele>171.192</ele>
        <time>2019-08-06T08:23:01Z</time>
      </trkpt>
      <trkpt lat="44.90689" lon="0.53871">
        <ele>171.166</ele>
        <time>2019-08-06T08:23:02Z</time>
      </trkpt>
      <trkpt lat="44.90685" lon="0.53869">
        <ele>171.064</ele>
        <time>2019-08-06T08:23:07Z</time>
      </trkpt>
      <trkpt lat="44.90682" lon="0.53864">
        <ele>170.905</ele>
        <time>2019-08-06T08:23:13Z</time>
      </trkpt>
      <trkpt lat="44.90678" lon="0.53861">
        <ele>170.825</ele>
        <time>2019-08-06T08:23:16Z</time>
      </trkpt>
      <trkpt lat="44.90673" lon="0.53858">
        <ele>170.749</ele>
        <time>2019-08-06T08:23:19Z</time>
      </trkpt>
      <trkpt lat="44.90667" lon="0.53857">
        <ele>170.676</ele>
        <time>2019-08-06T08:23:22Z</time>
      </trkpt>
      <trkpt lat="44.90662" lon="0.53858">
        <ele>170.566</ele>
        <time>2019-08-06T08:23:27Z</time>
      </trkpt>
      <trkpt lat="44.9066" lon="0.53859">
        <ele>170.482</ele>
        <time>2019-08-06T08:23:31Z</time>
      </trkpt>
      <trkpt lat="44.90657" lon="0.5386">
        <ele>170.437</ele>
        <time>2019-08-06T08:23:34Z</time>
      </trkpt>
      <trkpt lat="44.9065" lon="0.53858">
        <ele>170.299</ele>
        <time>2019-08-06T08:23:41Z</time>
      </trkpt>
      <trkpt lat="44.90648" lon="0.53857">
        <ele>170.277</ele>
        <time>2019-08-06T08:23:42Z</time>
      </trkpt>
      <trkpt lat="44.90644" lon="0.53855">
        <ele>170.187</ele>
        <time>2019-08-06T08:23:46Z</time>
      </trkpt>
      <trkpt lat="44.90639" lon="0.53855">
        <ele>170.067</ele>
        <time>2019-08-06T08:23:51Z</time>
      </trkpt>
      <trkpt lat="44.90635" lon="0.53855">
        <ele>169.994</ele>
        <time>2019-08-06T08:23:54Z</time>
      </trkpt>
      <trkpt lat="44.90624" lon="0.53852">
        <ele>169.92</ele>
        <time>2019-08-06T08:23:57Z</time>
      </trkpt>
      <trkpt lat="44.90621" lon="0.53848">
        <ele>169.872</ele>
        <time>2019-08-06T08:23:59Z</time>
      </trkpt>
      <trkpt lat="44.90617" lon="0.53846">
        <ele>169.849</ele>
        <time>2019-08-06T08:24:00Z</time>
      </trkpt>
      <trkpt lat="44.90613" lon="0.53842">
        <ele>169.8</ele>
        <time>2019-08-06T08:24:03Z</time>
      </trkpt>
      <trkpt lat="44.90609" lon="0.53839">
        <ele>169.711</ele>
        <time>2019-08-06T08:24:07Z</time>
      </trkpt>
      <trkpt lat="44.90604" lon="0.53837">
        <ele>169.613</ele>
        <time>2019-08-06T08:24:12Z</time>
      </trkpt>
      <trkpt lat="44.90599" lon="0.53833">
        <ele>169.56</ele>
        <time>2019-08-06T08:24:15Z</time>
      </trkpt>
      <trkpt lat="44.90596" lon="0.53831">
        <ele>169.489</ele>
        <time>2019-08-06T08:24:20Z</time>
      </trkpt>
      <trkpt lat="44.90591" lon="0.5383">
        <ele>169.454</ele>
        <time>2019-08-06T08:24:23Z</time>
      </trkpt>
      <trkpt lat="44.90588" lon="0.53829">
        <ele>169.423</ele>
        <time>2019-08-06T08:24:26Z</time>
      </trkpt>
      <trkpt lat="44.90583" lon="0.5383">
        <ele>169.368</ele>
        <time>2019-08-06T08:24:32Z</time>
      </trkpt>
      <trkpt lat="44.9058" lon="0.5383">
        <ele>169.34</ele>
        <time>2019-08-06T08:24:35Z</time>
      </trkpt>
      <trkpt lat="44.90576" lon="0.5383">
        <ele>169.302</ele>
        <time>2019-08-06T08:24:40Z</time>
      </trkpt>
      <trkpt lat="44.90573" lon="0.53829">
        <ele>169.287</ele>
        <time>2019-08-06T08:24:44Z</time>
      </trkpt>
      <trkpt lat="44.90568" lon="0.53828">
        <ele>169.268</ele>
        <time>2019-08-06T08:24:48Z</time>
      </trkpt>
      <trkpt lat="44.90564" lon="0.53828">
        <ele>169.249</ele>
        <time>2019-08-06T08:24:52Z</time>
      </trkpt>
      <trkpt lat="44.90559" lon="0.53826">
        <ele>169.239</ele>
        <time>2019-08-06T08:24:55Z</time>
      </trkpt>
      <trkpt lat="44.90554" lon="0.53824">
        <ele>169.234</ele>
        <time>2019-08-06T08:25:00Z</time>
      </trkpt>
      <trkpt lat="44.90549" lon="0.53821">
        <ele>169.233</ele>
        <time>2019-08-06T08:25:04Z</time>
      </trkpt>
      <trkpt lat="44.90544" lon="0.53819">
        <ele>169.243</ele>
        <time>2019-08-06T08:25:11Z</time>
      </trkpt>
      <trkpt lat="44.90538" lon="0.53816">
        <ele>169.26</ele>
        <time>2019-08-06T08:25:16Z</time>
      </trkpt>
      <trkpt lat="44.90534" lon="0.53815">
        <ele>169.274</ele>
        <time>2019-08-06T08:25:19Z</time>
      </trkpt>
      <trkpt lat="44.9053" lon="0.53813">
        <ele>169.28</ele>
        <time>2019-08-06T08:25:21Z</time>
      </trkpt>
      <trkpt lat="44.90525" lon="0.53811">
        <ele>169.298</ele>
        <time>2019-08-06T08:25:24Z</time>
      </trkpt>
      <trkpt lat="44.90521" lon="0.53811">
        <ele>169.339</ele>
        <time>2019-08-06T08:25:31Z</time>
      </trkpt>
      <trkpt lat="44.90516" lon="0.5381">
        <ele>169.369</ele>
        <time>2019-08-06T08:25:36Z</time>
      </trkpt>
      <trkpt lat="44.90513" lon="0.53809">
        <ele>169.387</ele>
        <time>2019-08-06T08:25:39Z</time>
      </trkpt>
      <trkpt lat="44.90508" lon="0.53806">
        <ele>169.41</ele>
        <time>2019-08-06T08:25:43Z</time>
      </trkpt>
      <trkpt lat="44.90503" lon="0.53804">
        <ele>169.429</ele>
        <time>2019-08-06T08:25:46Z</time>
      </trkpt>
      <trkpt lat="44.90498" lon="0.53802">
        <ele>169.449</ele>
        <time>2019-08-06T08:25:49Z</time>
      </trkpt>
      <trkpt lat="44.90495" lon="0.53798">
        <ele>169.512</ele>
        <time>2019-08-06T08:25:57Z</time>
      </trkpt>
      <trkpt lat="44.90492" lon="0.53796">
        <ele>169.549</ele>
        <time>2019-08-06T08:26:01Z</time>
      </trkpt>
      <trkpt lat="44.90487" lon="0.53794">
        <ele>169.595</ele>
        <time>2019-08-06T08:26:05Z</time>
      </trkpt>
      <trkpt lat="44.90481" lon="0.53794">
        <ele>169.636</ele>
        <time>2019-08-06T08:26:08Z</time>
      </trkpt>
      <trkpt lat="44.90479" lon="0.53793">
        <ele>169.651</ele>
        <time>2019-08-06T08:26:09Z</time>
      </trkpt>
      <trkpt lat="44.90476" lon="0.53793">
        <ele>169.712</ele>
        <time>2019-08-06T08:26:13Z</time>
      </trkpt>
      <trkpt lat="44.90471" lon="0.53793">
        <ele>169.792</ele>
        <time>2019-08-06T08:26:18Z</time>
      </trkpt>
      <trkpt lat="44.90466" lon="0.53791">
        <ele>169.844</ele>
        <time>2019-08-06T08:26:21Z</time>
      </trkpt>
      <trkpt lat="44.90464" lon="0.5379">
        <ele>169.898</ele>
        <time>2019-08-06T08:26:24Z</time>
      </trkpt>
      <trkpt lat="44.90461" lon="0.53789">
        <ele>169.987</ele>
        <time>2019-08-06T08:26:29Z</time>
      </trkpt>
      <trkpt lat="44.90458" lon="0.53788">
        <ele>170.038</ele>
        <time>2019-08-06T08:26:32Z</time>
      </trkpt>
      <trkpt lat="44.90453" lon="0.53787">
        <ele>170.145</ele>
        <time>2019-08-06T08:26:39Z</time>
      </trkpt>
      <trkpt lat="44.90448" lon="0.53785">
        <ele>170.207</ele>
        <time>2019-08-06T08:26:43Z</time>
      </trkpt>
      <trkpt lat="44.90444" lon="0.53784">
        <ele>170.299</ele>
        <time>2019-08-06T08:26:49Z</time>
      </trkpt>
      <trkpt lat="44.90441" lon="0.53784">
        <ele>170.376</ele>
        <time>2019-08-06T08:26:54Z</time>
      </trkpt>
      <trkpt lat="44.90438" lon="0.53783">
        <ele>170.438</ele>
        <time>2019-08-06T08:26:58Z</time>
      </trkpt>
      <trkpt lat="44.90434" lon="0.53779">
        <ele>170.488</ele>
        <time>2019-08-06T08:27:01Z</time>
      </trkpt>
      <trkpt lat="44.90429" lon="0.53776">
        <ele>170.541</ele>
        <time>2019-08-06T08:27:04Z</time>
      </trkpt>
      <trkpt lat="44.90426" lon="0.53774">
        <ele>170.558</ele>
        <time>2019-08-06T08:27:05Z</time>
      </trkpt>
      <trkpt lat="44.9042" lon="0.5377">
        <ele>170.596</ele>
        <time>2019-08-06T08:27:07Z</time>
      </trkpt>
      <trkpt lat="44.90416" lon="0.53767">
        <ele>170.676</ele>
        <time>2019-08-06T08:27:11Z</time>
      </trkpt>
      <trkpt lat="44.90411" lon="0.53764">
        <ele>170.781</ele>
        <time>2019-08-06T08:27:16Z</time>
      </trkpt>
      <trkpt lat="44.90408" lon="0.53762">
        <ele>170.846</ele>
        <time>2019-08-06T08:27:19Z</time>
      </trkpt>
      <trkpt lat="44.90403" lon="0.53759">
        <ele>170.918</ele>
        <time>2019-08-06T08:27:22Z</time>
      </trkpt>
      <trkpt lat="44.90398" lon="0.53757">
        <ele>171.048</ele>
        <time>2019-08-06T08:27:27Z</time>
      </trkpt>
      <trkpt lat="44.90395" lon="0.53756">
        <ele>171.101</ele>
        <time>2019-08-06T08:27:29Z</time>
      </trkpt>
      <trkpt lat="44.90391" lon="0.53754">
        <ele>171.234</ele>
        <time>2019-08-06T08:27:34Z</time>
      </trkpt>
      <trkpt lat="44.90387" lon="0.53751">
        <ele>171.376</ele>
        <time>2019-08-06T08:27:39Z</time>
      </trkpt>
      <trkpt lat="44.90383" lon="0.53749">
        <ele>171.437</ele>
        <time>2019-08-06T08:27:41Z</time>
      </trkpt>
      <trkpt lat="44.90378" lon="0.53744">
        <ele>171.535</ele>
        <time>2019-08-06T08:27:44Z</time>
      </trkpt>
      <trkpt lat="44.90373" lon="0.5374">
        <ele>171.667</ele>
        <time>2019-08-06T08:27:48Z</time>
      </trkpt>
      <trkpt lat="44.90371" lon="0.53738">
        <ele>171.732</ele>
        <time>2019-08-06T08:27:50Z</time>
      </trkpt>
      <trkpt lat="44.90367" lon="0.53735">
        <ele>171.867</ele>
        <time>2019-08-06T08:27:54Z</time>
      </trkpt>
      <trkpt lat="44.90363" lon="0.53732">
        <ele>172.081</ele>
        <time>2019-08-06T08:28:00Z</time>
      </trkpt>
      <trkpt lat="44.90356" lon="0.53729">
        <ele>172.229</ele>
        <time>2019-08-06T08:28:04Z</time>
      </trkpt>
      <trkpt lat="44.90351" lon="0.53728">
        <ele>172.383</ele>
        <time>2019-08-06T08:28:08Z</time>
      </trkpt>
      <trkpt lat="44.90348" lon="0.53727">
        <ele>172.462</ele>
        <time>2019-08-06T08:28:10Z</time>
      </trkpt>
      <trkpt lat="44.90348" lon="0.53727">
        <ele>172.462</ele>
        <time>2019-08-06T08:28:15Z</time>
      </trkpt>
      <trkpt lat="44.90348" lon="0.53727">
        <ele>172.462</ele>
        <time>2019-08-06T08:28:16Z</time>
      </trkpt>
      <trkpt lat="44.90353" lon="0.53725">
        <ele>172.831</ele>
        <time>2019-08-06T08:28:20Z</time>
      </trkpt>
      <trkpt lat="44.90359" lon="0.53728">
        <ele>173.036</ele>
        <time>2019-08-06T08:28:25Z</time>
      </trkpt>
      <trkpt lat="44.90363" lon="0.53731">
        <ele>173.201</ele>
        <time>2019-08-06T08:28:29Z</time>
      </trkpt>
      <trkpt lat="44.90367" lon="0.53733">
        <ele>173.325</ele>
        <time>2019-08-06T08:28:32Z</time>
      </trkpt>
      <trkpt lat="44.9037" lon="0.53735">
        <ele>173.405</ele>
        <time>2019-08-06T08:28:34Z</time>
      </trkpt>
      <trkpt lat="44.90373" lon="0.53736">
        <ele>173.523</ele>
        <time>2019-08-06T08:28:37Z</time>
      </trkpt>
      <trkpt lat="44.90377" lon="0.53738">
        <ele>173.676</ele>
        <time>2019-08-06T08:28:41Z</time>
      </trkpt>
      <trkpt lat="44.9038" lon="0.5374">
        <ele>173.75</ele>
        <time>2019-08-06T08:28:43Z</time>
      </trkpt>
      <trkpt lat="44.90383" lon="0.53741">
        <ele>173.822</ele>
        <time>2019-08-06T08:28:45Z</time>
      </trkpt>
      <trkpt lat="44.90385" lon="0.53742">
        <ele>173.892</ele>
        <time>2019-08-06T08:28:47Z</time>
      </trkpt>
      <trkpt lat="44.90387" lon="0.53743">
        <ele>173.958</ele>
        <time>2019-08-06T08:28:49Z</time>
      </trkpt>
      <trkpt lat="44.90392" lon="0.53746">
        <ele>174.049</ele>
        <time>2019-08-06T08:28:52Z</time>
      </trkpt>
      <trkpt lat="44.90394" lon="0.53748">
        <ele>174.106</ele>
        <time>2019-08-06T08:28:54Z</time>
      </trkpt>
      <trkpt lat="44.90398" lon="0.5375">
        <ele>174.163</ele>
        <time>2019-08-06T08:28:56Z</time>
      </trkpt>
      <trkpt lat="44.90398" lon="0.5375">
        <ele>174.163</ele>
        <time>2019-08-06T08:29:04Z</time>
      </trkpt>
      <trkpt lat="44.90398" lon="0.5375">
        <ele>174.163</ele>
        <time>2019-08-06T08:29:05Z</time>
      </trkpt>
      <trkpt lat="44.9039" lon="0.53745">
        <ele>174.75</ele>
        <time>2019-08-06T08:30:19Z</time>
      </trkpt>
      <trkpt lat="44.90385" lon="0.53745">
        <ele>174.842</ele>
        <time>2019-08-06T08:30:26Z</time>
      </trkpt>
      <trkpt lat="44.90381" lon="0.53742">
        <ele>174.881</ele>
        <time>2019-08-06T08:30:29Z</time>
      </trkpt>
      <trkpt lat="44.90377" lon="0.5374">
        <ele>174.909</ele>
        <time>2019-08-06T08:30:31Z</time>
      </trkpt>
      <trkpt lat="44.90373" lon="0.5374">
        <ele>174.966</ele>
        <time>2019-08-06T08:30:35Z</time>
      </trkpt>
      <trkpt lat="44.90367" lon="0.53738">
        <ele>175.029</ele>
        <time>2019-08-06T08:30:39Z</time>
      </trkpt>
      <trkpt lat="44.90361" lon="0.53732">
        <ele>175.081</ele>
        <time>2019-08-06T08:30:42Z</time>
      </trkpt>
      <trkpt lat="44.90356" lon="0.5373">
        <ele>175.138</ele>
        <time>2019-08-06T08:30:45Z</time>
      </trkpt>
      <trkpt lat="44.90354" lon="0.5373">
        <ele>175.199</ele>
        <time>2019-08-06T08:30:48Z</time>
      </trkpt>
      <trkpt lat="44.90349" lon="0.53728">
        <ele>175.262</ele>
        <time>2019-08-06T08:30:51Z</time>
      </trkpt>
      <trkpt lat="44.90345" lon="0.53723">
        <ele>175.305</ele>
        <time>2019-08-06T08:30:53Z</time>
      </trkpt>
      <trkpt lat="44.90343" lon="0.53721">
        <ele>175.327</ele>
        <time>2019-08-06T08:30:54Z</time>
      </trkpt>
      <trkpt lat="44.90339" lon="0.53716">
        <ele>175.397</ele>
        <time>2019-08-06T08:30:57Z</time>
      </trkpt>
      <trkpt lat="44.90335" lon="0.53713">
        <ele>175.521</ele>
        <time>2019-08-06T08:31:02Z</time>
      </trkpt>
      <trkpt lat="44.90331" lon="0.53709">
        <ele>175.628</ele>
        <time>2019-08-06T08:31:06Z</time>
      </trkpt>
      <trkpt lat="44.90326" lon="0.53704">
        <ele>175.709</ele>
        <time>2019-08-06T08:31:09Z</time>
      </trkpt>
      <trkpt lat="44.90321" lon="0.53699">
        <ele>175.788</ele>
        <time>2019-08-06T08:31:12Z</time>
      </trkpt>
      <trkpt lat="44.90318" lon="0.53696">
        <ele>175.839</ele>
        <time>2019-08-06T08:31:14Z</time>
      </trkpt>
      <trkpt lat="44.90316" lon="0.53694">
        <ele>175.89</ele>
        <time>2019-08-06T08:31:16Z</time>
      </trkpt>
      <trkpt lat="44.90313" lon="0.53691">
        <ele>175.966</ele>
        <time>2019-08-06T08:31:19Z</time>
      </trkpt>
      <trkpt lat="44.9031" lon="0.53687">
        <ele>176.044</ele>
        <time>2019-08-06T08:31:22Z</time>
      </trkpt>
      <trkpt lat="44.90303" lon="0.53683">
        <ele>176.127</ele>
        <time>2019-08-06T08:31:25Z</time>
      </trkpt>
      <trkpt lat="44.90301" lon="0.53677">
        <ele>176.183</ele>
        <time>2019-08-06T08:31:27Z</time>
      </trkpt>
      <trkpt lat="44.903" lon="0.53671">
        <ele>176.238</ele>
        <time>2019-08-06T08:31:29Z</time>
      </trkpt>
      <trkpt lat="44.90296" lon="0.53664">
        <ele>176.323</ele>
        <time>2019-08-06T08:31:32Z</time>
      </trkpt>
      <trkpt lat="44.90293" lon="0.5366">
        <ele>176.404</ele>
        <time>2019-08-06T08:31:35Z</time>
      </trkpt>
      <trkpt lat="44.9029" lon="0.53656">
        <ele>176.458</ele>
        <time>2019-08-06T08:31:37Z</time>
      </trkpt>
      <trkpt lat="44.90288" lon="0.53656">
        <ele>176.552</ele>
        <time>2019-08-06T08:31:44Z</time>
      </trkpt>
      <trkpt lat="44.90289" lon="0.53663">
        <ele>177.231</ele>
        <time>2019-08-06T08:33:47Z</time>
      </trkpt>
      <trkpt lat="44.90291" lon="0.5367">
        <ele>177.299</ele>
        <time>2019-08-06T08:33:50Z</time>
      </trkpt>
      <trkpt lat="44.9029" lon="0.53677">
        <ele>177.372</ele>
        <time>2019-08-06T08:33:53Z</time>
      </trkpt>
      <trkpt lat="44.9029" lon="0.53684">
        <ele>177.471</ele>
        <time>2019-08-06T08:33:57Z</time>
      </trkpt>
      <trkpt lat="44.90289" lon="0.53691">
        <ele>177.571</ele>
        <time>2019-08-06T08:34:01Z</time>
      </trkpt>
      <trkpt lat="44.90288" lon="0.53699">
        <ele>177.666</ele>
        <time>2019-08-06T08:34:05Z</time>
      </trkpt>
      <trkpt lat="44.90286" lon="0.53705">
        <ele>177.729</ele>
        <time>2019-08-06T08:34:08Z</time>
      </trkpt>
      <trkpt lat="44.90285" lon="0.53714">
        <ele>177.791</ele>
        <time>2019-08-06T08:34:11Z</time>
      </trkpt>
      <trkpt lat="44.90285" lon="0.53719">
        <ele>177.833</ele>
        <time>2019-08-06T08:34:13Z</time>
      </trkpt>
      <trkpt lat="44.90285" lon="0.53723">
        <ele>177.875</ele>
        <time>2019-08-06T08:34:15Z</time>
      </trkpt>
      <trkpt lat="44.90285" lon="0.53726">
        <ele>177.916</ele>
        <time>2019-08-06T08:34:17Z</time>
      </trkpt>
      <trkpt lat="44.90286" lon="0.53731">
        <ele>177.985</ele>
        <time>2019-08-06T08:34:24Z</time>
      </trkpt>
      <trkpt lat="44.90284" lon="0.53737">
        <ele>178.105</ele>
        <time>2019-08-06T08:34:32Z</time>
      </trkpt>
      <trkpt lat="44.90284" lon="0.53744">
        <ele>178.19</ele>
        <time>2019-08-06T08:34:37Z</time>
      </trkpt>
      <trkpt lat="44.90284" lon="0.53749">
        <ele>178.24</ele>
        <time>2019-08-06T08:34:40Z</time>
      </trkpt>
      <trkpt lat="44.90284" lon="0.53757">
        <ele>178.339</ele>
        <time>2019-08-06T08:34:46Z</time>
      </trkpt>
      <trkpt lat="44.90285" lon="0.53764">
        <ele>178.477</ele>
        <time>2019-08-06T08:34:54Z</time>
      </trkpt>
      <trkpt lat="44.90287" lon="0.53771">
        <ele>178.566</ele>
        <time>2019-08-06T08:34:59Z</time>
      </trkpt>
      <trkpt lat="44.90289" lon="0.53779">
        <ele>178.622</ele>
        <time>2019-08-06T08:35:02Z</time>
      </trkpt>
      <trkpt lat="44.90291" lon="0.53786">
        <ele>178.682</ele>
        <time>2019-08-06T08:35:05Z</time>
      </trkpt>
      <trkpt lat="44.90293" lon="0.53792">
        <ele>178.744</ele>
        <time>2019-08-06T08:35:08Z</time>
      </trkpt>
      <trkpt lat="44.90294" lon="0.53795">
        <ele>178.787</ele>
        <time>2019-08-06T08:35:10Z</time>
      </trkpt>
      <trkpt lat="44.90297" lon="0.53801">
        <ele>178.85</ele>
        <time>2019-08-06T08:35:13Z</time>
      </trkpt>
      <trkpt lat="44.90298" lon="0.53807">
        <ele>178.909</ele>
        <time>2019-08-06T08:35:16Z</time>
      </trkpt>
      <trkpt lat="44.903" lon="0.5381">
        <ele>178.947</ele>
        <time>2019-08-06T08:35:18Z</time>
      </trkpt>
      <trkpt lat="44.90301" lon="0.53817">
        <ele>179.004</ele>
        <time>2019-08-06T08:35:21Z</time>
      </trkpt>
      <trkpt lat="44.90302" lon="0.5382">
        <ele>179.06</ele>
        <time>2019-08-06T08:35:24Z</time>
      </trkpt>
      <trkpt lat="44.90305" lon="0.53826">
        <ele>179.136</ele>
        <time>2019-08-06T08:35:28Z</time>
      </trkpt>
      <trkpt lat="44.90306" lon="0.5383">
        <ele>179.175</ele>
        <time>2019-08-06T08:35:30Z</time>
      </trkpt>
      <trkpt lat="44.9031" lon="0.53836">
        <ele>179.231</ele>
        <time>2019-08-06T08:35:33Z</time>
      </trkpt>
      <trkpt lat="44.90311" lon="0.53839">
        <ele>179.269</ele>
        <time>2019-08-06T08:35:35Z</time>
      </trkpt>
      <trkpt lat="44.90313" lon="0.53845">
        <ele>179.343</ele>
        <time>2019-08-06T08:35:39Z</time>
      </trkpt>
      <trkpt lat="44.90316" lon="0.53851">
        <ele>179.416</ele>
        <time>2019-08-06T08:35:43Z</time>
      </trkpt>
      <trkpt lat="44.90318" lon="0.53854">
        <ele>179.452</ele>
        <time>2019-08-06T08:35:45Z</time>
      </trkpt>
      <trkpt lat="44.9032" lon="0.53857">
        <ele>179.488</ele>
        <time>2019-08-06T08:35:47Z</time>
      </trkpt>
      <trkpt lat="44.90319" lon="0.53863">
        <ele>179.559</ele>
        <time>2019-08-06T08:35:51Z</time>
      </trkpt>
      <trkpt lat="44.90321" lon="0.5387">
        <ele>179.628</ele>
        <time>2019-08-06T08:35:55Z</time>
      </trkpt>
      <trkpt lat="44.90324" lon="0.53876">
        <ele>179.697</ele>
        <time>2019-08-06T08:35:59Z</time>
      </trkpt>
      <trkpt lat="44.90325" lon="0.53882">
        <ele>179.77</ele>
        <time>2019-08-06T08:36:03Z</time>
      </trkpt>
      <trkpt lat="44.90326" lon="0.53886">
        <ele>179.807</ele>
        <time>2019-08-06T08:36:05Z</time>
      </trkpt>
      <trkpt lat="44.90327" lon="0.53892">
        <ele>179.863</ele>
        <time>2019-08-06T08:36:08Z</time>
      </trkpt>
      <trkpt lat="44.9033" lon="0.53897">
        <ele>179.941</ele>
        <time>2019-08-06T08:36:12Z</time>
      </trkpt>
      <trkpt lat="44.90331" lon="0.539">
        <ele>179.981</ele>
        <time>2019-08-06T08:36:14Z</time>
      </trkpt>
      <trkpt lat="44.90333" lon="0.53906">
        <ele>180.042</ele>
        <time>2019-08-06T08:36:17Z</time>
      </trkpt>
      <trkpt lat="44.90336" lon="0.53913">
        <ele>180.126</ele>
        <time>2019-08-06T08:36:21Z</time>
      </trkpt>
      <trkpt lat="44.90338" lon="0.53916">
        <ele>180.169</ele>
        <time>2019-08-06T08:36:23Z</time>
      </trkpt>
      <trkpt lat="44.9034" lon="0.53919">
        <ele>180.212</ele>
        <time>2019-08-06T08:36:25Z</time>
      </trkpt>
      <trkpt lat="44.90341" lon="0.53923">
        <ele>180.254</ele>
        <time>2019-08-06T08:36:27Z</time>
      </trkpt>
      <trkpt lat="44.90343" lon="0.53926">
        <ele>180.297</ele>
        <time>2019-08-06T08:36:29Z</time>
      </trkpt>
      <trkpt lat="44.90345" lon="0.53932">
        <ele>180.361</ele>
        <time>2019-08-06T08:36:32Z</time>
      </trkpt>
      <trkpt lat="44.90347" lon="0.53938">
        <ele>180.447</ele>
        <time>2019-08-06T08:36:36Z</time>
      </trkpt>
      <trkpt lat="44.90349" lon="0.53942">
        <ele>180.513</ele>
        <time>2019-08-06T08:36:39Z</time>
      </trkpt>
      <trkpt lat="44.90351" lon="0.53946">
        <ele>180.557</ele>
        <time>2019-08-06T08:36:41Z</time>
      </trkpt>
      <trkpt lat="44.90352" lon="0.53949">
        <ele>180.6</ele>
        <time>2019-08-06T08:36:43Z</time>
      </trkpt>
      <trkpt lat="44.90354" lon="0.53953">
        <ele>180.644</ele>
        <time>2019-08-06T08:36:45Z</time>
      </trkpt>
      <trkpt lat="44.90356" lon="0.53957">
        <ele>180.687</ele>
        <time>2019-08-06T08:36:47Z</time>
      </trkpt>
      <trkpt lat="44.90357" lon="0.53964">
        <ele>180.772</ele>
        <time>2019-08-06T08:36:51Z</time>
      </trkpt>
      <trkpt lat="44.9036" lon="0.53972">
        <ele>180.851</ele>
        <time>2019-08-06T08:36:55Z</time>
      </trkpt>
      <trkpt lat="44.90361" lon="0.53976">
        <ele>180.91</ele>
        <time>2019-08-06T08:36:58Z</time>
      </trkpt>
      <trkpt lat="44.90364" lon="0.53983">
        <ele>180.987</ele>
        <time>2019-08-06T08:37:02Z</time>
      </trkpt>
      <trkpt lat="44.90366" lon="0.5399">
        <ele>181.064</ele>
        <time>2019-08-06T08:37:06Z</time>
      </trkpt>
      <trkpt lat="44.90366" lon="0.53993">
        <ele>181.104</ele>
        <time>2019-08-06T08:37:08Z</time>
      </trkpt>
      <trkpt lat="44.90369" lon="0.54">
        <ele>181.187</ele>
        <time>2019-08-06T08:37:12Z</time>
      </trkpt>
      <trkpt lat="44.90371" lon="0.54008">
        <ele>181.27</ele>
        <time>2019-08-06T08:37:16Z</time>
      </trkpt>
      <trkpt lat="44.90372" lon="0.54014">
        <ele>181.333</ele>
        <time>2019-08-06T08:37:19Z</time>
      </trkpt>
      <trkpt lat="44.90372" lon="0.54018">
        <ele>181.373</ele>
        <time>2019-08-06T08:37:21Z</time>
      </trkpt>
      <trkpt lat="44.90373" lon="0.54022">
        <ele>181.412</ele>
        <time>2019-08-06T08:37:23Z</time>
      </trkpt>
      <trkpt lat="44.90374" lon="0.54028">
        <ele>181.469</ele>
        <time>2019-08-06T08:37:26Z</time>
      </trkpt>
      <trkpt lat="44.90376" lon="0.54034">
        <ele>181.547</ele>
        <time>2019-08-06T08:37:30Z</time>
      </trkpt>
      <trkpt lat="44.90378" lon="0.54041">
        <ele>181.624</ele>
        <time>2019-08-06T08:37:34Z</time>
      </trkpt>
      <trkpt lat="44.90378" lon="0.54046">
        <ele>181.662</ele>
        <time>2019-08-06T08:37:36Z</time>
      </trkpt>
      <trkpt lat="44.90379" lon="0.5405">
        <ele>181.7</ele>
        <time>2019-08-06T08:37:38Z</time>
      </trkpt>
      <trkpt lat="44.9038" lon="0.54053">
        <ele>181.756</ele>
        <time>2019-08-06T08:37:41Z</time>
      </trkpt>
      <trkpt lat="44.90381" lon="0.54057">
        <ele>181.811</ele>
        <time>2019-08-06T08:37:44Z</time>
      </trkpt>
      <trkpt lat="44.90382" lon="0.54065">
        <ele>181.856</ele>
        <time>2019-08-06T08:37:47Z</time>
      </trkpt>
      <trkpt lat="44.90381" lon="0.54072">
        <ele>181.896</ele>
        <time>2019-08-06T08:37:50Z</time>
      </trkpt>
      <trkpt lat="44.90382" lon="0.54078">
        <ele>181.931</ele>
        <time>2019-08-06T08:37:53Z</time>
      </trkpt>
      <trkpt lat="44.90383" lon="0.54084">
        <ele>181.96</ele>
        <time>2019-08-06T08:37:56Z</time>
      </trkpt>
      <trkpt lat="44.90384" lon="0.54087">
        <ele>181.978</ele>
        <time>2019-08-06T08:37:58Z</time>
      </trkpt>
      <trkpt lat="44.90385" lon="0.54092">
        <ele>182.02</ele>
        <time>2019-08-06T08:38:03Z</time>
      </trkpt>
      <trkpt lat="44.90387" lon="0.54098">
        <ele>182.057</ele>
        <time>2019-08-06T08:38:08Z</time>
      </trkpt>
      <trkpt lat="44.90387" lon="0.54106">
        <ele>182.083</ele>
        <time>2019-08-06T08:38:13Z</time>
      </trkpt>
      <trkpt lat="44.90386" lon="0.54113">
        <ele>182.088</ele>
        <time>2019-08-06T08:38:17Z</time>
      </trkpt>
      <trkpt lat="44.90387" lon="0.54121">
        <ele>182.087</ele>
        <time>2019-08-06T08:38:21Z</time>
      </trkpt>
      <trkpt lat="44.90388" lon="0.54121">
        <ele>182.094</ele>
        <time>2019-08-06T08:38:30Z</time>
      </trkpt>
      <trkpt lat="44.90388" lon="0.54128">
        <ele>182.098</ele>
        <time>2019-08-06T08:38:34Z</time>
      </trkpt>
      <trkpt lat="44.90388" lon="0.54133">
        <ele>182.099</ele>
        <time>2019-08-06T08:38:36Z</time>
      </trkpt>
      <trkpt lat="44.90389" lon="0.54137">
        <ele>182.097</ele>
        <time>2019-08-06T08:38:39Z</time>
      </trkpt>
      <trkpt lat="44.90388" lon="0.54144">
        <ele>182.088</ele>
        <time>2019-08-06T08:38:43Z</time>
      </trkpt>
      <trkpt lat="44.90386" lon="0.54152">
        <ele>182.077</ele>
        <time>2019-08-06T08:38:47Z</time>
      </trkpt>
      <trkpt lat="44.90386" lon="0.5416">
        <ele>182.065</ele>
        <time>2019-08-06T08:38:51Z</time>
      </trkpt>
      <trkpt lat="44.90387" lon="0.54163">
        <ele>182.058</ele>
        <time>2019-08-06T08:38:54Z</time>
      </trkpt>
      <trkpt lat="44.90386" lon="0.54169">
        <ele>182.055</ele>
        <time>2019-08-06T08:39:02Z</time>
      </trkpt>
      <trkpt lat="44.90385" lon="0.54176">
        <ele>182.054</ele>
        <time>2019-08-06T08:39:06Z</time>
      </trkpt>
      <trkpt lat="44.90383" lon="0.54183">
        <ele>182.055</ele>
        <time>2019-08-06T08:39:10Z</time>
      </trkpt>
      <trkpt lat="44.90382" lon="0.54187">
        <ele>182.054</ele>
        <time>2019-08-06T08:39:12Z</time>
      </trkpt>
      <trkpt lat="44.90381" lon="0.54194">
        <ele>182.047</ele>
        <time>2019-08-06T08:39:16Z</time>
      </trkpt>
      <trkpt lat="44.90382" lon="0.54203">
        <ele>182.042</ele>
        <time>2019-08-06T08:39:19Z</time>
      </trkpt>
      <trkpt lat="44.90382" lon="0.54208">
        <ele>182.034</ele>
        <time>2019-08-06T08:39:22Z</time>
      </trkpt>
      <trkpt lat="44.90381" lon="0.54215">
        <ele>182.017</ele>
        <time>2019-08-06T08:39:28Z</time>
      </trkpt>
      <trkpt lat="44.90381" lon="0.54223">
        <ele>182.007</ele>
        <time>2019-08-06T08:39:32Z</time>
      </trkpt>
      <trkpt lat="44.90383" lon="0.54229">
        <ele>182</ele>
        <time>2019-08-06T08:39:35Z</time>
      </trkpt>
      <trkpt lat="44.90384" lon="0.54234">
        <ele>181.992</ele>
        <time>2019-08-06T08:39:38Z</time>
      </trkpt>
      <trkpt lat="44.90384" lon="0.54238">
        <ele>181.987</ele>
        <time>2019-08-06T08:39:40Z</time>
      </trkpt>
      <trkpt lat="44.90384" lon="0.54245">
        <ele>181.981</ele>
        <time>2019-08-06T08:39:42Z</time>
      </trkpt>
      <trkpt lat="44.90384" lon="0.54252">
        <ele>181.97</ele>
        <time>2019-08-06T08:39:45Z</time>
      </trkpt>
      <trkpt lat="44.90384" lon="0.54256">
        <ele>181.962</ele>
        <time>2019-08-06T08:39:47Z</time>
      </trkpt>
      <trkpt lat="44.90385" lon="0.5426">
        <ele>181.948</ele>
        <time>2019-08-06T08:39:50Z</time>
      </trkpt>
      <trkpt lat="44.90388" lon="0.54266">
        <ele>181.926</ele>
        <time>2019-08-06T08:39:54Z</time>
      </trkpt>
      <trkpt lat="44.90392" lon="0.54272">
        <ele>181.91</ele>
        <time>2019-08-06T08:39:57Z</time>
      </trkpt>
      <trkpt lat="44.90394" lon="0.54275">
        <ele>181.9</ele>
        <time>2019-08-06T08:39:59Z</time>
      </trkpt>
      <trkpt lat="44.90397" lon="0.5428">
        <ele>181.88</ele>
        <time>2019-08-06T08:40:04Z</time>
      </trkpt>
      <trkpt lat="44.90401" lon="0.54284">
        <ele>181.855</ele>
        <time>2019-08-06T08:40:11Z</time>
      </trkpt>
      <trkpt lat="44.90404" lon="0.54289">
        <ele>181.841</ele>
        <time>2019-08-06T08:40:16Z</time>
      </trkpt>
      <trkpt lat="44.90407" lon="0.54295">
        <ele>181.832</ele>
        <time>2019-08-06T08:40:20Z</time>
      </trkpt>
      <trkpt lat="44.9041" lon="0.54301">
        <ele>181.824</ele>
        <time>2019-08-06T08:40:25Z</time>
      </trkpt>
      <trkpt lat="44.90415" lon="0.54309">
        <ele>181.821</ele>
        <time>2019-08-06T08:40:28Z</time>
      </trkpt>
      <trkpt lat="44.90418" lon="0.54313">
        <ele>181.816</ele>
        <time>2019-08-06T08:40:32Z</time>
      </trkpt>
      <trkpt lat="44.90421" lon="0.54319">
        <ele>181.813</ele>
        <time>2019-08-06T08:40:35Z</time>
      </trkpt>
      <trkpt lat="44.90423" lon="0.54322">
        <ele>181.81</ele>
        <time>2019-08-06T08:40:37Z</time>
      </trkpt>
      <trkpt lat="44.90425" lon="0.54328">
        <ele>181.805</ele>
        <time>2019-08-06T08:40:40Z</time>
      </trkpt>
      <trkpt lat="44.90429" lon="0.54332">
        <ele>181.8</ele>
        <time>2019-08-06T08:40:43Z</time>
      </trkpt>
      <trkpt lat="44.90431" lon="0.54335">
        <ele>181.799</ele>
        <time>2019-08-06T08:40:45Z</time>
      </trkpt>
      <trkpt lat="44.90433" lon="0.54341">
        <ele>181.797</ele>
        <time>2019-08-06T08:40:50Z</time>
      </trkpt>
      <trkpt lat="44.90436" lon="0.54348">
        <ele>181.791</ele>
        <time>2019-08-06T08:40:54Z</time>
      </trkpt>
      <trkpt lat="44.90438" lon="0.54351">
        <ele>181.787</ele>
        <time>2019-08-06T08:40:56Z</time>
      </trkpt>
      <trkpt lat="44.90441" lon="0.54355">
        <ele>181.781</ele>
        <time>2019-08-06T08:40:59Z</time>
      </trkpt>
      <trkpt lat="44.90443" lon="0.54364">
        <ele>181.771</ele>
        <time>2019-08-06T08:41:03Z</time>
      </trkpt>
      <trkpt lat="44.90445" lon="0.54369">
        <ele>181.754</ele>
        <time>2019-08-06T08:41:07Z</time>
      </trkpt>
      <trkpt lat="44.90446" lon="0.54372">
        <ele>181.737</ele>
        <time>2019-08-06T08:41:10Z</time>
      </trkpt>
      <trkpt lat="44.90448" lon="0.54378">
        <ele>181.722</ele>
        <time>2019-08-06T08:41:13Z</time>
      </trkpt>
      <trkpt lat="44.9045" lon="0.54386">
        <ele>181.707</ele>
        <time>2019-08-06T08:41:16Z</time>
      </trkpt>
      <trkpt lat="44.90452" lon="0.54393">
        <ele>181.69</ele>
        <time>2019-08-06T08:41:19Z</time>
      </trkpt>
      <trkpt lat="44.90452" lon="0.54397">
        <ele>181.682</ele>
        <time>2019-08-06T08:41:20Z</time>
      </trkpt>
      <trkpt lat="44.90453" lon="0.54402">
        <ele>181.665</ele>
        <time>2019-08-06T08:41:22Z</time>
      </trkpt>
      <trkpt lat="44.90454" lon="0.54407">
        <ele>181.644</ele>
        <time>2019-08-06T08:41:24Z</time>
      </trkpt>
      <trkpt lat="44.90455" lon="0.54413">
        <ele>181.607</ele>
        <time>2019-08-06T08:41:27Z</time>
      </trkpt>
      <trkpt lat="44.90456" lon="0.54416">
        <ele>181.58</ele>
        <time>2019-08-06T08:41:29Z</time>
      </trkpt>
      <trkpt lat="44.90459" lon="0.54422">
        <ele>181.522</ele>
        <time>2019-08-06T08:41:33Z</time>
      </trkpt>
      <trkpt lat="44.90461" lon="0.54425">
        <ele>181.49</ele>
        <time>2019-08-06T08:41:35Z</time>
      </trkpt>
      <trkpt lat="44.90464" lon="0.54431">
        <ele>181.42</ele>
        <time>2019-08-06T08:41:39Z</time>
      </trkpt>
      <trkpt lat="44.90466" lon="0.54434">
        <ele>181.382</ele>
        <time>2019-08-06T08:41:41Z</time>
      </trkpt>
      <trkpt lat="44.9047" lon="0.5444">
        <ele>181.304</ele>
        <time>2019-08-06T08:41:45Z</time>
      </trkpt>
      <trkpt lat="44.90471" lon="0.54442">
        <ele>181.263</ele>
        <time>2019-08-06T08:41:47Z</time>
      </trkpt>
      <trkpt lat="44.90473" lon="0.54445">
        <ele>181.22</ele>
        <time>2019-08-06T08:41:49Z</time>
      </trkpt>
      <trkpt lat="44.90475" lon="0.54447">
        <ele>181.175</ele>
        <time>2019-08-06T08:41:51Z</time>
      </trkpt>
      <trkpt lat="44.90477" lon="0.54451">
        <ele>181.128</ele>
        <time>2019-08-06T08:41:53Z</time>
      </trkpt>
      <trkpt lat="44.90481" lon="0.54456">
        <ele>181.028</ele>
        <time>2019-08-06T08:41:57Z</time>
      </trkpt>
      <trkpt lat="44.90484" lon="0.5446">
        <ele>180.949</ele>
        <time>2019-08-06T08:42:00Z</time>
      </trkpt>
      <trkpt lat="44.90487" lon="0.54462">
        <ele>180.897</ele>
        <time>2019-08-06T08:42:02Z</time>
      </trkpt>
      <trkpt lat="44.90492" lon="0.54464">
        <ele>180.746</ele>
        <time>2019-08-06T08:42:08Z</time>
      </trkpt>
      <trkpt lat="44.90495" lon="0.54469">
        <ele>180.608</ele>
        <time>2019-08-06T08:42:14Z</time>
      </trkpt>
      <trkpt lat="44.90498" lon="0.54475">
        <ele>180.503</ele>
        <time>2019-08-06T08:42:19Z</time>
      </trkpt>
      <trkpt lat="44.905" lon="0.54478">
        <ele>180.462</ele>
        <time>2019-08-06T08:42:21Z</time>
      </trkpt>
      <trkpt lat="44.90501" lon="0.54481">
        <ele>180.404</ele>
        <time>2019-08-06T08:42:24Z</time>
      </trkpt>
      <trkpt lat="44.90502" lon="0.54484">
        <ele>180.348</ele>
        <time>2019-08-06T08:42:27Z</time>
      </trkpt>
      <trkpt lat="44.90506" lon="0.54489">
        <ele>180.213</ele>
        <time>2019-08-06T08:42:35Z</time>
      </trkpt>
      <trkpt lat="44.90509" lon="0.54495">
        <ele>180.111</ele>
        <time>2019-08-06T08:42:42Z</time>
      </trkpt>
      <trkpt lat="44.9051" lon="0.54503">
        <ele>180.054</ele>
        <time>2019-08-06T08:42:46Z</time>
      </trkpt>
      <trkpt lat="44.90511" lon="0.54506">
        <ele>180.025</ele>
        <time>2019-08-06T08:42:48Z</time>
      </trkpt>
      <trkpt lat="44.90511" lon="0.54509">
        <ele>179.995</ele>
        <time>2019-08-06T08:42:50Z</time>
      </trkpt>
      <trkpt lat="44.90514" lon="0.54515">
        <ele>179.937</ele>
        <time>2019-08-06T08:42:54Z</time>
      </trkpt>
      <trkpt lat="44.90514" lon="0.54522">
        <ele>179.892</ele>
        <time>2019-08-06T08:42:57Z</time>
      </trkpt>
      <trkpt lat="44.90514" lon="0.54527">
        <ele>179.828</ele>
        <time>2019-08-06T08:43:01Z</time>
      </trkpt>
      <trkpt lat="44.90518" lon="0.54531">
        <ele>179.672</ele>
        <time>2019-08-06T08:43:11Z</time>
      </trkpt>
      <trkpt lat="44.90524" lon="0.5454">
        <ele>179.599</ele>
        <time>2019-08-06T08:43:16Z</time>
      </trkpt>
      <trkpt lat="44.90528" lon="0.54544">
        <ele>179.545</ele>
        <time>2019-08-06T08:43:20Z</time>
      </trkpt>
      <trkpt lat="44.90533" lon="0.54546">
        <ele>179.493</ele>
        <time>2019-08-06T08:43:24Z</time>
      </trkpt>
      <trkpt lat="44.90536" lon="0.54547">
        <ele>179.468</ele>
        <time>2019-08-06T08:43:26Z</time>
      </trkpt>
      <trkpt lat="44.90539" lon="0.54548">
        <ele>179.444</ele>
        <time>2019-08-06T08:43:28Z</time>
      </trkpt>
      <trkpt lat="44.90542" lon="0.54549">
        <ele>179.42</ele>
        <time>2019-08-06T08:43:30Z</time>
      </trkpt>
      <trkpt lat="44.90544" lon="0.5455">
        <ele>179.396</ele>
        <time>2019-08-06T08:43:32Z</time>
      </trkpt>
      <trkpt lat="44.90549" lon="0.54551">
        <ele>179.328</ele>
        <time>2019-08-06T08:43:38Z</time>
      </trkpt>
      <trkpt lat="44.90553" lon="0.54554">
        <ele>179.284</ele>
        <time>2019-08-06T08:43:42Z</time>
      </trkpt>
      <trkpt lat="44.90556" lon="0.54559">
        <ele>179.24</ele>
        <time>2019-08-06T08:43:46Z</time>
      </trkpt>
      <trkpt lat="44.90559" lon="0.54562">
        <ele>179.207</ele>
        <time>2019-08-06T08:43:49Z</time>
      </trkpt>
      <trkpt lat="44.90561" lon="0.54566">
        <ele>179.153</ele>
        <time>2019-08-06T08:43:54Z</time>
      </trkpt>
      <trkpt lat="44.90561" lon="0.54572">
        <ele>179.077</ele>
        <time>2019-08-06T08:44:01Z</time>
      </trkpt>
      <trkpt lat="44.9056" lon="0.54576">
        <ele>179.056</ele>
        <time>2019-08-06T08:44:03Z</time>
      </trkpt>
      <trkpt lat="44.9056" lon="0.54583">
        <ele>179.014</ele>
        <time>2019-08-06T08:44:07Z</time>
      </trkpt>
      <trkpt lat="44.90558" lon="0.5459">
        <ele>178.97</ele>
        <time>2019-08-06T08:44:11Z</time>
      </trkpt>
      <trkpt lat="44.90556" lon="0.54596">
        <ele>178.925</ele>
        <time>2019-08-06T08:44:15Z</time>
      </trkpt>
      <trkpt lat="44.90554" lon="0.546">
        <ele>178.902</ele>
        <time>2019-08-06T08:44:17Z</time>
      </trkpt>
      <trkpt lat="44.90553" lon="0.54604">
        <ele>178.879</ele>
        <time>2019-08-06T08:44:19Z</time>
      </trkpt>
      <trkpt lat="44.90552" lon="0.54607">
        <ele>178.857</ele>
        <time>2019-08-06T08:44:21Z</time>
      </trkpt>
      <trkpt lat="44.9055" lon="0.54615">
        <ele>178.811</ele>
        <time>2019-08-06T08:44:25Z</time>
      </trkpt>
      <trkpt lat="44.90548" lon="0.54622">
        <ele>178.762</ele>
        <time>2019-08-06T08:44:29Z</time>
      </trkpt>
      <trkpt lat="44.90546" lon="0.54625">
        <ele>178.711</ele>
        <time>2019-08-06T08:44:33Z</time>
      </trkpt>
      <trkpt lat="44.90542" lon="0.5463">
        <ele>178.658</ele>
        <time>2019-08-06T08:44:37Z</time>
      </trkpt>
      <trkpt lat="44.90538" lon="0.54633">
        <ele>178.606</ele>
        <time>2019-08-06T08:44:41Z</time>
      </trkpt>
      <trkpt lat="44.90534" lon="0.54636">
        <ele>178.554</ele>
        <time>2019-08-06T08:44:45Z</time>
      </trkpt>
      <trkpt lat="44.90529" lon="0.54638">
        <ele>178.515</ele>
        <time>2019-08-06T08:44:48Z</time>
      </trkpt>
      <trkpt lat="44.90525" lon="0.5464">
        <ele>178.474</ele>
        <time>2019-08-06T08:44:51Z</time>
      </trkpt>
      <trkpt lat="44.9052" lon="0.54644">
        <ele>178.421</ele>
        <time>2019-08-06T08:44:55Z</time>
      </trkpt>
      <trkpt lat="44.90516" lon="0.54645">
        <ele>178.368</ele>
        <time>2019-08-06T08:44:59Z</time>
      </trkpt>
      <trkpt lat="44.90513" lon="0.54646">
        <ele>178.33</ele>
        <time>2019-08-06T08:45:02Z</time>
      </trkpt>
      <trkpt lat="44.90511" lon="0.54646">
        <ele>178.305</ele>
        <time>2019-08-06T08:45:04Z</time>
      </trkpt>
      <trkpt lat="44.90506" lon="0.54647">
        <ele>178.257</ele>
        <time>2019-08-06T08:45:08Z</time>
      </trkpt>
      <trkpt lat="44.90501" lon="0.54649">
        <ele>178.21</ele>
        <time>2019-08-06T08:45:12Z</time>
      </trkpt>
      <trkpt lat="44.90496" lon="0.54651">
        <ele>178.165</ele>
        <time>2019-08-06T08:45:16Z</time>
      </trkpt>
      <trkpt lat="44.90493" lon="0.54651">
        <ele>178.143</ele>
        <time>2019-08-06T08:45:18Z</time>
      </trkpt>
      <trkpt lat="44.9049" lon="0.54652">
        <ele>178.111</ele>
        <time>2019-08-06T08:45:21Z</time>
      </trkpt>
      <trkpt lat="44.90488" lon="0.54652">
        <ele>178.09</ele>
        <time>2019-08-06T08:45:23Z</time>
      </trkpt>
      <trkpt lat="44.90485" lon="0.54653">
        <ele>178.069</ele>
        <time>2019-08-06T08:45:25Z</time>
      </trkpt>
      <trkpt lat="44.90482" lon="0.54654">
        <ele>178.049</ele>
        <time>2019-08-06T08:45:27Z</time>
      </trkpt>
      <trkpt lat="44.9048" lon="0.54654">
        <ele>178.029</ele>
        <time>2019-08-06T08:45:29Z</time>
      </trkpt>
      <trkpt lat="44.90477" lon="0.54656">
        <ele>178.008</ele>
        <time>2019-08-06T08:45:31Z</time>
      </trkpt>
      <trkpt lat="44.90474" lon="0.54657">
        <ele>177.988</ele>
        <time>2019-08-06T08:45:33Z</time>
      </trkpt>
      <trkpt lat="44.90469" lon="0.54659">
        <ele>177.938</ele>
        <time>2019-08-06T08:45:38Z</time>
      </trkpt>
      <trkpt lat="44.90466" lon="0.54661">
        <ele>177.916</ele>
        <time>2019-08-06T08:45:40Z</time>
      </trkpt>
      <trkpt lat="44.90462" lon="0.54664">
        <ele>177.861</ele>
        <time>2019-08-06T08:45:45Z</time>
      </trkpt>
      <trkpt lat="44.90459" lon="0.54666">
        <ele>177.838</ele>
        <time>2019-08-06T08:45:47Z</time>
      </trkpt>
      <trkpt lat="44.90456" lon="0.54669">
        <ele>177.814</ele>
        <time>2019-08-06T08:45:49Z</time>
      </trkpt>
      <trkpt lat="44.90454" lon="0.5467">
        <ele>177.802</ele>
        <time>2019-08-06T08:45:50Z</time>
      </trkpt>
      <trkpt lat="44.9045" lon="0.54673">
        <ele>177.777</ele>
        <time>2019-08-06T08:45:52Z</time>
      </trkpt>
      <trkpt lat="44.90447" lon="0.54676">
        <ele>177.752</ele>
        <time>2019-08-06T08:45:54Z</time>
      </trkpt>
      <trkpt lat="44.90443" lon="0.54679">
        <ele>177.712</ele>
        <time>2019-08-06T08:45:57Z</time>
      </trkpt>
      <trkpt lat="44.90438" lon="0.54684">
        <ele>177.659</ele>
        <time>2019-08-06T08:46:01Z</time>
      </trkpt>
      <trkpt lat="44.90435" lon="0.54686">
        <ele>177.633</ele>
        <time>2019-08-06T08:46:03Z</time>
      </trkpt>
      <trkpt lat="44.90431" lon="0.54689">
        <ele>177.567</ele>
        <time>2019-08-06T08:46:08Z</time>
      </trkpt>
      <trkpt lat="44.90428" lon="0.54691">
        <ele>177.54</ele>
        <time>2019-08-06T08:46:10Z</time>
      </trkpt>
      <trkpt lat="44.90426" lon="0.54692">
        <ele>177.514</ele>
        <time>2019-08-06T08:46:12Z</time>
      </trkpt>
      <trkpt lat="44.90424" lon="0.54693">
        <ele>177.487</ele>
        <time>2019-08-06T08:46:14Z</time>
      </trkpt>
      <trkpt lat="44.90421" lon="0.54695">
        <ele>177.459</ele>
        <time>2019-08-06T08:46:16Z</time>
      </trkpt>
      <trkpt lat="44.90416" lon="0.54695">
        <ele>177.403</ele>
        <time>2019-08-06T08:46:20Z</time>
      </trkpt>
      <trkpt lat="44.90413" lon="0.54695">
        <ele>177.375</ele>
        <time>2019-08-06T08:46:22Z</time>
      </trkpt>
      <trkpt lat="44.9041" lon="0.54694">
        <ele>177.345</ele>
        <time>2019-08-06T08:46:24Z</time>
      </trkpt>
      <trkpt lat="44.90405" lon="0.54692">
        <ele>177.282</ele>
        <time>2019-08-06T08:46:28Z</time>
      </trkpt>
      <trkpt lat="44.90402" lon="0.5469">
        <ele>177.233</ele>
        <time>2019-08-06T08:46:31Z</time>
      </trkpt>
      <trkpt lat="44.90398" lon="0.54685">
        <ele>177.165</ele>
        <time>2019-08-06T08:46:35Z</time>
      </trkpt>
      <trkpt lat="44.90396" lon="0.5468">
        <ele>177.06</ele>
        <time>2019-08-06T08:46:41Z</time>
      </trkpt>
      <trkpt lat="44.90393" lon="0.54675">
        <ele>176.988</ele>
        <time>2019-08-06T08:46:45Z</time>
      </trkpt>
      <trkpt lat="44.90391" lon="0.54672">
        <ele>176.934</ele>
        <time>2019-08-06T08:46:48Z</time>
      </trkpt>
      <trkpt lat="44.9039" lon="0.54669">
        <ele>176.899</ele>
        <time>2019-08-06T08:46:50Z</time>
      </trkpt>
      <trkpt lat="44.9039" lon="0.54669">
        <ele>176.899</ele>
        <time>2019-08-06T08:46:58Z</time>
      </trkpt>
      <trkpt lat="44.9039" lon="0.54669">
        <ele>176.899</ele>
        <time>2019-08-06T08:46:59Z</time>
      </trkpt>
      <trkpt lat="44.90387" lon="0.54676">
        <ele>176.718</ele>
        <time>2019-08-06T08:47:00Z</time>
      </trkpt>
      <trkpt lat="44.90388" lon="0.54683">
        <ele>176.623</ele>
        <time>2019-08-06T08:47:05Z</time>
      </trkpt>
      <trkpt lat="44.90389" lon="0.54687">
        <ele>176.566</ele>
        <time>2019-08-06T08:47:08Z</time>
      </trkpt>
      <trkpt lat="44.90389" lon="0.54691">
        <ele>176.528</ele>
        <time>2019-08-06T08:47:10Z</time>
      </trkpt>
      <trkpt lat="44.90391" lon="0.54695">
        <ele>176.434</ele>
        <time>2019-08-06T08:47:15Z</time>
      </trkpt>
      <trkpt lat="44.90392" lon="0.54702">
        <ele>176.361</ele>
        <time>2019-08-06T08:47:19Z</time>
      </trkpt>
      <trkpt lat="44.90393" lon="0.54706">
        <ele>176.307</ele>
        <time>2019-08-06T08:47:22Z</time>
      </trkpt>
      <trkpt lat="44.90395" lon="0.54712">
        <ele>176.234</ele>
        <time>2019-08-06T08:47:26Z</time>
      </trkpt>
      <trkpt lat="44.90396" lon="0.54716">
        <ele>176.178</ele>
        <time>2019-08-06T08:47:29Z</time>
      </trkpt>
      <trkpt lat="44.90397" lon="0.54724">
        <ele>176.085</ele>
        <time>2019-08-06T08:47:34Z</time>
      </trkpt>
      <trkpt lat="44.90397" lon="0.54728">
        <ele>176.027</ele>
        <time>2019-08-06T08:47:37Z</time>
      </trkpt>
      <trkpt lat="44.90399" lon="0.54735">
        <ele>175.93</ele>
        <time>2019-08-06T08:47:42Z</time>
      </trkpt>
      <trkpt lat="44.904" lon="0.54739">
        <ele>175.87</ele>
        <time>2019-08-06T08:47:45Z</time>
      </trkpt>
      <trkpt lat="44.90402" lon="0.54743">
        <ele>175.828</ele>
        <time>2019-08-06T08:47:47Z</time>
      </trkpt>
      <trkpt lat="44.90402" lon="0.54746">
        <ele>175.808</ele>
        <time>2019-08-06T08:47:48Z</time>
      </trkpt>
      <trkpt lat="44.90403" lon="0.54752">
        <ele>175.746</ele>
        <time>2019-08-06T08:47:51Z</time>
      </trkpt>
      <trkpt lat="44.90404" lon="0.54756">
        <ele>175.707</ele>
        <time>2019-08-06T08:47:53Z</time>
      </trkpt>
      <trkpt lat="44.90405" lon="0.54762">
        <ele>175.63</ele>
        <time>2019-08-06T08:47:57Z</time>
      </trkpt>
      <trkpt lat="44.90408" lon="0.5477">
        <ele>175.574</ele>
        <time>2019-08-06T08:48:00Z</time>
      </trkpt>
      <trkpt lat="44.90411" lon="0.54776">
        <ele>175.5</ele>
        <time>2019-08-06T08:48:04Z</time>
      </trkpt>
      <trkpt lat="44.90414" lon="0.54781">
        <ele>175.445</ele>
        <time>2019-08-06T08:48:07Z</time>
      </trkpt>
      <trkpt lat="44.90416" lon="0.54787">
        <ele>175.39</ele>
        <time>2019-08-06T08:48:10Z</time>
      </trkpt>
      <trkpt lat="44.90419" lon="0.54792">
        <ele>175.333</ele>
        <time>2019-08-06T08:48:13Z</time>
      </trkpt>
      <trkpt lat="44.90423" lon="0.54796">
        <ele>175.228</ele>
        <time>2019-08-06T08:48:18Z</time>
      </trkpt>
      <trkpt lat="44.90426" lon="0.54798">
        <ele>175.181</ele>
        <time>2019-08-06T08:48:20Z</time>
      </trkpt>
      <trkpt lat="44.90431" lon="0.54802">
        <ele>175.105</ele>
        <time>2019-08-06T08:48:23Z</time>
      </trkpt>
      <trkpt lat="44.90436" lon="0.54804">
        <ele>175.027</ele>
        <time>2019-08-06T08:48:26Z</time>
      </trkpt>
      <trkpt lat="44.9044" lon="0.54807">
        <ele>174.922</ele>
        <time>2019-08-06T08:48:30Z</time>
      </trkpt>
      <trkpt lat="44.90446" lon="0.54808">
        <ele>174.776</ele>
        <time>2019-08-06T08:48:35Z</time>
      </trkpt>
      <trkpt lat="44.90451" lon="0.54808">
        <ele>174.617</ele>
        <time>2019-08-06T08:48:39Z</time>
      </trkpt>
      <trkpt lat="44.90456" lon="0.54811">
        <ele>174.345</ele>
        <time>2019-08-06T08:48:45Z</time>
      </trkpt>
      <trkpt lat="44.9046" lon="0.54811">
        <ele>174.197</ele>
        <time>2019-08-06T08:48:48Z</time>
      </trkpt>
      <trkpt lat="44.90465" lon="0.54812">
        <ele>174.04</ele>
        <time>2019-08-06T08:48:51Z</time>
      </trkpt>
      <trkpt lat="44.90467" lon="0.54813">
        <ele>173.934</ele>
        <time>2019-08-06T08:48:53Z</time>
      </trkpt>
      <trkpt lat="44.90472" lon="0.54816">
        <ele>173.711</ele>
        <time>2019-08-06T08:48:57Z</time>
      </trkpt>
      <trkpt lat="44.90476" lon="0.54821">
        <ele>173.471</ele>
        <time>2019-08-06T08:49:01Z</time>
      </trkpt>
      <trkpt lat="44.9048" lon="0.54822">
        <ele>173.218</ele>
        <time>2019-08-06T08:49:05Z</time>
      </trkpt>
      <trkpt lat="44.90485" lon="0.54821">
        <ele>172.793</ele>
        <time>2019-08-06T08:49:11Z</time>
      </trkpt>
      <trkpt lat="44.9049" lon="0.54818">
        <ele>172.486</ele>
        <time>2019-08-06T08:49:15Z</time>
      </trkpt>
      <trkpt lat="44.90493" lon="0.54815">
        <ele>172.161</ele>
        <time>2019-08-06T08:49:19Z</time>
      </trkpt>
      <trkpt lat="44.90499" lon="0.54813">
        <ele>171.82</ele>
        <time>2019-08-06T08:49:23Z</time>
      </trkpt>
      <trkpt lat="44.90502" lon="0.54812">
        <ele>171.556</ele>
        <time>2019-08-06T08:49:26Z</time>
      </trkpt>
      <trkpt lat="44.90507" lon="0.54811">
        <ele>171.179</ele>
        <time>2019-08-06T08:49:30Z</time>
      </trkpt>
      <trkpt lat="44.9051" lon="0.54809">
        <ele>170.768</ele>
        <time>2019-08-06T08:49:35Z</time>
      </trkpt>
      <trkpt lat="44.90516" lon="0.5481">
        <ele>170.024</ele>
        <time>2019-08-06T08:49:43Z</time>
      </trkpt>
      <trkpt lat="44.9052" lon="0.54813">
        <ele>169.605</ele>
        <time>2019-08-06T08:49:47Z</time>
      </trkpt>
      <trkpt lat="44.90525" lon="0.54817">
        <ele>169.383</ele>
        <time>2019-08-06T08:49:49Z</time>
      </trkpt>
      <trkpt lat="44.90528" lon="0.54818">
        <ele>169.146</ele>
        <time>2019-08-06T08:49:51Z</time>
      </trkpt>
      <trkpt lat="44.90527" lon="0.54827">
        <ele>168.648</ele>
        <time>2019-08-06T08:49:55Z</time>
      </trkpt>
      <trkpt lat="44.90527" lon="0.5483">
        <ele>168.52</ele>
        <time>2019-08-06T08:49:56Z</time>
      </trkpt>
      <trkpt lat="44.90525" lon="0.54838">
        <ele>167.987</ele>
        <time>2019-08-06T08:50:00Z</time>
      </trkpt>
      <trkpt lat="44.90523" lon="0.54845">
        <ele>167.319</ele>
        <time>2019-08-06T08:50:05Z</time>
      </trkpt>
      <trkpt lat="44.90518" lon="0.54853">
        <ele>166.718</ele>
        <time>2019-08-06T08:50:10Z</time>
      </trkpt>
      <trkpt lat="44.90518" lon="0.54853">
        <ele>63.3</ele>
        <time>2019-08-06T08:50:20Z</time>
      </trkpt>
      <trkpt lat="44.90518" lon="0.54853">
        <ele>63.3</ele>
        <time>2019-08-06T08:50:24Z</time>
      </trkpt>
    </trkseg>
  </trk>
</gpx>